[[{"header":{"parameterUnit":"m.s-1","parameterCategory":1,"la1":31.0,"la2":29.5877,"lo1":-88.7671,"lo2":-86.6584,"dx":0.0162,"dy":0.0185,"nx":115,"ny":88,"refTime":"2023-02-02T18:00:00:Z","depth":0,"parameterNumber":2,"parameterNumberName":"U-component_of_WINDS"},"data":[0.0,0.0,0.0,0.0,0.0,0.0,0.0,0.0,0.0,0.0,0.0,0.0,0.0,0.0,0.0,0.0,0.0,0.0,0.0,0.0,0.0,0.0,0.0,0.0,0.0,0.0,0.0,0.0,0.0,0.0,0.0,0.0,0.0,0.0,0.0,0.0,0.0,0.0,0.0,0.0,0.0,0.0,0.0,0.0,0.0,0.0,0.0,0.0,0.0,0.0,0.0,0.0,0.0,0.0,0.0,0.0,0.0,0.0,0.0,0.0,0.0,0.0,0.0,0.0,0.0,0.0,0.0,0.0,0.0,0.0,0.0,0.0,0.0,0.0,0.0,0.0,0.0,0.0,0.0,0.0,0.0,0.0,0.0,0.0,0.0,0.0,0.0,0.0,0.0,0.0,0.0,0.0,0.0,0.0,0.0,0.0,0.0,0.0,0.0,0.0,0.0,0.0,0.0,0.0,0.0,0.0,0.0,0.0,0.0,0.0,0.0,0.0,0.0,0.0,0.0,0.0,0.0,0.0,0.0,0.0,0.0,0.0,0.0,0.0,0.0,0.0,0.0,0.0,0.0,0.0,0.0,0.0,0.0,0.0,0.0,0.0,0.0,0.0,0.0,0.0,0.0,0.0,0.0,0.0,0.0,0.0,0.0,0.0,0.0,0.0,0.0,0.0,0.0,0.0,0.0,0.0,0.0,0.0,0.0,0.0,0.0,0.0,0.0,0.0,0.0,0.0,0.0,0.0,0.0,0.0,0.0,0.0,0.0,0.0,0.0,0.0,0.0,0.0,0.0,0.0,0.0,0.0,0.0,0.0,0.0,0.0,0.0,0.0,0.0,0.0,0.0,0.0,0.0,0.0,0.0,0.0,0.0,0.0,0.0,0.0,0.0,0.0,0.0,0.0,0.0,0.0,0.0,0.0,0.0,0.0,0.0,0.0,0.0,0.0,0.0,0.0,0.0,0.0,0.0,0.0,0.0,0.0,0.0,0.0,0.0,0.0,0.0,0.0,0.0,0.0,0.0,0.0,0.0,0.0,0.0,0.0,0.0,0.0,0.0,0.0,0.0,0.0,0.0,0.0,0.0,0.0,0.0,0.0,0.0,0.0,0.0,0.0,0.0,0.0,0.0,0.0,0.0,0.0,0.0,0.0,0.0,0.0,0.0,0.0,0.0,0.0,0.0,0.0,0.0,0.0,0.0,0.0,0.0,0.0,0.0,0.0,0.0,0.0,0.0,0.0,0.0,0.0,0.0,0.0,0.0,0.0,0.0,0.0,0.0,0.0,0.0,0.0,0.0,0.0,0.0,0.0,0.0,0.0,0.0,0.0,0.0,0.0,0.0,0.0,0.0,0.0,0.0,0.0,0.0,0.0,0.0,0.0,0.0,0.0,0.0,0.0,0.0,0.0,0.0,0.0,0.0,0.0,0.0,0.0,0.0,0.0,0.0,0.0,0.0,0.0,0.0,0.0,0.0,0.0,0.0,0.0,0.0,0.0,0.0,0.0,0.0,0.0,0.0,0.0,0.0,0.0,0.0,0.0,0.0,0.0,0.0,0.0,0.0,0.0,0.0,0.0,0.0,0.0,0.0,0.0,0.0,0.0,0.0,0.0,0.0,0.0,0.0,0.0,0.0,0.0,0.0,0.0,0.0,0.0,0.0,0.0,0.0,0.0,0.0,0.0,0.0,0.0,0.0,0.0,0.0,0.0,0.0,0.0,0.0,0.0,0.0,0.0,0.0,0.0,0.0,0.0,0.0,0.0,0.0,0.0,0.0,0.0,0.0,0.0,0.0,0.0,0.0,0.0,0.0,0.0,0.0,0.0,0.0,0.0,0.0,0.0,0.0,0.0,0.0,0.0,0.0,0.0,0.0,0.0,0.0,0.0,0.0,0.0,0.0,0.0,0.0,0.0,0.0,0.0,0.0,0.0,0.0,0.0,0.0,0.0,0.0,0.0,0.0,0.0,0.0,0.0,0.0,0.0,0.0,0.0,0.0,0.0,0.0,0.0,0.0,0.0,0.0,0.0,0.0,0.0,0.0,0.0,0.0,0.0,0.0,0.0,0.0,0.0,0.0,0.0,0.0,0.0,0.0,0.0,0.0,0.0,0.0,0.0,0.0,0.0,0.0,0.0,0.0,0.0,0.0,0.0,0.0,0.0,0.0,0.0,0.0,0.0,0.0,0.0,0.0,0.0,0.0,0.0,0.0,0.0,0.0,0.0,0.0,0.0,0.0,0.0,0.0,0.0,0.0,0.0,0.0,0.0,0.0,0.0,0.0,0.0,0.0,0.0,0.0,0.0,0.0,0.0,0.0,0.0,0.0,0.0,0.0,0.0,0.0,0.0,0.0,0.0,0.0,0.0,0.0,0.0,0.0,0.0,0.0,0.0,0.0,0.0,0.0,0.0,0.0,0.0,0.0,0.0,0.0,0.0,0.0,0.0,0.0,0.0,0.0,0.0,0.0,0.0,0.0,0.0,0.0,0.0,0.0,0.0,0.0,0.0,0.0,0.0,0.0,0.0,0.0,0.0,0.0,0.0,0.0,0.0,0.0,0.0,0.0,0.0,0.0,0.0,0.0,0.0,0.0,0.0,0.0,0.0,0.0,0.0,0.0,0.0,0.0,0.0,0.0,0.0,0.0,0.0,0.0,0.0,0.0,0.0,0.0,0.0,0.0,0.0,0.0,0.0,0.0,0.0,0.0,0.0,0.0,0.0,0.0,0.0,0.0,0.0,0.0,0.0,0.0,0.0,0.0,0.0,0.0,0.0,0.0,0.0,0.0,0.0,0.0,0.0,0.0,0.0,0.0,0.0,0.0,0.0,0.0,0.0,0.0,0.0,0.0,0.0,0.0,0.0,0.0,0.0,0.0,0.0,0.0,0.0,0.0,0.0,0.0,0.0,0.0,0.0,0.0,0.0,0.0,0.0,0.0,0.0,0.0,0.0,0.0,0.0,0.0,0.0,0.0,0.0,0.0,0.0,0.0,0.0,0.0,0.0,0.0,0.0,0.0,0.0,0.0,0.0,0.0,0.0,0.0,0.0,0.0,0.0,0.0,0.0,0.0,0.0,0.0,0.0,0.0,0.0,0.0,0.0,0.0,0.0,0.0,0.0,0.0,0.0,0.0,0.0,0.0,0.0,0.0,0.0,0.0,0.0,0.0,0.0,0.0,0.0,0.0,0.0,0.0,0.0,0.0,0.0,0.0,0.0,0.0,0.0,0.0,0.0,0.0,0.0,0.0,0.0,0.0,0.0,0.0,0.0,0.0,0.0,0.0,0.0,0.0,0.0,0.0,0.0,0.0,0.0,0.0,0.0,0.0,0.0,0.0,0.0,0.0,0.0,0.0,0.0,0.0,0.0,0.0,0.0,0.0,0.0,0.0,0.0,0.0,0.0,0.0,0.0,0.0,0.0,0.0,0.0,0.0,0.0,0.0,0.0,0.0,0.0,0.0,0.0,0.0,0.0,0.0,0.0,0.0,0.0,0.0,0.0,0.0,0.0,0.0,0.0,0.0,0.0,0.0,0.0,0.0,0.0,0.0,0.0,0.0,0.0,0.0,0.0,0.0,0.0,0.0,0.0,0.0,0.0,0.0,0.0,0.0,0.0,0.0,0.0,0.0,0.0,0.0,0.0,0.0,0.0,0.0,0.0,0.0,0.0,0.0,0.0,0.0,0.0,0.0,0.0,0.0,0.0,0.0,0.0,0.0,0.0,0.0,0.0,0.0,0.0,0.0,0.0,0.0,0.0,0.0,0.0,0.0,0.0,0.0,0.0,0.0,0.0,0.0,0.0,0.0,0.0,0.0,0.0,0.0,0.0,0.0,0.0,0.0,0.0,0.0,0.0,0.0,0.0,0.0,0.0,0.0,0.0,0.0,0.0,0.0,0.0,0.0,0.0,0.0,0.0,0.0,0.0,0.0,0.0,0.0,0.0,0.0,0.0,0.0,0.0,0.0,0.0,0.0,0.0,0.0,0.0,0.0,0.0,0.0,0.0,0.0,0.0,0.0,0.0,0.0,0.0,0.0,0.0,0.0,0.0,0.0,0.0,0.0,0.0,0.0,0.0,0.0,0.0,0.0,0.0,0.0,0.0,0.0,0.0,0.0,0.0,0.0,0.0,0.0,0.0,0.0,0.0,0.0,0.0,0.0,0.0,0.0,0.0,0.0,0.0,0.0,0.0,0.0,0.0,0.0,0.0,0.0,0.0,0.0,0.0,0.0,0.0,0.0,0.0,0.0,0.0,0.0,0.0,0.0,0.0,0.0,0.0,7.2027,0.0,0.0,0.0,0.0,0.0,0.0,0.0,0.0,0.0,0.0,0.0,0.0,0.0,0.0,0.0,0.0,0.0,0.0,0.0,0.0,0.0,0.0,0.0,0.0,0.0,0.0,0.0,0.0,0.0,0.0,0.0,0.0,0.0,0.0,0.0,0.0,0.0,0.0,0.0,0.0,0.0,0.0,0.0,0.0,0.0,0.0,0.0,0.0,0.0,0.0,0.0,0.0,0.0,0.0,0.0,0.0,0.0,0.0,0.0,0.0,0.0,0.0,0.0,0.0,0.0,0.0,0.0,0.0,0.0,0.0,0.0,0.0,0.0,0.0,0.0,0.0,0.0,0.0,0.0,0.0,0.0,0.0,0.0,0.0,0.0,0.0,0.0,0.0,0.0,0.0,0.0,0.0,0.0,0.0,0.0,0.0,0.0,0.0,0.0,0.0,0.0,0.0,0.0,0.0,0.0,0.0,0.0,0.0,0.0,0.0,7.5619,7.5189,7.3939,7.3119,7.2692,0.0,0.0,0.0,0.0,0.0,0.0,0.0,0.0,0.0,0.0,0.0,0.0,0.0,0.0,0.0,0.0,0.0,0.0,0.0,0.0,0.0,0.0,0.0,0.0,0.0,0.0,0.0,0.0,0.0,0.0,0.0,0.0,0.0,0.0,0.0,0.0,0.0,0.0,0.0,0.0,0.0,0.0,0.0,0.0,0.0,0.0,0.0,0.0,0.0,0.0,0.0,0.0,0.0,0.0,0.0,0.0,0.0,0.0,0.0,0.0,0.0,0.0,0.0,0.0,0.0,0.0,0.0,0.0,0.0,0.0,0.0,0.0,0.0,0.0,0.0,0.0,0.0,0.0,0.0,0.0,0.0,0.0,0.0,0.0,0.0,0.0,0.0,0.0,0.0,0.0,0.0,0.0,0.0,0.0,0.0,0.0,0.0,0.0,0.0,0.0,0.0,0.0,0.0,0.0,0.0,0.0,0.0,0.0,0.0,0.0,0.0,0.0,7.4525,7.3669,7.3287,0.0,0.0,0.0,0.0,0.0,0.0,0.0,0.0,0.0,0.0,0.0,0.0,0.0,0.0,0.0,0.0,0.0,0.0,0.0,0.0,0.0,0.0,0.0,0.0,0.0,0.0,0.0,0.0,0.0,0.0,0.0,0.0,0.0,0.0,0.0,0.0,0.0,0.0,0.0,0.0,0.0,0.0,0.0,0.0,0.0,0.0,0.0,0.0,0.0,0.0,0.0,0.0,0.0,0.0,0.0,0.0,0.0,0.0,0.0,0.0,0.0,0.0,0.0,0.0,0.0,0.0,0.0,0.0,0.0,0.0,0.0,0.0,0.0,0.0,0.0,0.0,0.0,0.0,0.0,0.0,0.0,0.0,0.0,0.0,0.0,0.0,0.0,0.0,0.0,0.0,0.0,0.0,0.0,0.0,0.0,0.0,0.0,0.0,0.0,0.0,0.0,0.0,0.0,0.0,0.0,0.0,0.0,0.0,0.0,0.0,7.6594,7.5815,7.5659,0.0,7.3383,0.0,0.0,0.0,0.0,0.0,0.0,0.0,0.0,0.0,0.0,0.0,0.0,0.0,0.0,0.0,0.0,0.0,0.0,0.0,0.0,0.0,0.0,0.0,0.0,0.0,0.0,0.0,0.0,0.0,0.0,0.0,0.0,0.0,0.0,0.0,0.0,0.0,0.0,0.0,0.0,0.0,0.0,0.0,0.0,0.0,0.0,0.0,0.0,0.0,0.0,0.0,0.0,0.0,0.0,0.0,0.0,0.0,0.0,0.0,0.0,0.0,0.0,0.0,0.0,0.0,0.0,0.0,0.0,0.0,0.0,0.0,0.0,0.0,0.0,0.0,0.0,0.0,0.0,0.0,0.0,0.0,0.0,0.0,0.0,0.0,0.0,0.0,0.0,0.0,0.0,0.0,0.0,0.0,0.0,0.0,0.0,0.0,0.0,0.0,0.0,0.0,0.0,0.0,0.0,0.0,0.0,0.0,0.0,0.0,0.0,7.6945,7.6555,7.5617,7.4537,0.0,0.0,0.0,0.0,0.0,0.0,0.0,0.0,0.0,0.0,0.0,0.0,0.0,0.0,0.0,0.0,0.0,0.0,0.0,0.0,0.0,0.0,0.0,0.0,0.0,0.0,0.0,0.0,0.0,0.0,0.0,0.0,0.0,0.0,0.0,0.0,0.0,0.0,0.0,0.0,0.0,0.0,0.0,0.0,0.0,0.0,0.0,0.0,0.0,0.0,0.0,0.0,0.0,0.0,0.0,0.0,0.0,0.0,0.0,0.0,0.0,0.0,0.0,0.0,0.0,0.0,0.0,0.0,0.0,0.0,0.0,0.0,0.0,0.0,0.0,0.0,0.0,0.0,0.0,0.0,0.0,0.0,0.0,0.0,0.0,0.0,0.0,0.0,0.0,0.0,0.0,0.0,0.0,0.0,0.0,0.0,0.0,0.0,0.0,0.0,0.0,0.0,0.0,0.0,0.0,0.0,0.0,0.0,0.0,0.0,7.7102,7.7102,7.7023,7.546,7.4301,7.3697,0.0,0.0,0.0,0.0,0.0,0.0,0.0,0.0,0.0,0.0,0.0,0.0,0.0,0.0,0.0,0.0,0.0,0.0,0.0,0.0,0.0,0.0,0.0,0.0,0.0,0.0,0.0,0.0,0.0,0.0,0.0,0.0,0.0,0.0,0.0,0.0,0.0,0.0,0.0,0.0,0.0,0.0,0.0,0.0,0.0,0.0,0.0,0.0,0.0,0.0,0.0,0.0,0.0,0.0,0.0,0.0,0.0,0.0,0.0,0.0,0.0,0.0,0.0,0.0,0.0,0.0,0.0,0.0,0.0,0.0,0.0,0.0,0.0,0.0,0.0,0.0,0.0,0.0,0.0,0.0,0.0,0.0,0.0,0.0,0.0,0.0,0.0,0.0,0.0,0.0,0.0,0.0,0.0,0.0,0.0,0.0,0.0,0.0,0.0,0.0,0.0,0.0,0.0,0.0,0.0,0.0,0.0,0.0,0.0,7.7102,7.7102,7.7063,7.5462,7.4573,0.0,0.0,0.0,0.0,0.0,0.0,0.0,0.0,0.0,0.0,0.0,0.0,0.0,0.0,0.0,0.0,0.0,0.0,0.0,0.0,0.0,0.0,0.0,0.0,0.0,0.0,0.0,0.0,0.0,0.0,0.0,0.0,0.0,0.0,0.0,0.0,0.0,0.0,0.0,0.0,0.0,0.0,0.0,0.0,0.0,0.0,0.0,0.0,0.0,0.0,0.0,0.0,0.0,0.0,0.0,0.0,0.0,0.0,0.0,0.0,0.0,0.0,0.0,0.0,0.0,0.0,0.0,0.0,0.0,0.0,0.0,0.0,0.0,0.0,0.0,0.0,0.0,0.0,0.0,0.0,0.0,0.0,0.0,0.0,0.0,0.0,0.0,0.0,0.0,0.0,0.0,0.0,0.0,0.0,0.0,0.0,0.0,0.0,0.0,0.0,0.0,0.0,0.0,0.0,0.0,0.0,0.0,0.0,0.0,7.7102,7.7102,7.7102,7.7063,7.5968,7.5113,0.0,0.0,0.0,0.0,0.0,0.0,0.0,0.0,0.0,0.0,0.0,0.0,0.0,0.0,0.0,0.0,0.0,0.0,0.0,0.0,0.0,0.0,0.0,0.0,0.0,0.0,0.0,0.0,0.0,0.0,0.0,0.0,0.0,0.0,0.0,0.0,0.0,0.0,0.0,0.0,0.0,0.0,0.0,0.0,0.0,0.0,0.0,0.0,0.0,0.0,0.0,0.0,0.0,0.0,0.0,0.0,0.0,0.0,0.0,0.0,0.0,0.0,0.0,0.0,0.0,0.0,0.0,0.0,0.0,0.0,0.0,0.0,0.0,0.0,0.0,0.0,0.0,0.0,0.0,0.0,0.0,0.0,0.0,0.0,0.0,0.0,0.0,0.0,0.0,0.0,0.0,0.0,0.0,0.0,0.0,0.0,0.0,0.0,0.0,0.0,0.0,0.0,0.0,0.0,0.0,0.0,0.0,0.0,0.0,7.7522,0.0,7.7521,7.7483,7.6662,7.5729,0.0,0.0,0.0,0.0,0.0,0.0,0.0,0.0,0.0,0.0,0.0,0.0,0.0,0.0,0.0,0.0,0.0,0.0,0.0,0.0,0.0,0.0,0.0,0.0,0.0,0.0,0.0,0.0,0.0,0.0,0.0,0.0,0.0,0.0,0.0,0.0,0.0,0.0,0.0,0.0,0.0,0.0,0.0,0.0,0.0,0.0,0.0,0.0,0.0,0.0,0.0,0.0,0.0,0.0,0.0,0.0,0.0,0.0,0.0,0.0,0.0,0.0,0.0,0.0,0.0,0.0,0.0,0.0,0.0,0.0,0.0,0.0,0.0,0.0,0.0,0.0,0.0,0.0,0.0,0.0,0.0,0.0,0.0,0.0,0.0,0.0,0.0,0.0,0.0,0.0,0.0,0.0,0.0,0.0,0.0,0.0,0.0,0.0,0.0,0.0,0.0,0.0,0.0,0.0,0.0,0.0,0.0,0.0,7.7636,7.8398,7.8437,7.8475,7.8398,7.7619,7.6341,0.0,0.0,0.0,0.0,0.0,0.0,0.0,0.0,0.0,0.0,0.0,0.0,0.0,0.0,0.0,0.0,0.0,0.0,0.0,0.0,0.0,0.0,0.0,0.0,0.0,0.0,0.0,0.0,0.0,0.0,0.0,0.0,0.0,0.0,0.0,0.0,0.0,0.0,0.0,0.0,0.0,0.0,0.0,0.0,0.0,0.0,0.0,0.0,0.0,0.0,0.0,0.0,0.0,0.0,0.0,0.0,0.0,0.0,0.0,0.0,0.0,0.0,0.0,0.0,0.0,0.0,0.0,0.0,0.0,0.0,0.0,0.0,0.0,0.0,0.0,0.0,0.0,0.0,0.0,0.0,0.0,0.0,0.0,0.0,0.0,0.0,0.0,0.0,0.0,0.0,0.0,0.0,0.0,0.0,0.0,0.0,0.0,0.0,0.0,0.0,0.0,0.0,0.0,0.0,0.0,0.0,0.0,0.0,0.0,8.0064,8.0083,8.0083,8.0027,7.932,7.8052,0.0,0.0,0.0,0.0,0.0,0.0,0.0,0.0,0.0,0.0,0.0,0.0,0.0,0.0,0.0,0.0,0.0,0.0,0.0,0.0,0.0,0.0,0.0,0.0,0.0,0.0,0.0,0.0,0.0,0.0,0.0,0.0,0.0,0.0,0.0,0.0,0.0,0.0,0.0,0.0,0.0,0.0,0.0,0.0,0.0,0.0,0.0,0.0,0.0,0.0,0.0,0.0,0.0,0.0,0.0,0.0,0.0,0.0,0.0,0.0,0.0,0.0,0.0,0.0,0.0,0.0,0.0,0.0,0.0,0.0,0.0,0.0,0.0,0.0,0.0,0.0,0.0,0.0,0.0,0.0,0.0,0.0,0.0,0.0,0.0,0.0,0.0,0.0,0.0,0.0,0.0,0.0,0.0,0.0,0.0,0.0,0.0,0.0,0.0,0.0,0.0,0.0,0.0,0.0,0.0,0.0,0.0,0.0,0.0,8.453,8.3417,8.2626,8.2302,8.1555,8.0006,7.7641,0.0,0.0,0.0,0.0,0.0,0.0,0.0,0.0,0.0,0.0,0.0,0.0,0.0,0.0,0.0,0.0,0.0,0.0,0.0,0.0,0.0,0.0,0.0,0.0,0.0,0.0,0.0,0.0,0.0,0.0,0.0,0.0,0.0,0.0,0.0,0.0,0.0,0.0,0.0,0.0,0.0,0.0,0.0,0.0,0.0,0.0,0.0,0.0,0.0,0.0,0.0,0.0,0.0,0.0,0.0,0.0,0.0,0.0,0.0,0.0,0.0,0.0,0.0,0.0,0.0,0.0,0.0,0.0,0.0,0.0,0.0,0.0,0.0,0.0,0.0,0.0,0.0,0.0,0.0,0.0,0.0,0.0,0.0,0.0,0.0,0.0,0.0,0.0,0.0,0.0,0.0,0.0,0.0,0.0,0.0,0.0,0.0,0.0,0.0,0.0,0.0,0.0,0.0,0.0,0.0,0.0,0.0,0.0,9.1218,8.829,8.6243,8.5203,8.4374,8.2192,0.0,0.0,0.0,0.0,0.0,0.0,0.0,0.0,0.0,0.0,0.0,0.0,0.0,0.0,0.0,0.0,0.0,0.0,0.0,0.0,0.0,0.0,0.0,0.0,0.0,0.0,0.0,0.0,0.0,0.0,0.0,0.0,0.0,0.0,0.0,0.0,0.0,0.0,0.0,0.0,0.0,0.0,0.0,0.0,0.0,0.0,0.0,0.0,0.0,0.0,0.0,0.0,0.0,0.0,0.0,0.0,0.0,0.0,0.0,0.0,0.0,0.0,0.0,0.0,0.0,0.0,0.0,0.0,0.0,0.0,0.0,0.0,0.0,0.0,0.0,0.0,0.0,0.0,0.0,0.0,0.0,0.0,0.0,0.0,0.0,0.0,0.0,0.0,0.0,0.0,0.0,0.0,0.0,0.0,0.0,0.0,0.0,0.0,0.0,0.0,0.0,0.0,0.0,0.0,0.0,0.0,0.0,0.0,0.0,9.4563,9.5196,9.3556,8.9676,8.8095,8.5717,0.0,0.0,0.0,0.0,0.0,0.0,0.0,0.0,0.0,0.0,0.0,0.0,0.0,0.0,0.0,0.0,0.0,0.0,0.0,0.0,0.0,0.0,0.0,0.0,0.0,0.0,0.0,0.0,0.0,0.0,0.0,0.0,0.0,0.0,0.0,0.0,0.0,0.0,0.0,0.0,0.0,0.0,0.0,0.0,0.0,0.0,0.0,0.0,0.0,0.0,0.0,0.0,0.0,0.0,0.0,0.0,0.0,0.0,0.0,0.0,0.0,0.0,0.0,0.0,0.0,0.0,0.0,0.0,0.0,0.0,0.0,0.0,0.0,0.0,0.0,0.0,0.0,0.0,0.0,0.0,0.0,0.0,0.0,0.0,0.0,0.0,0.0,0.0,0.0,0.0,0.0,0.0,0.0,0.0,0.0,0.0,0.0,0.0,0.0,0.0,0.0,0.0,0.0,0.0,0.0,0.0,0.0,0.0,9.3756,9.8604,10.0541,9.9765,9.613,9.2605,8.8803,0.0,0.0,0.0,0.0,0.0,0.0,0.0,0.0,0.0,0.0,0.0,0.0,0.0,0.0,0.0,0.0,0.0,0.0,0.0,0.0,0.0,0.0,0.0,0.0,0.0,0.0,0.0,0.0,0.0,0.0,0.0,0.0,0.0,0.0,0.0,0.0,0.0,0.0,0.0,0.0,0.0,0.0,0.0,0.0,0.0,0.0,0.0,0.0,0.0,0.0,0.0,0.0,0.0,0.0,0.0,0.0,0.0,0.0,0.0,0.0,0.0,0.0,0.0,0.0,0.0,0.0,0.0,0.0,0.0,0.0,0.0,0.0,0.0,0.0,0.0,0.0,0.0,0.0,0.0,0.0,0.0,0.0,0.0,0.0,0.0,0.0,0.0,0.0,0.0,0.0,0.0,0.0,0.0,0.0,0.0,0.0,0.0,0.0,0.0,0.0,0.0,0.0,0.0,0.0,0.0,0.0,0.0,0.0,9.6893,10.2682,10.4655,10.4834,10.3101,9.7357,9.1809,0.0,0.0,0.0,0.0,0.0,0.0,0.0,0.0,0.0,0.0,0.0,0.0,0.0,0.0,0.0,0.0,0.0,0.0,0.0,0.0,0.0,0.0,0.0,0.0,0.0,0.0,0.0,0.0,0.0,0.0,0.0,0.0,0.0,0.0,0.0,0.0,0.0,0.0,0.0,0.0,0.0,0.0,0.0,0.0,0.0,0.0,0.0,0.0,0.0,0.0,0.0,0.0,0.0,0.0,0.0,0.0,0.0,0.0,0.0,0.0,0.0,0.0,0.0,0.0,0.0,0.0,0.0,0.0,0.0,0.0,0.0,0.0,0.0,0.0,0.0,0.0,0.0,0.0,0.0,0.0,0.0,0.0,0.0,0.0,0.0,0.0,0.0,0.0,0.0,0.0,0.0,0.0,0.0,0.0,0.0,0.0,0.0,0.0,0.0,0.0,0.0,0.0,0.0,0.0,0.0,0.0,0.0,0.0,9.9736,10.6108,10.7506,10.7616,10.658,10.0749,9.5306,0.0,0.0,0.0,0.0,0.0,0.0,0.0,0.0,0.0,0.0,0.0,0.0,0.0,0.0,0.0,0.0,0.0,0.0,0.0,0.0,0.0,0.0,0.0,0.0,0.0,0.0,0.0,0.0,0.0,0.0,0.0,0.0,0.0,0.0,0.0,0.0,0.0,0.0,0.0,0.0,0.0,0.0,0.0,0.0,0.0,0.0,0.0,0.0,7.6211,0.0,0.0,0.0,0.0,0.0,0.0,0.0,0.0,0.0,0.0,0.0,0.0,0.0,0.0,0.0,0.0,0.0,0.0,0.0,0.0,0.0,0.0,0.0,0.0,0.0,0.0,0.0,0.0,0.0,0.0,0.0,0.0,0.0,0.0,0.0,0.0,0.0,0.0,0.0,0.0,0.0,0.0,0.0,0.0,0.0,0.0,0.0,0.0,0.0,0.0,0.0,0.0,0.0,0.0,0.0,0.0,0.0,0.0,0.0,10.2574,10.8355,10.9897,10.9844,10.8119,10.3174,9.7774,0.0,0.0,0.0,0.0,0.0,0.0,0.0,0.0,0.0,0.0,0.0,0.0,0.0,0.0,0.0,0.0,0.0,0.0,0.0,0.0,0.0,0.0,0.0,0.0,0.0,0.0,0.0,0.0,0.0,0.0,0.0,0.0,0.0,0.0,0.0,0.0,0.0,0.0,0.0,0.0,0.0,0.0,0.0,0.0,0.0,0.0,0.0,0.0,0.0,0.0,0.0,0.0,0.0,0.0,0.0,0.0,0.0,0.0,0.0,0.0,0.0,0.0,0.0,0.0,0.0,0.0,0.0,0.0,0.0,0.0,0.0,0.0,0.0,0.0,0.0,0.0,0.0,0.0,0.0,0.0,0.0,0.0,0.0,0.0,0.0,0.0,0.0,0.0,0.0,0.0,0.0,0.0,0.0,0.0,0.0,0.0,0.0,0.0,0.0,0.0,0.0,0.0,0.0,0.0,0.0,0.0,0.0,10.0583,10.5384,11.0318,11.2064,11.1776,10.9455,10.5055,9.9676,0.0,0.0,0.0,0.0,0.0,0.0,0.0,0.0,0.0,0.0,0.0,0.0,0.0,0.0,0.0,0.0,0.0,0.0,0.0,0.0,0.0,0.0,0.0,0.0,0.0,0.0,0.0,0.0,0.0,0.0,0.0,0.0,0.0,0.0,0.0,0.0,0.0,0.0,0.0,7.6593,7.8752,0.0,0.0,0.0,0.0,0.0,0.0,0.0,0.0,8.034,0.0,0.0,0.0,0.0,0.0,0.0,0.0,0.0,0.0,0.0,0.0,0.0,0.0,0.0,0.0,0.0,0.0,0.0,0.0,0.0,0.0,0.0,0.0,0.0,0.0,0.0,0.0,0.0,0.0,0.0,0.0,0.0,0.0,0.0,0.0,0.0,0.0,0.0,0.0,0.0,0.0,0.0,0.0,0.0,0.0,0.0,0.0,0.0,0.0,0.0,0.0,0.0,0.0,0.0,0.0,0.0,9.6063,10.2862,10.8581,11.3024,11.4086,11.3703,11.1838,10.6505,10.107,9.5711,0.0,0.0,0.0,0.0,0.0,0.0,0.0,0.0,0.0,0.0,0.0,0.0,0.0,0.0,0.0,0.0,0.0,0.0,0.0,0.0,0.0,0.0,0.0,0.0,0.0,0.0,0.0,0.0,0.0,0.0,0.0,0.0,0.0,0.0,0.0,0.0,0.0,0.0,0.0,8.166,8.2508,0.0,0.0,0.0,0.0,0.0,0.0,0.0,0.0,8.2134,0.0,0.0,0.0,0.0,0.0,0.0,0.0,0.0,0.0,0.0,0.0,0.0,0.0,0.0,0.0,0.0,0.0,0.0,0.0,0.0,0.0,0.0,0.0,0.0,0.0,0.0,0.0,0.0,0.0,0.0,0.0,0.0,0.0,0.0,0.0,0.0,0.0,0.0,0.0,0.0,0.0,0.0,0.0,0.0,0.0,0.0,0.0,0.0,0.0,0.0,0.0,0.0,0.0,0.0,0.0,9.932,10.5436,11.0269,11.3694,11.5417,11.4854,11.1907,10.7029,10.1859,0.0,0.0,0.0,0.0,0.0,0.0,0.0,0.0,0.0,0.0,0.0,0.0,0.0,0.0,0.0,0.0,0.0,0.0,0.0,0.0,0.0,0.0,0.0,0.0,0.0,0.0,0.0,0.0,0.0,0.0,0.0,0.0,0.0,0.0,0.0,0.0,0.0,0.0,0.0,0.0,8.3728,8.4661,8.737,0.0,0.0,0.0,0.0,0.0,0.0,8.4945,8.4362,0.0,0.0,0.0,0.0,0.0,0.0,0.0,0.0,0.0,0.0,0.0,0.0,0.0,0.0,0.0,0.0,0.0,0.0,0.0,0.0,0.0,0.0,0.0,0.0,0.0,0.0,0.0,0.0,0.0,0.0,0.0,0.0,0.0,0.0,0.0,0.0,0.0,0.0,0.0,0.0,0.0,0.0,0.0,0.0,0.0,0.0,0.0,0.0,0.0,0.0,0.0,0.0,0.0,0.0,0.0,10.2223,10.7444,11.1609,11.465,11.6489,11.5671,11.2098,10.7624,10.2488,0.0,0.0,0.0,0.0,0.0,0.0,0.0,0.0,0.0,0.0,0.0,0.0,0.0,0.0,0.0,0.0,0.0,0.0,0.0,0.0,0.0,0.0,0.0,0.0,0.0,0.0,0.0,0.0,0.0,0.0,0.0,0.0,0.0,0.0,0.0,0.0,0.0,0.0,0.0,0.0,0.0,8.6675,9.0085,8.794,0.0,0.0,0.0,0.0,8.6914,8.702,0.0,0.0,0.0,0.0,0.0,0.0,0.0,0.0,0.0,0.0,0.0,0.0,0.0,0.0,0.0,0.0,0.0,0.0,0.0,0.0,0.0,0.0,0.0,0.0,0.0,0.0,0.0,0.0,0.0,0.0,0.0,0.0,0.0,0.0,0.0,0.0,0.0,0.0,0.0,0.0,0.0,0.0,0.0,0.0,0.0,0.0,0.0,0.0,0.0,0.0,0.0,0.0,0.0,0.0,0.0,0.0,10.2136,10.7973,11.3228,11.7729,11.7635,11.6489,11.455,10.8968,10.3227,0.0,0.0,0.0,0.0,0.0,0.0,0.0,0.0,0.0,0.0,0.0,0.0,0.0,0.0,0.0,0.0,0.0,0.0,0.0,0.0,0.0,0.0,0.0,0.0,0.0,0.0,0.0,0.0,0.0,0.0,0.0,0.0,0.0,0.0,0.0,0.0,0.0,0.0,0.0,0.0,0.0,8.8211,9.1001,9.0284,8.9219,0.0,0.0,0.0,8.9715,8.9782,0.0,0.0,0.0,0.0,0.0,0.0,0.0,0.0,0.0,0.0,0.0,0.0,0.0,0.0,0.0,0.0,0.0,0.0,0.0,0.0,0.0,0.0,0.0,0.0,0.0,0.0,0.0,0.0,0.0,0.0,0.0,0.0,0.0,0.0,0.0,0.0,0.0,0.0,0.0,0.0,0.0,0.0,0.0,0.0,0.0,0.0,0.0,0.0,0.0,0.0,0.0,0.0,0.0,0.0,0.0,0.0,10.3529,10.9579,11.4333,11.7804,11.8505,11.7396,11.4382,10.9365,10.3827,0.0,0.0,0.0,0.0,0.0,0.0,0.0,0.0,0.0,0.0,0.0,0.0,0.0,0.0,0.0,0.0,0.0,0.0,0.0,0.0,0.0,0.0,0.0,0.0,0.0,0.0,0.0,0.0,0.0,0.0,0.0,0.0,0.0,0.0,0.0,0.0,0.0,0.0,0.0,0.0,0.0,0.0,9.1811,9.1466,0.0,0.0,0.0,9.0712,9.0157,0.0,0.0,0.0,0.0,0.0,0.0,0.0,0.0,0.0,0.0,0.0,0.0,0.0,0.0,0.0,0.0,0.0,0.0,0.0,0.0,0.0,0.0,0.0,0.0,0.0,0.0,0.0,0.0,0.0,0.0,0.0,0.0,0.0,0.0,0.0,0.0,0.0,0.0,0.0,0.0,0.0,0.0,0.0,0.0,0.0,0.0,0.0,0.0,0.0,0.0,0.0,0.0,0.0,0.0,0.0,0.0,0.0,10.4867,11.0372,11.4748,11.7905,11.9036,11.7804,11.4189,10.9464,0.0,0.0,0.0,0.0,0.0,0.0,0.0,0.0,0.0,0.0,0.0,0.0,0.0,0.0,0.0,0.0,0.0,0.0,0.0,0.0,0.0,0.0,0.0,0.0,0.0,0.0,0.0,0.0,0.0,0.0,0.0,0.0,0.0,0.0,0.0,0.0,0.0,0.0,0.0,0.0,0.0,0.0,8.9123,9.2342,9.2414,9.2053,0.0,0.0,9.1811,9.0893,9.1415,9.072,0.0,0.0,0.0,0.0,0.0,0.0,0.0,0.0,0.0,0.0,0.0,0.0,0.0,0.0,0.0,0.0,0.0,0.0,0.0,0.0,0.0,0.0,0.0,0.0,0.0,0.0,0.0,0.0,0.0,0.0,0.0,0.0,0.0,0.0,0.0,0.0,0.0,0.0,0.0,0.0,0.0,0.0,0.0,0.0,0.0,0.0,0.0,0.0,0.0,0.0,0.0,0.0,0.0,0.0,0.0,10.5503,10.9499,11.4159,11.9455,11.9062,11.7492,11.4912,10.9351,10.3543,0.0,0.0,0.0,0.0,0.0,0.0,0.0,0.0,0.0,0.0,0.0,0.0,0.0,0.0,0.0,0.0,0.0,0.0,0.0,0.0,0.0,0.0,0.0,0.0,0.0,0.0,0.0,0.0,0.0,0.0,0.0,0.0,0.0,0.0,0.0,0.0,0.0,0.0,0.0,0.0,0.0,8.9791,9.2428,9.3397,9.3588,0.0,0.0,9.3567,9.2829,9.2775,9.1653,8.7999,0.0,0.0,0.0,0.0,0.0,0.0,0.0,0.0,0.0,0.0,0.0,0.0,0.0,0.0,0.0,0.0,0.0,0.0,0.0,0.0,0.0,0.0,0.0,0.0,0.0,0.0,0.0,0.0,0.0,0.0,0.0,0.0,0.0,0.0,0.0,0.0,0.0,0.0,0.0,0.0,0.0,0.0,0.0,0.0,0.0,0.0,0.0,0.0,0.0,0.0,0.0,0.0,0.0,9.7862,10.4996,10.9682,11.4116,11.8134,11.8012,11.6446,11.3559,10.8279,10.2653,0.0,0.0,0.0,0.0,0.0,0.0,0.0,0.0,0.0,0.0,0.0,0.0,0.0,0.0,0.0,0.0,0.0,0.0,0.0,0.0,0.0,0.0,0.0,0.0,0.0,0.0,0.0,0.0,7.7958,7.7974,7.7359,0.0,0.0,0.0,0.0,0.0,0.0,0.0,0.0,0.0,0.0,9.0586,9.3246,9.3851,0.0,0.0,9.3409,9.3159,9.273,9.2302,9.0915,8.7733,8.5805,0.0,0.0,0.0,0.0,0.0,0.0,0.0,0.0,0.0,0.0,0.0,0.0,0.0,0.0,0.0,0.0,0.0,0.0,0.0,0.0,0.0,0.0,0.0,0.0,0.0,0.0,0.0,0.0,0.0,0.0,0.0,0.0,0.0,0.0,0.0,0.0,0.0,0.0,0.0,0.0,0.0,0.0,0.0,0.0,0.0,0.0,0.0,0.0,0.0,0.0,0.0,0.0,9.8142,10.4944,10.9724,11.374,11.6972,11.7274,11.5746,11.22,10.7276,10.2079,0.0,0.0,0.0,0.0,0.0,0.0,0.0,0.0,0.0,0.0,0.0,0.0,0.0,0.0,0.0,0.0,0.0,0.0,0.0,0.0,0.0,0.0,0.0,0.0,0.0,0.0,0.0,0.0,7.9233,7.9149,7.8748,0.0,0.0,0.0,0.0,0.0,0.0,0.0,0.0,0.0,0.0,9.138,9.3691,9.4028,9.3987,9.3936,9.3437,9.2872,9.2168,9.1663,9.0423,8.7915,0.0,0.0,0.0,0.0,0.0,0.0,0.0,0.0,0.0,0.0,0.0,0.0,0.0,0.0,0.0,0.0,0.0,0.0,0.0,0.0,0.0,0.0,0.0,0.0,0.0,0.0,0.0,0.0,0.0,0.0,0.0,0.0,0.0,0.0,0.0,0.0,0.0,0.0,0.0,0.0,0.0,0.0,0.0,0.0,0.0,0.0,0.0,0.0,0.0,0.0,0.0,0.0,0.0,0.0,10.5745,10.9438,11.2891,11.608,11.6977,11.5379,11.1368,10.6567,10.1961,9.7558,0.0,0.0,0.0,0.0,0.0,0.0,0.0,0.0,0.0,0.0,0.0,0.0,0.0,0.0,0.0,0.0,0.0,0.0,0.0,0.0,0.0,0.0,0.0,0.0,0.0,0.0,7.4702,7.6618,7.8637,0.0,0.0,0.0,0.0,0.0,0.0,0.0,0.0,0.0,0.0,8.926,9.2111,9.366,9.3903,9.3871,9.3723,9.3601,9.301,9.1391,9.1102,9.052,0.0,0.0,0.0,0.0,0.0,0.0,0.0,0.0,0.0,0.0,0.0,0.0,0.0,0.0,0.0,0.0,0.0,0.0,0.0,0.0,0.0,0.0,0.0,0.0,0.0,0.0,0.0,0.0,0.0,0.0,0.0,0.0,0.0,0.0,0.0,0.0,0.0,0.0,0.0,0.0,8.7535,8.6949,0.0,0.0,0.0,0.0,0.0,0.0,0.0,0.0,0.0,0.0,0.0,0.0,9.8101,10.4725,10.8092,11.1298,11.4451,11.4302,11.2705,10.9775,10.5466,10.0086,9.3701,0.0,0.0,0.0,0.0,0.0,0.0,0.0,0.0,0.0,0.0,0.0,0.0,0.0,0.0,0.0,0.0,0.0,0.0,0.0,0.0,0.0,0.0,0.0,0.0,0.0,7.8457,0.0,0.0,0.0,0.0,0.0,0.0,0.0,0.0,0.0,0.0,0.0,8.5799,8.7616,8.9707,9.1708,9.3459,9.3747,9.3769,0.0,0.0,0.0,0.0,0.0,0.0,0.0,0.0,0.0,0.0,0.0,0.0,0.0,0.0,8.4108,8.2915,8.3244,8.3724,8.3764,0.0,0.0,0.0,0.0,0.0,0.0,0.0,0.0,0.0,0.0,0.0,0.0,0.0,0.0,0.0,0.0,8.2911,0.0,0.0,0.0,0.0,0.0,0.0,0.0,0.0,8.8523,8.9181,8.9483,8.8897,8.8639,0.0,8.7876,8.6516,0.0,0.0,0.0,0.0,0.0,0.0,0.0,0.0,9.8449,10.4365,10.7691,11.0629,11.3151,11.2774,11.1219,10.847,10.3604,9.8306,9.2529,8.9776,8.7382,0.0,0.0,0.0,0.0,0.0,0.0,0.0,0.0,0.0,0.0,0.0,0.0,0.0,0.0,0.0,0.0,0.0,0.0,0.0,0.0,0.0,0.0,0.0,7.9932,0.0,0.0,0.0,0.0,0.0,0.0,0.0,0.0,0.0,8.1348,8.4056,8.6731,8.8837,9.0218,9.1617,9.3285,0.0,0.0,0.0,0.0,0.0,0.0,0.0,8.8872,8.825,8.8208,8.8081,8.7754,8.7965,8.8165,8.8125,0.0,0.0,8.5854,8.5968,8.6446,8.6483,8.6081,8.5697,8.5695,8.5651,8.58,0.0,0.0,0.0,0.0,0.0,0.0,0.0,0.0,8.6719,8.6428,0.0,0.0,0.0,0.0,0.0,0.0,0.0,0.0,0.0,0.0,9.1548,9.2448,9.1534,9.1427,9.1396,9.1278,8.9479,8.8513,8.8387,8.7658,0.0,0.0,0.0,0.0,0.0,0.0,9.9531,10.4405,10.8151,11.0843,11.244,11.244,11.0805,10.7425,10.1268,9.6786,9.4284,9.1627,8.9775,8.8916,8.5446,0.0,0.0,0.0,0.0,0.0,0.0,0.0,0.0,0.0,0.0,0.0,0.0,0.0,0.0,0.0,0.0,0.0,0.0,0.0,0.0,8.0678,0.0,0.0,0.0,0.0,0.0,0.0,0.0,0.0,0.0,0.0,8.2451,8.4646,8.7088,8.9554,0.0,0.0,0.0,0.0,9.259,9.3069,9.2339,9.1477,9.06,9.0555,9.0708,9.0963,0.0,0.0,9.1393,9.0593,8.9917,8.9909,9.0731,9.0613,8.7994,8.7575,8.7542,8.7489,8.7607,8.7467,8.7473,8.78,8.8161,8.994,0.0,0.0,0.0,0.0,8.6049,8.7124,8.8774,8.9003,8.8988,8.8672,8.8736,0.0,0.0,0.0,0.0,0.0,0.0,8.9234,9.0598,9.2033,9.2955,9.3436,9.3943,9.3923,9.3372,9.2784,9.2235,9.1678,9.1417,8.9646,8.646,0.0,0.0,0.0,0.0,10.0177,10.4588,10.7719,11.029,11.2445,11.1368,10.8656,10.4231,10.0079,9.7,9.5105,9.3192,9.1432,8.9847,8.8759,0.0,0.0,0.0,0.0,0.0,0.0,0.0,0.0,0.0,0.0,0.0,0.0,0.0,0.0,0.0,0.0,0.0,0.0,0.0,8.0621,8.1838,8.1563,0.0,0.0,0.0,0.0,0.0,0.0,0.0,0.0,0.0,8.5882,8.7372,8.8802,0.0,0.0,9.198,9.2978,9.3109,9.3206,9.3411,0.0,0.0,0.0,9.0535,9.0089,9.0175,9.0841,9.1555,9.2095,9.2126,9.2084,9.208,9.2823,9.3083,9.2389,9.1717,9.1352,9.1383,9.1784,9.2188,9.2233,9.2638,9.3148,9.5113,9.1942,8.9848,8.9225,8.9635,8.9641,9.0612,9.2134,9.2134,9.171,9.1021,9.15,9.016,8.758,8.7592,0.0,0.0,0.0,9.0969,9.2518,9.3334,9.4028,9.4681,9.518,9.5143,9.4697,9.4701,9.4441,9.3925,9.3848,9.2522,9.0072,0.0,0.0,9.291,9.7208,10.1329,10.5193,10.7973,11.0407,11.2403,11.029,10.7058,10.2824,9.9893,9.7442,9.5477,9.4177,9.2786,9.1317,9.0549,8.8709,0.0,0.0,0.0,0.0,0.0,0.0,0.0,0.0,0.0,0.0,0.0,7.9274,0.0,0.0,0.0,0.0,8.2165,8.2896,8.3142,8.332,0.0,0.0,0.0,0.0,0.0,0.0,0.0,8.267,8.5446,8.7495,8.7774,8.9448,9.0776,9.1204,9.172,9.2457,9.3574,0.0,9.4083,9.4078,9.3251,9.2532,9.2309,9.1805,9.135,9.1106,9.1592,9.2149,9.2608,9.2868,9.2988,9.307,9.3644,9.4227,9.4194,9.4034,9.3924,9.3941,9.4329,9.4664,9.466,9.5074,9.5562,9.9563,9.7772,9.419,9.3203,9.4021,9.4047,9.4633,9.556,9.5514,9.4497,9.2923,9.384,9.2255,8.8788,8.884,0.0,0.0,9.2096,9.3323,9.4334,9.511,9.5473,9.5473,9.5551,9.5551,9.5473,9.5477,9.5477,9.5358,9.5133,9.5037,9.509,9.4456,9.4344,9.5,9.9126,10.2854,10.6055,10.8783,11.0879,11.2222,10.925,10.6055,10.2782,10.0302,9.7855,9.5514,9.4548,9.3772,9.2975,9.1283,8.991,8.8853,0.0,0.0,0.0,0.0,0.0,0.0,0.0,0.0,0.0,0.0,0.0,0.0,0.0,0.0,0.0,8.5118,0.0,8.7172,8.5055,0.0,0.0,0.0,8.2954,8.4793,8.5101,8.5464,8.6105,0.0,0.0,0.0,0.0,9.2817,9.3882,9.334,9.3373,9.4735,9.5062,9.5133,9.4978,9.4884,9.456,9.3837,9.3704,9.3485,9.2929,9.2988,9.2942,9.2967,9.2988,9.2988,9.3153,9.3731,9.4359,9.4379,9.5076,9.5599,9.56,9.5551,9.5481,9.5518,9.5717,9.6325,10.1198,9.966,9.8729,9.7802,9.6932,9.6894,9.7067,9.7223,9.6587,9.6045,9.5616,9.5284,9.4222,9.2784,9.2819,9.2943,9.3248,9.4262,9.4876,9.5147,9.596,9.6331,9.6327,9.7,9.6967,9.6327,9.6331,9.5997,9.5411,9.5339,9.5544,9.6036,9.705,9.7542,9.7538,10.0979,10.4172,10.6965,10.951,11.0722,11.0617,10.8651,10.6018,10.2786,9.9745,9.7297,9.544,9.4028,9.3178,9.2996,9.2564,9.1562,8.984,8.6149,0.0,0.0,0.0,0.0,0.0,0.0,0.0,0.0,0.0,7.9263,7.8303,0.0,8.0905,0.0,8.5889,8.824,8.8385,8.7826,0.0,0.0,8.4487,8.4514,8.561,8.7012,8.7874,8.7884,8.9925,9.1167,9.0756,9.235,9.3898,9.4903,9.511,9.5307,9.568,9.5922,9.6097,9.5996,9.5609,9.5178,9.4965,9.4479,9.3861,9.3099,9.2988,9.2988,9.2988,9.2988,9.319,9.3809,9.4549,9.5276,9.5827,9.6702,9.7245,9.7252,9.6773,9.6299,9.6348,9.7279,9.8326,10.3604,10.2494,10.2489,10.1751,10.0534,9.9452,9.8969,9.8932,9.8445,9.804,9.7632,9.6443,9.5477,9.4734,9.4734,9.4734,9.4808,9.5964,9.6517,9.6591,9.7702,9.8222,9.8259,9.8375,9.8189,9.7706,9.7376,9.7112,9.7074,9.7037,9.7395,9.8078,9.8991,9.9895,10.0799,10.3183,10.5678,10.8259,11.0432,11.111,11.0106,10.8136,10.5805,10.318,10.0286,9.7783,9.5648,9.4385,9.3215,9.2109,9.2034,9.1205,8.9389,8.5912,8.3336,0.0,0.0,0.0,0.0,0.0,0.0,0.0,0.0,0.0,0.0,0.0,8.2767,0.0,8.6846,0.0,8.808,8.8075,8.782,8.7226,8.7117,8.7633,8.8955,9.0064,9.0635,9.0518,9.1823,9.26,9.2211,9.3225,9.436,9.5276,9.5901,9.641,9.6795,9.6965,9.7057,9.7035,9.6744,9.6207,9.553,9.4712,9.3921,9.3174,9.2988,9.2988,9.2988,9.2988,9.3153,9.3636,9.4594,9.5539,9.6004,9.7075,9.7892,9.7859,9.752,9.7232,9.7199,9.8217,9.9166,10.6097,10.535,10.5354,10.4946,10.4128,10.1862,10.0822,10.0595,10.0492,10.0009,9.9155,9.7627,9.6517,9.5881,9.5881,9.5886,9.596,9.7483,9.8189,9.8305,9.9633,10.0307,10.0269,9.9601,9.9266,9.9229,9.856,9.8565,9.9262,9.9262,9.9649,10.0402,10.0638,10.176,10.3806,10.5332,10.735,10.9791,11.1466,11.1605,11.0214,10.7866,10.5725,10.3759,10.1232,9.8518,9.5792,9.4865,9.3264,9.0824,9.0748,9.0183,8.8791,8.545,8.3308,0.0,7.9495,0.0,0.0,0.0,0.0,0.0,0.0,0.0,0.0,8.4567,8.5392,8.6302,8.7987,8.8724,8.7924,8.7896,8.8632,9.0228,9.0463,9.1141,9.2744,9.2988,9.2988,9.2988,9.2988,9.2988,9.2984,9.3698,9.4478,9.5284,9.5907,9.661,9.7499,9.7752,9.782,9.7896,9.7896,9.721,9.591,9.492,9.4107,9.3363,9.3066,9.2988,9.2988,9.2988,9.307,9.3417,9.4539,9.5472,9.5647,9.6951,9.7855,9.7896,9.7855,9.7822,9.7905,9.8639,9.9439,10.6873,10.6172,10.6167,10.6093,10.5833,10.476,10.3497,10.2192,10.1565,10.0822,10.0005,9.9043,9.8523,9.8412,9.8375,9.8412,9.8449,9.9415,9.9861,9.9856,10.0153,10.0307,10.0307,10.0158,10.0079,10.0042,9.9931,9.9931,10.0084,10.0084,10.0385,10.105,10.2386,10.3484,0.0,0.0,0.0,0.0,11.2052,11.1809,11.0831,10.893,10.6787,10.4456,10.1323,0.0,9.5007,9.3993,9.2393,8.9934,9.0442,0.0,0.0,0.0,0.0,0.0,0.0,0.0,0.0,0.0,0.0,0.0,8.4885,8.513,8.5495,8.6282,8.7434,8.9093,8.9659,9.0431,9.1735,9.1913,9.2025,9.2362,9.244,9.2616,9.2988,9.2988,9.2988,9.2988,9.2988,9.2988,9.3025,9.3698,9.4487,9.521,9.5546,9.5974,9.6715,9.7411,9.7855,9.7896,9.7855,9.752,9.6513,9.5658,9.485,9.414,9.3363,9.3025,9.2988,9.2988,9.3524,9.4545,9.5198,9.5859,9.709,9.7689,9.7896,9.7896,9.7896,9.7896,9.7933,9.9082,10.0109,10.8953,0.0,10.8247,10.7769,0.0,10.6576,10.5201,10.3274,10.2452,10.1639,10.0864,10.0451,10.0084,9.9712,9.9708,9.9671,9.9712,10.0525,10.0896,10.0934,10.1305,10.1486,10.1454,10.1082,10.0896,10.0896,10.0492,10.0483,10.0864,10.0892,10.1459,10.2599,10.3438,10.4365,10.5472,10.7929,10.9951,11.1505,11.1656,11.1332,11.0488,10.8095,10.5936,10.4097,0.0,0.0,0.0,0.0,0.0,0.0,0.0,0.0,0.0,0.0,0.0,8.7355,8.5731,8.5355,8.6609,8.6781,8.7367,8.8695,8.9204,8.9054,8.8088,8.8898,9.0001,9.1384,9.1156,9.1459,9.2818,9.2988,9.2988,9.2988,9.2988,9.2988,9.2988,9.2988,9.2988,9.2988,9.2988,9.2988,9.2988,9.333,9.3929,9.4656,9.4787,9.5094,9.5857,9.6359,9.6785,9.7195,9.7647,9.7595,9.674,9.5919,9.5147,9.4325,9.3512,9.3062,9.2988,9.2988,9.3401,9.4537,9.5115,9.5831,9.6924,9.7606,9.7896,9.7896,9.7896,9.7896,9.7938,9.8879,9.9842,11.1103,11.0513,11.0365,10.9436,10.8019,10.7871,10.6353,10.3943,0.0,0.0,0.0,10.1709,10.1342,10.0715,10.0711,10.0715,10.0748,10.1417,10.1714,10.1751,10.2378,10.268,10.2675,10.2006,10.1709,10.1677,10.1041,10.1082,10.1714,10.1867,10.2642,10.391,10.4282,10.5243,10.6873,10.9144,11.0544,11.1016,11.1076,11.0775,10.9983,10.7223,10.5181,10.402,10.0911,9.8257,9.6057,9.4417,9.2699,9.0934,9.0786,9.0243,8.8963,8.8222,8.768,8.7252,8.6555,8.7156,8.9354,8.954,9.0535,9.2843,9.2988,9.2321,9.0733,9.1404,9.2212,9.2959,9.2356,9.2212,9.2918,9.2988,9.2988,9.2988,9.2988,9.2988,9.2988,9.2988,9.2988,9.2988,9.2988,9.2988,9.2988,9.3025,9.3314,9.3962,9.4102,9.4176,9.4851,9.5262,9.5812,9.6595,9.7195,9.7387,9.6884,9.5997,9.518,9.4581,9.3665,9.3029,9.2988,9.2988,9.3359,9.4384,9.4968,9.576,9.6665,9.7444,9.7892,9.7896,9.7896,9.7896,9.7975,9.8427,9.9162,11.2259,11.2105,11.1405,11.0629,10.9701,10.899,10.6915,10.398,10.3084,10.2633,10.2526,10.2526,10.2494,10.2378,10.2345,10.2378,10.2382,10.2494,10.2526,0.0,10.2638,10.268,10.268,10.2559,10.2526,10.2522,10.2415,10.2415,10.2601,10.3269,10.3794,10.417,10.5391,10.6915,10.8549,11.0253,11.1166,11.1251,11.11,11.0634,10.9834,10.8567,10.7086,10.5466,10.2905,10.0065,9.6933,9.5283,9.3286,9.0941,9.0811,9.0844,9.0889,9.0738,9.1082,9.1923,9.1868,9.2011,9.2333,9.2391,9.2578,9.293,9.2988,9.2855,9.2643,9.2719,9.2881,9.2992,9.2843,9.2843,9.2992,9.2988,9.2988,9.2988,9.2988,9.2988,9.2988,9.2988,9.2988,9.2988,9.2988,9.2988,9.2988,9.2988,9.3277,9.3851,9.3648,9.3289,9.371,9.4553,9.5627,9.6374,9.6702,9.7038,9.7322,9.6373,9.5518,9.525,9.3999,9.307,9.2988,9.307,9.3603,9.4954,9.5332,9.6033,9.732,9.7809,9.7896,9.7896,9.7896,9.7896,9.7896,9.8099,9.8646,11.2928,11.2477,11.2105,11.1474,11.0625,10.8916,10.7096,10.528,10.4426,10.3529,10.2712,10.268,10.268,10.268,10.268,10.268,10.2712,10.3195,10.3381,10.3423,10.3868,10.4054,10.4049,10.4054,10.4054,10.4049,10.4054,10.4054,10.4087,10.4463,10.4867,10.5391,10.6952,10.8581,11.0142,11.0922,11.1293,11.1298,11.1215,11.0764,10.9957,10.8603,10.7118,10.5514,10.303,10.0617,9.8224,9.6552,9.4745,9.2735,9.2638,9.2518,9.2244,9.2221,9.2468,9.2938,9.2988,9.2988,9.2988,9.2988,9.2988,9.2988,9.2988,9.2988,9.2988,9.2988,9.2988,9.2988,9.2988,9.2988,9.2988,9.2988,9.2988,9.2988,9.2988,9.2988,9.2988,9.2988,9.2988,9.2988,9.2988,9.2988,9.2988,9.2988,9.307,9.3479,9.3153,9.3153,9.3562,9.4256,9.5074,9.5831,9.6684,9.737,9.7776,9.6889,9.596,9.5473,9.4441,9.3549,9.319,9.3277,9.4099,9.5144,9.5704,9.6488,9.773,9.7896,9.7896,9.7896,9.7896,9.7896,9.7933,9.8224,9.898,11.3559,11.2811,11.2593,11.2036,11.1103,10.9064,10.762,10.665,10.5981,10.4909,10.3641,10.3381,10.3274,10.3269,10.3269,10.3269,10.3344,10.3943,10.4277,10.4351,10.4909,10.5201,10.5201,10.5201,10.5201,10.5201,10.5201,10.5201,10.5243,10.554,10.6246,10.7281,10.8735,11.0067,11.1256,11.1479,11.1548,11.1548,11.1548,11.0996,10.9849,10.8544,10.71,10.5461,10.3469,10.1565,9.9968,9.8147,9.6513,9.511,9.4515,9.3921,9.3326,9.3108,9.2988,9.2988,9.2988,9.2988,9.2988,9.2988,9.2988,9.2988,9.2988,9.2988,9.2988,9.2988,9.2988,9.2988,9.2988,9.2988,9.2988,9.2988,9.2988,9.2988,9.2988,9.2988,9.2988,9.2988,9.2988,9.2988,9.2988,9.2988,9.2988,9.2988,9.3029,9.3029,9.3153,9.3562,9.4094,9.4421,9.5032,9.5658,9.6789,9.7573,9.7776,9.6922,9.6104,9.544,9.452,9.3665,9.3235,9.3644,9.445,9.5247,9.6067,9.6848,9.7647,9.7896,9.7896,9.7896,9.7896,9.7896,9.7933,9.851,9.9301,11.4376,11.3639,11.2816,11.2031,11.1214,11.0253,10.8953,10.7616,10.7393,10.6905,10.6055,10.5275,10.4983,10.4983,10.4946,10.4904,10.4904,10.5057,10.5094,10.5094,10.5164,10.5201,10.5275,10.5275,10.5201,10.5317,10.5354,10.5498,10.5573,10.6761,10.8178,10.9696,11.0662,11.1145,11.1405,11.2031,11.237,11.2365,11.2365,11.1293,10.9144,10.8846,10.7987,10.6315,10.5354,10.4054,10.2304,10.0121,9.8486,9.7487,9.5403,9.4181,9.4028,9.3397,9.2988,9.2988,9.2988,9.2988,9.2988,9.2988,9.2988,9.2988,9.2988,9.2988,9.2988,9.2988,9.2988,9.2988,9.2988,9.2988,9.2988,9.2988,9.2988,9.2988,9.2988,9.2988,9.2988,9.2988,9.2988,9.2988,9.2988,9.2988,9.2988,9.2988,9.3029,9.3112,9.3603,9.4115,9.4512,9.5403,9.623,9.6418,9.6748,9.7117,9.7544,9.6521,9.5737,9.5365,9.4148,9.3372,9.331,9.3793,9.447,9.5492,9.6187,9.6997,9.7569,9.7896,9.7896,9.7896,9.7896,9.7896,9.7975,9.8468,9.9242,11.4116,11.3708,11.2853,11.2036,11.1293,11.0959,11.0142,10.9139,10.9064,10.8879,10.8581,10.821,10.7281,10.5944,10.5907,10.5647,10.5243,10.5684,10.5912,10.5949,10.639,10.6608,10.6655,10.717,10.7398,10.7435,10.7843,10.8103,10.8215,10.8767,10.9654,11.0699,11.114,11.1776,11.2668,11.2588,11.2737,11.3225,11.2774,11.1776,11.0439,10.9844,10.9064,10.788,10.6617,10.5169,10.3534,10.2006,10.0228,9.8082,9.693,9.57,9.4292,9.3879,9.3475,9.3062,9.2988,9.2988,9.2988,9.2988,9.2988,9.2988,9.2988,9.2988,9.2988,9.2988,9.2988,9.2988,9.2988,9.2988,9.2988,9.2988,9.2988,9.2988,9.2988,9.2988,9.2988,9.2988,9.2988,9.2988,9.2988,9.2988,9.2988,9.2988,9.3194,9.3566,9.4053,9.4483,9.5398,9.6213,9.6761,9.7237,9.7361,9.7486,9.7743,9.693,9.6034,9.5357,9.4473,9.3755,9.3793,9.4384,9.5173,9.5976,9.6752,9.7361,9.7809,9.7896,9.7896,9.7896,9.7896,9.7896,9.7896,9.8141,9.8713,11.4302,11.4005,11.3188,11.237,11.1628,11.1623,11.1177,11.0476,11.0439,11.0444,11.0402,11.0439,10.9473,10.788,10.7504,10.7058,10.6655,10.717,10.743,10.7472,10.8024,10.8284,10.8359,10.8883,10.9218,10.9329,10.977,11.029,11.0741,11.1038,11.1516,11.2222,11.2333,11.2933,11.3936,11.3485,11.3373,11.3708,11.3146,11.244,11.159,11.0625,10.9738,10.8841,10.7504,10.6055,10.4723,10.3608,10.1899,9.9378,9.8412,9.7116,9.5365,9.4812,9.4181,9.3401,9.3103,9.2988,9.2988,9.2988,9.2988,9.2988,9.2988,9.2988,9.3025,9.3215,9.3326,9.3359,9.3516,9.3586,9.3029,9.3215,9.3252,9.3062,9.2988,9.2988,9.2988,9.2988,9.2988,9.2988,9.2988,9.2988,9.2988,9.3029,9.3277,9.3975,9.4379,9.4965,9.6278,9.6794,9.7237,9.7772,9.7892,9.7892,9.7822,9.6852,9.6104,9.5514,9.4667,9.4148,9.4338,9.5024,9.5743,9.6397,9.7328,9.7813,9.7892,9.7896,9.7896,9.7896,9.7896,9.7896,9.7896,9.7933,9.8385,11.5639,11.4864,11.4079,11.3262,11.2477,11.2477,11.2031,11.1405,11.1368,11.1293,11.1368,11.1368,11.1219,11.0996,11.0295,10.9919,10.9807,10.9812,10.9812,10.977,10.9882,10.9956,10.9993,11.003,11.0067,11.0072,11.0365,11.107,11.2408,11.3151,11.4047,11.4711,11.4604,11.4785,11.4934,11.4785,11.4525,11.4005,11.3745,11.3299,11.2365,11.0917,10.9738,10.8953,10.8024,10.7058,10.6172,10.4765,10.3423,10.2457,9.9563,9.7855,9.7525,9.6146,9.4924,9.4144,9.3438,9.3029,9.3025,9.3066,9.3099,9.3062,9.3215,9.3062,9.3289,9.3772,9.414,9.4144,9.4771,9.4664,9.3475,9.3809,9.3809,9.3186,9.3029,9.307,9.2988,9.2988,9.2988,9.2988,9.2988,9.2988,9.2988,9.2988,9.3479,9.4198,9.4856,9.571,9.6562,9.7357,9.7767,9.7855,9.7896,9.7896,9.7747,9.6852,9.5844,9.5415,9.5077,9.4384,9.4788,9.5308,9.6086,9.6761,9.7448,9.785,9.7892,9.7896,9.7896,9.7896,9.7896,9.7896,9.7896,9.7896,9.8348,11.5751,11.5008,11.4674,11.4376,11.4116,11.4116,11.3931,11.3676,11.3671,11.3671,11.3671,11.3671,11.3671,11.3628,11.3373,11.2375,11.0996,11.1363,11.1368,11.0927,11.0885,11.0592,11.0179,11.0587,11.0885,11.0996,11.1962,11.3002,11.4005,11.4451,11.4711,11.4939,11.4976,11.5231,11.5602,11.5231,11.5082,11.5226,11.4376,11.3633,11.3146,11.1219,10.9924,10.9622,10.8321,10.7202,10.6427,10.5313,10.4124,10.2754,10.0567,9.8969,9.7892,9.6294,9.5027,9.4292,9.3917,9.3772,9.3772,9.3776,9.3991,9.4478,9.4548,9.4474,9.4585,9.4808,9.4957,9.511,9.57,9.5584,9.4915,9.4804,9.4643,9.3942,9.3768,9.3524,9.3149,9.2988,9.2988,9.2988,9.2988,9.2988,9.3149,9.3438,9.4057,9.4847,9.5654,9.6451,9.7195,9.7767,9.7896,9.7896,9.7896,9.7896,9.7896,9.7,9.615,9.5965,9.5669,9.5557,9.5768,9.6026,9.665,9.7208,9.7772,9.7855,9.7896,9.7896,9.7896,9.7896,9.7896,9.7896,9.7896,9.8016,9.8473,11.6117,11.5449,11.5379,11.5231,11.5008,11.4976,11.4976,11.4976,11.4976,11.4976,11.4976,11.4976,11.4976,11.5045,11.5273,11.4562,11.3002,11.3188,11.3002,11.2556,11.2482,11.2185,11.185,11.2222,11.2482,11.2705,11.3894,11.4854,11.5379,11.5677,11.5751,11.5788,11.5788,11.6011,11.642,11.6048,11.5974,11.5937,11.4859,11.4084,11.3596,11.1632,11.0365,10.9882,10.847,10.7356,10.6798,10.5758,10.4574,10.3121,10.1565,9.9972,9.8375,9.6699,9.5547,9.5031,9.4734,9.4585,9.459,9.4585,9.4808,9.5328,9.5398,9.5398,9.544,9.5658,9.5774,9.596,9.6521,9.674,9.6364,9.622,9.5758,9.4809,9.4355,9.4012,9.3479,9.3153,9.3029,9.3066,9.3289,9.3363,9.3487,9.4132,9.4892,9.5665,9.6303,9.6922,9.7689,9.7896,9.7896,9.7896,9.7896,9.7896,9.7896,9.7334,9.6666,9.6436,9.6334,9.6339,9.6479,9.6731,9.7088,9.7652,9.7896,9.7896,9.7896,9.7896,9.7896,9.7896,9.7896,9.7896,9.8016,9.8182,9.8829,11.6897,11.6229,11.6192,11.5825,11.5268,11.5236,11.5087,11.5194,11.5157,11.5268,11.5347,11.5157,11.5268,11.5268,11.5931,11.6117,11.5783,11.5268,11.4891,11.4785,11.4822,11.4753,11.4594,11.4562,11.4674,11.4785,11.5714,11.616,11.6234,11.6823,11.7157,11.7306,11.7194,11.7157,11.7343,11.7194,11.694,11.6234,11.5379,11.4562,11.3708,11.211,11.0847,11.0035,10.847,10.7541,10.743,10.5949,10.476,10.3943,10.2266,10.0711,9.8969,9.7446,9.6591,9.6331,9.5807,9.544,9.5403,9.5436,9.544,9.57,9.5547,9.57,9.5848,9.6257,9.6629,9.6736,9.7297,9.7785,9.771,9.7673,9.7042,9.5671,9.4896,9.4483,9.4111,9.3512,9.3025,9.3215,9.3735,9.4181,9.4375,9.4891,9.5681,9.6276,9.6666,9.7029,9.773,9.7896,9.7896,9.7896,9.7896,9.7896,9.7896,9.7822,9.7339,9.6902,9.68,9.6805,9.6974,9.719,9.7461,9.7896,9.7896,9.7896,9.7896,9.7896,9.7896,9.7896,9.7896,9.7896,9.8016,9.834,9.9301,11.7269,11.7046,11.7009,11.6897,11.6674,11.6637,11.6642,11.6637,11.6674,11.6637,11.6642,11.6637,11.6637,11.668,11.694,11.7009,11.7009,11.6749,11.634,11.5899,11.582,11.5528,11.5124,11.5013,11.5305,11.5783,11.6048,11.6526,11.6972,11.7264,11.7412,11.7412,11.7412,11.7412,11.7412,11.7417,11.7232,11.6934,11.5671,11.4859,11.4414,11.2445,11.0917,11.0035,10.8507,10.7356,10.6761,10.5201,10.4574,10.4681,10.216,9.9935,9.8528,9.7785,9.7223,9.6657,9.6401,9.622,9.622,9.6253,9.6476,9.6926,9.7112,9.7116,9.7116,9.7297,9.7483,9.7483,9.7743,9.7896,9.7896,9.7896,9.7391,9.637,9.6007,9.5539,9.5015,9.4751,9.4404,9.4032,9.4552,9.4961,9.5184,9.5729,9.6321,9.6652,9.7092,9.761,9.7813,9.7896,9.7896,9.7896,9.7896,9.7896,9.7896,9.7896,9.7636,9.7376,9.7295,9.7213,9.7382,9.7522,9.7793,9.7896,9.7896,9.7896,9.7896,9.7896,9.7896,9.7896,9.7896,9.7933,9.7975,9.8659,9.9666,11.7412,11.7412,11.7412,11.7412,11.7412,11.7412,11.7412,11.7412,11.7412,11.7412,11.738,11.738,11.7412,11.7412,11.7412,11.7412,11.7412,11.7412,11.712,11.6712,11.6637,11.6345,11.5931,11.5894,11.6117,11.6563,11.6637,11.6897,11.738,11.7412,11.7412,11.7412,11.7412,11.7412,11.7412,11.7412,11.7412,11.7194,11.5825,11.4976,11.4562,11.2848,11.1363,11.0439,10.8953,10.7732,10.6798,10.502,10.4244,10.4166,10.1862,9.9745,9.8453,9.8082,9.7636,9.7223,9.7079,9.7074,9.707,9.7074,9.7297,9.7785,9.7896,9.7896,9.7896,9.7896,9.7896,9.7896,9.7896,9.7896,9.7896,9.7896,9.7647,9.7158,9.6711,9.6261,9.5586,9.541,9.5217,9.492,9.5365,9.5737,9.5997,9.6526,9.703,9.7205,9.755,9.7896,9.7896,9.7896,9.7896,9.7896,9.7896,9.7896,9.7896,9.7896,9.7896,9.7822,9.7789,9.7728,9.776,9.776,9.7896,9.7896,9.7896,9.7896,9.7896,9.7896,9.7896,9.7896,9.7933,9.8119,9.8359,9.9115,10.0143,11.7412,11.7412,11.7412,11.7412,11.7412,11.7412,11.7412,11.7412,11.7412,11.7412,11.7412,11.7412,11.7412,11.7412,11.7412,11.7412,11.7412,11.7412,11.738,11.7306,11.7306,11.7194,11.7115,11.712,11.7152,11.7269,11.7306,11.738,11.7412,11.7412,11.7412,11.7412,11.7412,11.7412,11.7412,11.7412,11.7412,11.7194,11.5899,11.5157,11.4934,11.3448,11.211,11.1256,10.977,10.8512,10.7318,10.5391,10.4096,10.3687,10.1677,10.0079,9.9192,9.8375,9.7855,9.7785,9.7855,9.7822,9.7859,9.7743,9.7817,9.7896,9.7896,9.7896,9.7896,9.7896,9.7896,9.7896,9.7896,9.7896,9.7896,9.7896,9.7855,9.7809,9.7237,9.6471,9.5651,9.5573,9.5687,9.5663,9.6141,9.6661,9.6699,9.7372,9.7673,9.7826,9.7859,9.7896,9.7896,9.7896,9.7896,9.7896,9.7896,9.7896,9.7896,9.7896,9.7896,9.7896,9.7896,9.7896,9.7896,9.7896,9.7896,9.7896,9.7896,9.7896,9.7896,9.7896,9.7896,9.7896,9.8082,9.8379,9.898,9.9728,10.0984,11.7412,11.7412,11.7412,11.7412,11.7412,11.7412,11.7412,11.7412,11.7412,11.7412,11.7412,11.7412,11.7412,11.7412,11.7412,11.7412,11.7412,11.7412,11.7412,11.7412,11.7412,11.7412,11.7412,11.7412,11.7412,11.7412,11.7412,11.7412,11.7412,11.7412,11.7417,11.7412,11.7454,11.7454,11.7412,11.7454,11.7412,11.7306,11.6457,11.5523,11.4897,11.4005,11.2742,11.1325,11.0327,10.9064,10.7653,10.5874,10.424,10.3051,10.1937,10.0822,10.0005,9.8783,9.8045,9.804,9.7929,9.7896,9.7896,9.7896,9.7896,9.7896,9.7896,9.7896,9.7896,9.7896,9.7896,9.7896,9.7896,9.7896,9.7896,9.7896,9.7896,9.7892,9.7606,9.7158,9.6591,9.6824,9.7042,9.6517,9.7037,9.7372,9.7553,9.7669,9.7896,9.7896,9.7896,9.7896,9.7896,9.7896,9.7896,9.7896,9.7896,9.7896,9.7896,9.7896,9.7896,9.7896,9.7896,9.7896,9.7896,9.7896,9.7896,9.7896,9.7896,9.7896,9.7896,9.7896,9.7896,9.8077,9.8523,9.9011,9.9649,10.0417,10.2002,11.7895,11.7863,11.7529,11.7412,11.7412,11.7412,11.7412,11.7412,11.7412,11.7412,11.7412,11.7412,11.7412,11.7412,11.7412,11.7412,11.7412,11.7412,11.7412,11.7412,11.7412,11.7412,11.7412,11.7412,11.7412,11.7412,11.7417,11.7412,11.7412,11.7412,11.7566,11.7863,11.79,11.7895,11.7937,11.79,11.7714,11.7343,11.66,11.5825,11.5008,11.4196,11.3156,11.1888,11.0996,10.9733,10.7764,10.6357,10.4946,10.3571,10.2754,10.2155,10.1268,9.9786,9.8932,9.8853,9.83,9.7896,9.7896,9.7896,9.7896,9.7896,9.7896,9.7896,9.7896,9.7896,9.7896,9.7896,9.7896,9.7896,9.7896,9.7896,9.7896,9.7896,9.7896,9.7689,9.7195,9.7569,9.7632,9.7446,9.7557,9.7896,9.7896,9.7896,9.7896,9.7896,9.7896,9.7896,9.7896,9.7896,9.7896,9.7896,9.7896,9.7896,9.7896,9.7896,9.7896,9.7896,9.7896,9.7896,9.7896,9.7896,9.7896,9.7896,9.7896,9.7929,9.7994,9.818,9.8482,9.8775,9.9225,9.9791,10.0495,10.1393,10.2975,11.8686,11.8532,11.7821,11.7454,11.7417,11.7492,11.7603,11.7566,11.7757,11.7794,11.7794,11.7603,11.764,11.7524,11.7486,11.7412,11.7412,11.7412,11.7412,11.7412,11.7412,11.7412,11.7412,11.7412,11.7412,11.7454,11.7454,11.7603,11.7714,11.7714,11.8091,11.8574,11.8755,11.8717,11.8686,11.8606,11.8192,11.7598,11.686,11.6085,11.531,11.4493,11.3596,11.2705,11.1628,11.0216,10.8359,10.6905,10.5684,10.4356,10.4091,10.3497,10.2642,10.1305,10.0525,10.0195,9.9266,9.856,9.8268,9.8379,9.8268,9.8338,9.8305,9.8077,9.8189,9.8156,9.8082,9.7896,9.7896,9.7896,9.7896,9.7896,9.7896,9.7896,9.7896,9.7896,9.7896,9.7896,9.7896,9.7896,9.7896,9.7896,9.7896,9.7896,9.7896,9.7896,9.7896,9.7896,9.7896,9.7896,9.7896,9.7896,9.7896,9.7896,9.7896,9.7896,9.7896,9.7896,9.7896,9.7896,9.7896,9.7896,9.7896,9.7938,9.8141,9.8272,9.8265,9.853,9.903,9.9443,9.9931,10.0632,10.1463,10.2555,10.3961,11.9216,11.8564,11.8415,11.7974,11.7566,11.8044,11.8341,11.8378,11.903,11.9227,11.9184,11.8648,11.8383,11.8309,11.7789,11.7412,11.7492,11.7486,11.7412,11.7412,11.7412,11.7412,11.7417,11.7454,11.7454,11.7566,11.8086,11.8309,11.842,11.8919,11.945,11.9561,11.9625,11.963,11.9556,11.9057,11.8564,11.8229,11.7566,11.6712,11.5899,11.5157,11.4334,11.3485,11.2185,11.0843,10.9441,10.7504,10.6278,10.5689,10.476,10.4054,10.3645,10.2754,10.1974,10.1417,10.1008,10.0414,9.9931,9.9749,9.9749,9.9708,9.9601,9.9526,9.8895,9.8788,9.849,9.8082,9.7896,9.7896,9.7896,9.7896,9.7896,9.7896,9.7896,9.7896,9.7896,9.7896,9.7896,9.7896,9.7933,9.7933,9.7933,9.8082,9.8045,9.7933,9.797,9.7933,9.7975,9.8016,9.7975,9.8016,9.7896,9.7896,9.7896,9.7938,9.8021,9.8141,9.8182,9.8348,9.8344,9.8261,9.8385,9.8431,9.851,9.8619,9.8846,9.9443,10.006,10.0348,10.0674,10.1486,10.241,10.361,10.459,11.9964,11.9174,11.8792,11.8123,11.7603,11.8235,11.8601,11.8755,11.9519,11.9901,11.9821,11.937,11.9216,11.9142,11.8383,11.7974,11.7974,11.7974,11.7752,11.7603,11.7714,11.7752,11.7529,11.7789,11.7974,11.8044,11.8346,11.876,11.9253,11.9704,12.0012,12.0458,12.0453,12.0453,12.0458,11.9959,11.9354,11.8643,11.8197,11.7417,11.6303,11.5825,11.5151,11.4376,11.3151,11.2073,11.1145,10.9282,10.769,10.6538,10.5577,10.5094,10.4871,10.4017,10.3311,10.3232,10.2378,10.1969,10.1491,10.1082,10.0822,10.0896,10.0562,10.0116,9.9633,9.9378,9.8932,9.849,9.8156,9.7896,9.7896,9.7896,9.7933,9.7896,9.7933,9.7933,9.7933,9.7896,9.7896,9.8008,9.8263,9.8449,9.8523,9.8598,9.8956,9.9168,9.9196,9.9122,9.8589,9.8551,9.8224,9.8141,9.7975,9.7896,9.7896,9.8016,9.8182,9.8427,9.8672,9.9004,9.929,9.9128,9.9004,9.9056,9.9129,9.948,9.9766,10.0409,10.0882,10.1096,10.1528,10.2304,10.3213,10.4244,10.5145,12.0755,11.9826,11.9099,11.8272,11.764,11.8425,11.8829,11.8946,11.9853,12.0458,12.0235,12.0161,12.0087,11.9895,11.9174,11.8829,11.8792,11.8755,11.8463,11.7863,11.8235,11.816,11.7937,11.8192,11.8755,11.8908,11.9131,11.9513,11.997,12.0278,12.083,12.1201,12.1276,12.1276,12.1276,12.1047,12.0405,11.9354,11.8946,11.8197,11.6934,11.6494,11.5931,11.4897,11.4302,11.3443,11.2445,11.0922,10.9176,10.6984,10.6432,10.6246,10.587,10.5131,10.4319,10.4909,10.3678,10.3121,10.2824,10.2452,10.2234,10.2011,10.1565,10.1124,10.0901,10.0562,10.0116,9.9452,9.9043,9.8602,9.8453,9.8779,9.8766,9.8818,9.8764,9.8574,9.8475,9.8429,9.8635,9.823,9.8598,9.8895,9.9303,9.9605,10.0028,10.0336,10.0323,10.0153,9.9579,9.9236,9.8945,9.8873,9.886,9.8866,9.8858,9.8792,9.8888,9.9015,9.9306,9.9619,10.01,10.0154,9.9994,9.9715,9.9791,10.0258,10.0713,10.1218,10.1575,10.1812,10.242,10.3274,10.4096,10.4885,10.5745,12.1238,11.9901,11.9752,11.8807,11.7757,11.8993,11.9635,11.9933,12.1196,12.1865,12.1753,12.1201,12.0899,12.0676,12.0044,11.971,11.9598,11.9556,11.9179,11.8457,11.8643,11.8606,11.842,11.8755,11.9397,12.041,12.067,12.0824,12.101,12.153,12.1759,12.205,12.2125,12.2088,12.2019,12.1493,12.1159,12.0479,11.9964,11.9105,11.824,11.7534,11.6712,11.5528,11.5114,11.4488,11.3485,11.2036,11.029,10.8544,10.6506,10.5652,10.5424,10.509,10.476,10.45,10.4644,10.4421,10.4017,10.4277,10.4463,10.4537,10.4166,10.3794,10.3427,10.3014,10.2048,10.1119,10.0451,10.0153,10.0827,10.0645,10.1124,10.1518,10.1411,10.1207,10.0745,10.0438,10.0005,9.9303,9.9303,9.9452,10.0005,10.0451,10.0755,10.0939,10.0895,10.0727,10.0296,10.0091,9.9968,9.9971,10.001,10.0008,10.0009,9.9907,9.9929,9.9966,10.0152,10.0214,10.0665,10.1019,10.1001,10.0966,10.1041,10.1437,10.1832,10.2244,10.2676,10.3195,10.3757,10.4277,10.5183,10.6056,10.66,12.1382,11.9938,11.9901,11.9184,11.8388,11.9333,12.0161,12.0676,12.1753,12.231,12.2199,12.1907,12.1721,12.1493,12.0867,12.0347,12.0087,12.0378,11.9773,11.8977,11.9391,11.9317,11.8977,11.9397,12.0262,12.1159,12.1827,12.205,12.179,12.205,12.2576,12.2868,12.2942,12.3128,12.3314,12.2831,12.2162,12.1716,12.0936,12.0118,11.9365,11.8813,11.7948,11.712,11.6377,11.5825,11.4897,11.3485,11.1628,10.9659,10.7992,10.658,10.5652,10.5164,10.5015,10.4834,10.5317,10.5684,10.5317,10.5652,10.5721,10.5721,10.5503,10.5057,10.4616,10.4096,10.3427,10.2457,10.1937,10.1677,10.2011,10.2161,10.2147,10.2024,10.2143,10.1842,10.122,10.0996,10.0697,10.0376,10.0562,10.0711,10.0855,10.1226,10.1491,10.1528,10.1486,10.127,10.0957,10.0921,10.0863,10.0653,10.0604,10.0645,10.073,10.0868,10.0989,10.1064,10.1262,10.136,10.165,10.2253,10.2522,10.26,10.2717,10.301,10.3414,10.4017,10.4296,10.4532,10.4834,10.5327,10.6348,10.719,10.7738,12.1456,12.0161,12.0161,11.9667,11.9099,11.9779,12.0495,12.1159,12.1944,12.231,12.231,12.2273,12.2236,12.2125,12.1642,12.1015,12.0426,12.1122,12.0485,11.9731,12.0336,12.0262,11.9885,12.0299,12.1276,12.1971,12.2682,12.316,12.2719,12.2905,12.3239,12.3611,12.3759,12.4057,12.4354,12.3908,12.3314,12.2608,12.1939,12.1159,12.0384,11.9938,11.9593,11.8871,11.8049,11.7157,11.5974,11.4674,11.2705,11.0815,10.9223,10.7885,10.606,10.5391,10.5206,10.5313,10.5944,10.6315,10.639,10.6576,10.665,10.6608,10.606,10.5726,10.5169,10.4616,10.3799,10.3311,10.2972,10.3051,10.3274,10.3241,10.301,10.2681,10.2496,10.2079,10.1713,10.1596,10.1737,10.1639,10.1825,10.1899,10.1932,10.1858,10.2085,10.2122,10.2081,10.2034,10.1776,10.1772,10.163,10.1233,10.1095,10.1098,10.1265,10.1672,10.1946,10.2312,10.2658,10.2942,10.33,10.3746,10.3997,10.4374,10.4764,10.5099,10.5429,10.5619,10.5823,10.5939,10.5897,10.6525,10.7854,10.8482,10.8882,12.1759,12.0973,12.0936,12.049,11.9933,12.0601,12.0973,12.1196,12.1976,12.231,12.231,12.231,12.231,12.2162,12.2125,12.2013,12.1939,12.1865,12.1456,12.067,12.0973,12.1047,12.0782,12.0899,12.2013,12.2825,12.3388,12.3457,12.3568,12.4094,12.4434,12.462,12.4651,12.4763,12.506,12.48,12.4205,12.3531,12.3234,12.2422,12.1127,12.0384,12.0007,11.9593,11.8956,11.7863,11.6605,11.5374,11.3708,11.1479,10.977,10.847,10.7281,10.5907,10.535,10.5424,10.587,10.6385,10.6613,10.7096,10.7467,10.7467,10.7202,10.691,10.606,10.5057,10.4426,10.4909,10.4277,10.4091,10.4463,10.4755,10.4755,10.4542,10.4194,10.3947,10.3566,10.2867,10.2963,10.294,10.3125,10.2977,10.2861,10.2749,10.2642,10.268,10.268,10.2675,10.2633,10.2596,10.2829,10.2569,10.244,10.2439,10.2485,10.2782,10.3009,10.3506,10.3867,10.4354,10.4685,10.5062,10.5898,10.6274,10.6781,10.6821,10.6624,10.6776,10.7162,10.7511,10.7755,10.8546,10.9588,10.9993,11.0339,12.1827,12.1084,12.1084,12.0899,12.0644,12.0978,12.1387,12.179,12.2125,12.231,12.231,12.231,12.2088,12.179,12.1605,12.1605,12.1716,12.2088,12.1865,12.1419,12.1461,12.153,12.1382,12.2013,12.3016,12.3574,12.4391,12.5028,12.4986,12.48,12.4986,12.5474,12.5506,12.5766,12.5877,12.5654,12.5325,12.4763,12.402,12.2942,12.2013,12.1419,12.1015,12.0607,12.015,11.9062,11.764,11.6266,11.4785,11.2779,11.1145,10.9882,10.9144,10.8396,10.8024,10.8066,10.8321,10.8094,10.7388,10.7945,10.821,10.8178,10.7876,10.717,10.6469,10.58,10.5169,10.5169,10.4909,10.4909,10.5131,10.5201,10.5205,10.5215,10.521,10.5057,10.4746,10.4764,10.4467,10.4426,10.4388,10.4277,10.4272,10.4495,10.4268,10.383,10.3714,10.3482,10.3487,10.3458,10.3794,10.4156,10.411,10.4115,10.4156,10.4314,10.4328,10.4635,10.4695,10.5229,10.5786,10.6367,10.7273,10.8486,10.941,10.9048,10.8165,10.8325,10.9053,10.9421,10.9701,11.052,11.1345,11.2089,11.2503,12.1939,12.1382,12.1382,12.1382,12.1387,12.1387,12.1716,12.2236,12.2273,12.231,12.231,12.2273,12.1939,12.153,12.1493,12.1605,12.1493,12.2013,12.1902,12.179,12.1902,12.205,12.2236,12.2979,12.3685,12.4126,12.5246,12.5914,12.6026,12.5877,12.5877,12.6286,12.628,12.654,12.6838,12.6583,12.6063,12.5288,12.4131,12.3091,12.2385,12.2236,12.1865,12.1493,12.1047,12.0294,11.8686,11.7306,11.5751,11.3745,11.2333,11.1107,11.0407,10.9844,10.9622,10.9701,10.9886,10.977,10.9064,10.9064,10.9181,10.8958,10.8438,10.769,10.6905,10.6576,10.6246,10.561,10.5577,10.5498,10.5503,10.5545,10.5424,10.5336,10.5192,10.5196,10.5243,10.5377,10.5317,10.5094,10.5206,10.587,10.5981,10.6353,10.6065,10.5261,10.4791,10.4392,10.4346,10.4378,10.4621,10.5066,10.5019,10.5113,10.5466,10.5573,10.5661,10.5999,10.6065,10.659,10.7454,10.8052,10.8793,11.0117,11.1583,11.1744,11.1094,11.1028,11.0983,11.1085,11.134,11.215,11.2995,11.3811,11.4238,12.2273,12.2236,12.2199,12.2162,12.2162,12.2199,12.2236,12.231,12.231,12.231,12.231,12.2236,12.2125,12.2088,12.1944,12.1976,12.2125,12.2273,12.2273,12.2273,12.2348,12.2831,12.3202,12.3722,12.4391,12.5431,12.61,12.6509,12.6838,12.6583,12.6806,12.7098,12.6875,12.7066,12.7066,12.6769,12.6137,12.532,12.4168,12.3276,12.2645,12.2348,12.2199,12.205,12.1382,12.0336,11.8723,11.7789,11.6382,11.4265,11.3151,11.2408,11.1739,11.1224,11.0996,11.107,11.141,11.1335,11.0996,11.0253,10.9956,10.977,10.925,10.8438,10.7611,10.6836,10.6427,10.6353,10.632,10.6246,10.6255,10.6242,10.588,10.5898,10.5921,10.6147,10.6217,10.6148,10.6051,10.5721,10.6167,10.7133,10.7616,10.795,10.771,10.6902,10.5884,10.5489,10.5415,10.5429,10.5493,10.5672,10.562,10.5891,10.6487,10.6794,10.7383,10.7885,10.8137,10.8813,10.9661,11.0155,11.037,11.1766,11.3121,11.359,11.4033,11.3652,11.3272,11.2816,11.3012,11.3849,11.4545,11.526,11.5358,12.231,12.231,12.231,12.231,12.231,12.231,12.231,12.231,12.231,12.231,12.2273,12.1833,12.1573,12.161,12.1567,12.1567,12.1716,12.2719,12.2905,12.3276,12.3574,12.3982,12.4391,12.48,12.5426,12.6026,12.6435,12.6806,12.7103,12.6769,12.6509,12.6546,12.6843,12.6769,12.6657,12.6509,12.6063,12.558,12.4688,12.3908,12.3122,12.2496,12.231,12.2236,12.2125,12.0973,11.9588,11.8606,11.7083,11.5597,11.4488,11.3819,11.3416,11.2965,11.2853,11.2816,11.3193,11.3076,11.2519,11.159,11.0657,11.0105,10.9733,10.9324,10.8581,10.8103,10.762,10.7393,10.717,10.717,10.6506,10.6432,10.6368,10.6558,10.6841,10.7187,10.7376,10.7424,10.7537,10.7541,10.821,10.9064,10.9324,10.9547,10.9137,10.8534,10.7496,10.6669,10.6688,10.6761,10.6944,10.722,10.7289,10.7634,10.8265,10.8767,10.925,10.9656,11.0093,11.0687,11.1266,11.1572,11.2016,11.3414,11.4481,11.4963,11.5378,11.571,11.5337,11.4376,11.4636,11.5491,11.6144,11.6686,11.6575,12.231,12.231,12.231,12.231,12.231,12.231,12.231,12.231,12.231,12.231,12.2273,12.1679,12.1456,12.1461,12.1493,12.1753,12.2199,12.2937,12.3531,12.394,12.4391,12.4874,12.5288,12.5654,12.5983,12.6392,12.6763,12.7172,12.6732,12.6243,12.5914,12.5914,12.6143,12.5952,12.5877,12.5914,12.5877,12.5543,12.5394,12.4508,12.3605,12.3011,12.2459,12.2385,12.2236,12.1605,12.041,11.9402,11.8165,11.6786,11.5746,11.5231,11.5045,11.4976,11.5013,11.5013,11.4934,11.4706,11.3931,11.2668,11.1474,11.107,11.0959,11.0439,10.9882,10.9589,10.9287,10.8544,10.8359,10.8099,10.7472,10.7793,10.798,10.833,10.8374,10.8625,10.9014,10.9187,10.9374,10.9552,11.0105,11.036,11.0587,11.0625,11.0245,10.9733,10.8985,10.8347,10.8375,10.8457,10.8688,10.903,10.9373,10.9803,11.0355,11.036,11.0481,11.1053,11.1496,11.1996,11.2494,11.2883,11.3534,11.469,11.5593,11.6242,11.6549,11.6623,11.6171,11.5528,11.6048,11.6648,11.7236,11.7645,11.7677,12.231,12.231,12.231,12.231,12.231,12.231,12.231,12.231,12.231,12.231,12.231,12.2162,12.2236,12.2279,12.2273,12.2645,12.3245,12.3611,12.4094,12.4725,12.5134,12.5394,12.5766,12.6169,12.6509,12.7029,12.714,12.6838,12.6137,12.5877,12.5506,12.4911,12.4837,12.4911,12.4911,12.558,12.5548,12.506,12.5654,12.4948,12.4126,12.3531,12.2979,12.2645,12.2348,12.179,12.0899,12.0044,11.8845,11.7566,11.66,11.5974,11.5491,11.5379,11.5337,11.53,11.5231,11.5119,11.4859,11.3368,11.2643,11.2477,11.2482,11.2148,11.1553,11.1256,11.107,11.0481,11.0216,11.0067,10.9961,10.9896,10.9835,10.9826,10.9794,11.0033,11.0385,11.0672,11.0791,11.0885,11.107,11.1325,11.1548,11.1623,11.1256,11.0795,11.0265,11.0018,10.9891,10.9953,11.0061,11.0825,11.1211,11.1553,11.1826,11.1585,11.1744,11.2348,11.2913,11.3382,11.3858,11.4272,11.5048,11.6013,11.6585,11.711,11.727,11.7403,11.7232,11.7136,11.7104,11.756,11.8159,11.8356,11.8054,12.231,12.231,12.231,12.231,12.231,12.231,12.231,12.231,12.231,12.231,12.231,12.231,12.2639,12.2942,12.3165,12.3531,12.4317,12.506,12.5469,12.558,12.6026,12.6472,12.6732,12.6732,12.6918,12.7103,12.714,12.6806,12.6026,12.5654,12.48,12.4094,12.3871,12.3839,12.454,12.5171,12.5177,12.5543,12.584,12.5654,12.506,12.4126,12.3382,12.3016,12.2571,12.1939,12.1233,12.0458,11.9402,11.8277,11.7423,11.6828,11.6494,11.6414,11.6489,11.6526,11.6526,11.6308,11.5742,11.4651,11.4048,11.4082,11.3985,11.3831,11.374,11.374,11.3299,11.271,11.2338,11.193,11.1187,11.0922,11.0832,11.0811,11.0901,11.1266,11.1576,11.1761,11.1888,11.192,11.2068,11.2068,11.2254,11.2433,11.2177,11.2019,11.1629,11.1176,11.0974,11.1046,11.1211,11.2325,11.2965,11.3266,11.3375,11.3066,11.3076,11.3606,11.4192,11.4686,11.5159,11.5477,11.6055,11.6707,11.7295,11.7873,11.815,11.8453,11.8813,11.8887,11.8664,11.843,11.8748,11.8405,11.7673,12.231,12.231,12.231,12.231,12.231,12.231,12.231,12.231,12.231,12.231,12.2348,12.2571,12.2979,12.3462,12.3871,12.4391,12.5214,12.5691,12.628,12.6397,12.688,12.7066,12.714,12.7215,12.714,12.7215,12.7103,12.6806,12.6026,12.5506,12.4874,12.4168,12.3425,12.4025,12.462,12.4911,12.5028,12.5548,12.5883,12.6286,12.5617,12.48,12.3834,12.3351,12.2756,12.205,12.1456,12.075,11.9927,11.9062,11.8351,11.772,11.7529,11.7412,11.7412,11.7412,11.7343,11.7047,11.638,11.6015,11.5592,11.567,11.5298,11.4931,11.4982,11.4711,11.4562,11.427,11.4233,11.3639,11.2742,11.2445,11.2368,11.2385,11.2497,11.2898,11.2655,11.2841,11.2645,11.2752,11.2663,11.27,11.2933,11.3047,11.3072,11.3025,11.2945,11.2551,11.2204,11.238,11.254,11.3458,11.4153,11.4285,11.44,11.4446,11.4567,11.4939,11.5307,11.5686,11.5943,11.6197,11.6781,11.7333,11.7889,11.8446,11.9068,11.9503,11.9901,12.0033,11.9874,11.9662,11.9475,11.8935,11.8244,12.231,12.231,12.231,12.231,12.231,12.2385,12.2385,12.2348,12.2348,12.2422,12.2496,12.3314,12.3722,12.3834,12.4503,12.5246,12.592,12.61,12.6509,12.6912,12.714,12.7215,12.7215,12.7215,12.7215,12.7215,12.7103,12.6806,12.6063,12.558,12.5171,12.4837,12.4428,12.4582,12.4731,12.4954,12.5065,12.5586,12.6323,12.6583,12.6137,12.5208,12.4354,12.3685,12.2862,12.2348,12.1865,12.1344,12.0639,11.9853,11.9068,11.8277,11.7714,11.7417,11.7412,11.7412,11.7412,11.7196,11.7038,11.6751,11.6963,11.6789,11.5942,11.5279,11.5196,11.5491,11.5379,11.5194,11.5008,11.4971,11.4674,11.455,11.4464,11.4457,11.4477,11.4309,11.388,11.3684,11.3419,11.3255,11.3039,11.3188,11.3681,11.3865,11.3969,11.414,11.4162,11.4248,11.3953,11.3968,11.4197,11.4518,11.5022,11.5076,11.5265,11.5555,11.5677,11.5899,11.6089,11.6411,11.6635,11.7002,11.7591,11.8106,11.8456,11.9014,11.9805,12.0441,12.0994,12.1037,12.0872,12.0623,12.0384,12.0214,11.9826,12.231,12.231,12.231,12.231,12.2385,12.2905,12.316,12.3165,12.316,12.342,12.4094,12.4317,12.4646,12.5283,12.5543,12.6137,12.6546,12.688,12.6955,12.714,12.7215,12.7215,12.7215,12.7215,12.7215,12.7215,12.7103,12.688,12.6063,12.5623,12.5288,12.4805,12.5028,12.4954,12.5134,12.5357,12.5543,12.5914,12.6769,12.6843,12.6472,12.5543,12.4837,12.4131,12.3011,12.2533,12.2125,12.1605,12.0973,12.0639,11.9322,11.8457,11.8346,11.7752,11.7412,11.7391,11.7292,11.7138,11.7158,11.7347,11.7593,11.7966,11.7653,11.7392,11.7053,11.668,11.6494,11.6345,11.6202,11.6239,11.5942,11.5771,11.5686,11.5669,11.5557,11.5182,11.479,11.4557,11.4297,11.4067,11.3856,11.4042,11.4535,11.4672,11.4767,11.5091,11.5304,11.5469,11.5533,11.5427,11.5459,11.5742,11.587,11.5923,11.6395,11.6749,11.6749,11.6828,11.6939,11.7156,11.757,11.7984,11.8493,11.8998,11.9476,12.0044,12.0637,12.1216,12.1598,12.1869,12.179,12.1535,12.1286,12.1021,12.0745,12.231,12.231,12.231,12.2459,12.2831,12.3314,12.3834,12.4317,12.4168,12.4359,12.48,12.5134,12.5543,12.5914,12.6286,12.6732,12.7103,12.7103,12.7178,12.7178,12.7215,12.7215,12.7215,12.7215,12.7215,12.7246,12.7395,12.7358,12.6546,12.6106,12.5809,12.5846,12.5766,12.5729,12.5914,12.6249,12.6435,12.662,12.6912,12.714,12.6695,12.5914,12.532,12.4614,12.3388,12.2793,12.2348,12.1753,12.1493,12.1196,11.9842,11.9434,11.9253,11.8659,11.8431,11.8468,11.8304,11.818,11.8133,11.8056,11.8307,11.8589,11.8966,11.8825,11.8622,11.8362,11.8176,11.799,11.7804,11.7582,11.7099,11.669,11.6599,11.6545,11.6197,11.588,11.5679,11.5483,11.5254,11.5003,11.4971,11.5119,11.5278,11.541,11.5675,11.6143,11.6393,11.6489,11.651,11.6436,11.6441,11.6606,11.6707,11.6771,11.7211,11.7396,11.7248,11.7259,11.755,11.7836,11.8414,11.8892,11.9296,11.9927,12.0644,12.1019,12.1236,12.1642,12.2008,12.2216,12.2278,12.2094,12.1788,12.1592,12.1305,12.231,12.231,12.231,12.2751,12.3425,12.3611,12.4503,12.584,12.5283,12.5023,12.5246,12.5803,12.6137,12.6397,12.6763,12.7029,12.7215,12.7215,12.7215,12.7215,12.7215,12.7215,12.7215,12.7215,12.7326,12.7544,12.7766,12.7841,12.7475,12.7103,12.7066,12.7215,12.7029,12.6843,12.6843,12.6918,12.6955,12.7029,12.7103,12.7178,12.6986,12.636,12.566,12.4954,12.4094,12.3351,12.2793,12.2348,12.205,12.1567,12.0973,12.0601,12.0012,11.9715,11.9715,11.9545,11.9176,11.8784,11.8596,11.8496,11.8643,11.8878,11.9195,11.9354,11.9338,11.9365,11.9147,11.9073,11.8887,11.8585,11.8171,11.7831,11.7656,11.7544,11.731,11.7051,11.685,11.6532,11.615,11.5926,11.5862,11.6006,11.6197,11.6286,11.6371,11.7014,11.7189,11.7216,11.7211,11.7126,11.7131,11.7211,11.7168,11.7168,11.7253,11.7381,11.7403,11.7525,11.7901,11.8468,11.8961,11.9507,12.0069,12.0615,12.1151,12.1424,12.1666,12.2024,12.2257,12.2221,12.2318,12.2429,12.233,12.2315,12.2302,12.231,12.231,12.231,12.2756,12.3537,12.4205,12.5023,12.6031,12.6509,12.6546,12.6657,12.6769,12.688,12.688,12.7029,12.7215,12.7215,12.7215,12.7215,12.7215,12.7215,12.7215,12.7215,12.7215,12.7506,12.7989,12.8287,12.8407,12.8247,12.8072,12.7761,12.7283,12.7215,12.7215,12.7215,12.7215,12.7215,12.7215,12.7215,12.7215,12.7103,12.6509,12.5809,12.5437,12.4917,12.4391,12.3871,12.3462,12.3234,12.2862,12.1647,12.0793,11.9943,11.997,11.9837,11.9633,11.9653,11.9161,11.8825,11.8848,11.891,11.8854,11.9032,11.95,11.9752,11.9864,11.9938,11.9938,11.9784,11.9476,11.9174,11.8866,11.8643,11.8542,11.8398,11.8154,11.7942,11.7539,11.7099,11.6882,11.6781,11.686,11.7014,11.7088,11.7242,11.7311,11.7343,11.7375,11.7333,11.729,11.7253,11.7333,11.7333,11.7333,11.7412,11.7439,11.7461,11.7757,11.8175,11.8809,11.9527,12.031,12.1024,12.1177,12.1516,12.1934,12.2218,12.2335,12.2466,12.2479,12.2812,12.3145,12.3546,12.3613,12.3604,12.231,12.231,12.231,12.2756,12.3568,12.4428,12.5251,12.6063,12.6843,12.7215,12.7215,12.7215,12.7215,12.7215,12.7215,12.7215,12.7215,12.7215,12.7215,12.7215,12.7215,12.7215,12.7215,12.7252,12.7729,12.8201,12.8712,12.8883,12.9011,12.8418,12.7898,12.7652,12.7501,12.7289,12.7252,12.7252,12.7252,12.7215,12.7252,12.7215,12.7215,12.6769,12.6249,12.5989,12.5623,12.5214,12.4725,12.4317,12.4205,12.402,12.3245,12.2873,12.2241,12.1862,12.1456,12.1089,12.0681,11.9872,11.9477,11.925,11.9387,11.9529,11.9542,12.0242,12.1052,12.1159,12.0495,12.0421,11.9975,11.963,11.9397,11.9089,11.9137,11.9126,11.8833,11.8541,11.8738,11.8855,11.8309,11.7853,11.7677,11.7524,11.7566,11.7232,11.7348,11.7385,11.7417,11.7534,11.7534,11.7741,11.7624,11.7677,11.7826,11.7566,11.7412,11.7461,11.7557,11.791,11.8455,11.9349,12.0224,12.1238,12.1946,12.204,12.2286,12.2715,12.2953,12.3004,12.2951,12.2943,12.3459,12.399,12.4441,12.502,12.5119,12.231,12.231,12.231,12.2756,12.3537,12.428,12.514,12.6026,12.6732,12.7103,12.7215,12.7215,12.7215,12.7215,12.7215,12.7215,12.7215,12.7215,12.7215,12.7215,12.7215,12.7215,12.7252,12.7395,12.7992,12.8572,12.9119,12.9487,12.9779,12.8992,12.8422,12.8367,12.8015,12.7549,12.7512,12.7549,12.7735,12.7586,12.7512,12.7321,12.7283,12.7215,12.6769,12.6397,12.6106,12.5766,12.532,12.4991,12.4986,12.4729,12.4527,12.4191,12.3935,12.3342,12.2965,12.2511,12.1889,12.1351,12.0911,12.0249,12.0641,12.09,12.0815,12.1074,12.1816,12.1679,12.1015,12.0793,12.0309,11.9858,11.9582,11.9275,11.9397,11.9683,11.9343,11.92,11.9651,11.9938,11.937,11.8792,11.8606,11.8383,11.8123,11.7789,11.773,11.7688,11.7683,11.7693,11.7862,11.8276,11.8482,11.8579,11.8765,11.8351,11.7635,11.7747,11.7938,11.8363,11.8956,11.9942,12.094,12.1914,12.2577,12.2805,12.3064,12.3297,12.3585,12.3737,12.3646,12.3793,12.507,12.5953,12.6098,12.6574,12.6751,12.231,12.231,12.231,12.2756,12.3457,12.368,12.4614,12.5883,12.6137,12.6546,12.7029,12.7178,12.7215,12.7209,12.7215,12.7215,12.7215,12.7215,12.7215,12.7215,12.7215,12.7215,12.7346,12.7678,12.8489,12.8954,12.9284,12.9588,12.9687,12.9227,12.9078,12.9117,12.9307,12.9092,12.9152,12.9035,12.8732,12.8361,12.7995,12.7841,12.7326,12.7252,12.7178,12.7029,12.6955,12.6875,12.662,12.61,12.5877,12.553,12.5078,12.4825,12.4584,12.4373,12.3883,12.336,12.2773,12.2042,12.146,12.0951,12.1124,12.0848,12.0698,12.0791,12.1238,12.1201,12.0978,12.1344,12.0861,12.0187,11.9768,11.9153,11.9115,11.9911,12.0071,12.0373,12.0765,12.0463,11.9933,11.9704,11.9588,11.9439,11.9296,11.9131,11.9094,11.9078,11.9068,11.9041,11.8961,11.913,11.9273,11.9407,11.9582,11.8749,11.7911,11.8336,11.8603,11.8956,11.9588,12.0787,12.1775,12.2554,12.3076,12.3359,12.3462,12.3645,12.3939,12.4803,12.5109,12.5569,12.7213,12.8187,12.8136,12.811,12.8222]},{"header":{"parameterUnit":"m.s-1","parameterCategory":1,"la1":31.0,"la2":29.5877,"lo1":-88.7671,"lo2":-86.6584,"dx":0.0162,"dy":0.0185,"nx":115,"ny":88,"refTime":"2023-02-02T18:00:00:Z","depth":0,"parameterNumber":3,"parameterNumberName":"V-component_of_WINDS"},"data":[0.0,0.0,0.0,0.0,0.0,0.0,0.0,0.0,0.0,0.0,0.0,0.0,0.0,0.0,0.0,0.0,0.0,0.0,0.0,0.0,0.0,0.0,0.0,0.0,0.0,0.0,0.0,0.0,0.0,0.0,0.0,0.0,0.0,0.0,0.0,0.0,0.0,0.0,0.0,0.0,0.0,0.0,0.0,0.0,0.0,0.0,0.0,0.0,0.0,0.0,0.0,0.0,0.0,0.0,0.0,0.0,0.0,0.0,0.0,0.0,0.0,0.0,0.0,0.0,0.0,0.0,0.0,0.0,0.0,0.0,0.0,0.0,0.0,0.0,0.0,0.0,0.0,0.0,0.0,0.0,0.0,0.0,0.0,0.0,0.0,0.0,0.0,0.0,0.0,0.0,0.0,0.0,0.0,0.0,0.0,0.0,0.0,0.0,0.0,0.0,0.0,0.0,0.0,0.0,0.0,0.0,0.0,0.0,0.0,0.0,0.0,0.0,0.0,0.0,0.0,0.0,0.0,0.0,0.0,0.0,0.0,0.0,0.0,0.0,0.0,0.0,0.0,0.0,0.0,0.0,0.0,0.0,0.0,0.0,0.0,0.0,0.0,0.0,0.0,0.0,0.0,0.0,0.0,0.0,0.0,0.0,0.0,0.0,0.0,0.0,0.0,0.0,0.0,0.0,0.0,0.0,0.0,0.0,0.0,0.0,0.0,0.0,0.0,0.0,0.0,0.0,0.0,0.0,0.0,0.0,0.0,0.0,0.0,0.0,0.0,0.0,0.0,0.0,0.0,0.0,0.0,0.0,0.0,0.0,0.0,0.0,0.0,0.0,0.0,0.0,0.0,0.0,0.0,0.0,0.0,0.0,0.0,0.0,0.0,0.0,0.0,0.0,0.0,0.0,0.0,0.0,0.0,0.0,0.0,0.0,0.0,0.0,0.0,0.0,0.0,0.0,0.0,0.0,0.0,0.0,0.0,0.0,0.0,0.0,0.0,0.0,0.0,0.0,0.0,0.0,0.0,0.0,0.0,0.0,0.0,0.0,0.0,0.0,0.0,0.0,0.0,0.0,0.0,0.0,0.0,0.0,0.0,0.0,0.0,0.0,0.0,0.0,0.0,0.0,0.0,0.0,0.0,0.0,0.0,0.0,0.0,0.0,0.0,0.0,0.0,0.0,0.0,0.0,0.0,0.0,0.0,0.0,0.0,0.0,0.0,0.0,0.0,0.0,0.0,0.0,0.0,0.0,0.0,0.0,0.0,0.0,0.0,0.0,0.0,0.0,0.0,0.0,0.0,0.0,0.0,0.0,0.0,0.0,0.0,0.0,0.0,0.0,0.0,0.0,0.0,0.0,0.0,0.0,0.0,0.0,0.0,0.0,0.0,0.0,0.0,0.0,0.0,0.0,0.0,0.0,0.0,0.0,0.0,0.0,0.0,0.0,0.0,0.0,0.0,0.0,0.0,0.0,0.0,0.0,0.0,0.0,0.0,0.0,0.0,0.0,0.0,0.0,0.0,0.0,0.0,0.0,0.0,0.0,0.0,0.0,0.0,0.0,0.0,0.0,0.0,0.0,0.0,0.0,0.0,0.0,0.0,0.0,0.0,0.0,0.0,0.0,0.0,0.0,0.0,0.0,0.0,0.0,0.0,0.0,0.0,0.0,0.0,0.0,0.0,0.0,0.0,0.0,0.0,0.0,0.0,0.0,0.0,0.0,0.0,0.0,0.0,0.0,0.0,0.0,0.0,0.0,0.0,0.0,0.0,0.0,0.0,0.0,0.0,0.0,0.0,0.0,0.0,0.0,0.0,0.0,0.0,0.0,0.0,0.0,0.0,0.0,0.0,0.0,0.0,0.0,0.0,0.0,0.0,0.0,0.0,0.0,0.0,0.0,0.0,0.0,0.0,0.0,0.0,0.0,0.0,0.0,0.0,0.0,0.0,0.0,0.0,0.0,0.0,0.0,0.0,0.0,0.0,0.0,0.0,0.0,0.0,0.0,0.0,0.0,0.0,0.0,0.0,0.0,0.0,0.0,0.0,0.0,0.0,0.0,0.0,0.0,0.0,0.0,0.0,0.0,0.0,0.0,0.0,0.0,0.0,0.0,0.0,0.0,0.0,0.0,0.0,0.0,0.0,0.0,0.0,0.0,0.0,0.0,0.0,0.0,0.0,0.0,0.0,0.0,0.0,0.0,0.0,0.0,0.0,0.0,0.0,0.0,0.0,0.0,0.0,0.0,0.0,0.0,0.0,0.0,0.0,0.0,0.0,0.0,0.0,0.0,0.0,0.0,0.0,0.0,0.0,0.0,0.0,0.0,0.0,0.0,0.0,0.0,0.0,0.0,0.0,0.0,0.0,0.0,0.0,0.0,0.0,0.0,0.0,0.0,0.0,0.0,0.0,0.0,0.0,0.0,0.0,0.0,0.0,0.0,0.0,0.0,0.0,0.0,0.0,0.0,0.0,0.0,0.0,0.0,0.0,0.0,0.0,0.0,0.0,0.0,0.0,0.0,0.0,0.0,0.0,0.0,0.0,0.0,0.0,0.0,0.0,0.0,0.0,0.0,0.0,0.0,0.0,0.0,0.0,0.0,0.0,0.0,0.0,0.0,0.0,0.0,0.0,0.0,0.0,0.0,0.0,0.0,0.0,0.0,0.0,0.0,0.0,0.0,0.0,0.0,0.0,0.0,0.0,0.0,0.0,0.0,0.0,0.0,0.0,0.0,0.0,0.0,0.0,0.0,0.0,0.0,0.0,0.0,0.0,0.0,0.0,0.0,0.0,0.0,0.0,0.0,0.0,0.0,0.0,0.0,0.0,0.0,0.0,0.0,0.0,0.0,0.0,0.0,0.0,0.0,0.0,0.0,0.0,0.0,0.0,0.0,0.0,0.0,0.0,0.0,0.0,0.0,0.0,0.0,0.0,0.0,0.0,0.0,0.0,0.0,0.0,0.0,0.0,0.0,0.0,0.0,0.0,0.0,0.0,0.0,0.0,0.0,0.0,0.0,0.0,0.0,0.0,0.0,0.0,0.0,0.0,0.0,0.0,0.0,0.0,0.0,0.0,0.0,0.0,0.0,0.0,0.0,0.0,0.0,0.0,0.0,0.0,0.0,0.0,0.0,0.0,0.0,0.0,0.0,0.0,0.0,0.0,0.0,0.0,0.0,0.0,0.0,0.0,0.0,0.0,0.0,0.0,0.0,0.0,0.0,0.0,0.0,0.0,0.0,0.0,0.0,0.0,0.0,0.0,0.0,0.0,0.0,0.0,0.0,0.0,0.0,0.0,0.0,0.0,0.0,0.0,0.0,0.0,0.0,0.0,0.0,0.0,0.0,0.0,0.0,0.0,0.0,0.0,0.0,0.0,0.0,0.0,0.0,0.0,0.0,0.0,0.0,0.0,0.0,0.0,0.0,0.0,0.0,0.0,0.0,0.0,0.0,0.0,0.0,0.0,0.0,0.0,0.0,0.0,0.0,0.0,0.0,0.0,0.0,0.0,0.0,0.0,0.0,0.0,0.0,0.0,0.0,0.0,0.0,0.0,0.0,0.0,0.0,0.0,0.0,0.0,0.0,0.0,0.0,0.0,0.0,0.0,0.0,0.0,0.0,0.0,0.0,0.0,0.0,0.0,0.0,0.0,0.0,0.0,0.0,0.0,0.0,0.0,0.0,0.0,0.0,0.0,0.0,0.0,0.0,0.0,0.0,0.0,0.0,0.0,0.0,0.0,0.0,0.0,0.0,0.0,0.0,0.0,0.0,0.0,0.0,0.0,0.0,0.0,0.0,0.0,0.0,0.0,0.0,0.0,0.0,0.0,0.0,0.0,0.0,0.0,0.0,0.0,0.0,0.0,0.0,0.0,0.0,0.0,0.0,0.0,0.0,0.0,0.0,0.0,0.0,0.0,0.0,0.0,0.0,0.0,0.0,0.0,0.0,0.0,0.0,0.0,0.0,0.0,0.0,0.0,0.0,0.0,0.0,0.0,0.0,0.0,0.0,0.0,0.0,0.0,0.0,0.0,0.0,0.0,0.0,0.0,0.0,0.0,0.0,0.0,0.0,0.0,0.0,0.0,0.0,0.0,0.0,0.0,0.0,0.0,0.0,0.0,0.0,0.0,0.0,0.0,0.0,0.0,0.0,0.0,0.0,0.0,0.0,0.0,0.0,0.0,0.0,0.0,0.0,0.0,0.0,0.0,0.0,0.0,0.0,0.0,0.0,0.0,0.0,0.0,0.0,0.0,0.0,0.0,0.0,0.0,0.0,0.0,0.0,0.2486,0.0,0.0,0.0,0.0,0.0,0.0,0.0,0.0,0.0,0.0,0.0,0.0,0.0,0.0,0.0,0.0,0.0,0.0,0.0,0.0,0.0,0.0,0.0,0.0,0.0,0.0,0.0,0.0,0.0,0.0,0.0,0.0,0.0,0.0,0.0,0.0,0.0,0.0,0.0,0.0,0.0,0.0,0.0,0.0,0.0,0.0,0.0,0.0,0.0,0.0,0.0,0.0,0.0,0.0,0.0,0.0,0.0,0.0,0.0,0.0,0.0,0.0,0.0,0.0,0.0,0.0,0.0,0.0,0.0,0.0,0.0,0.0,0.0,0.0,0.0,0.0,0.0,0.0,0.0,0.0,0.0,0.0,0.0,0.0,0.0,0.0,0.0,0.0,0.0,0.0,0.0,0.0,0.0,0.0,0.0,0.0,0.0,0.0,0.0,0.0,0.0,0.0,0.0,0.0,0.0,0.0,0.0,0.0,0.0,0.0,0.2599,0.2595,0.2592,0.2563,0.2469,0.0,0.0,0.0,0.0,0.0,0.0,0.0,0.0,0.0,0.0,0.0,0.0,0.0,0.0,0.0,0.0,0.0,0.0,0.0,0.0,0.0,0.0,0.0,0.0,0.0,0.0,0.0,0.0,0.0,0.0,0.0,0.0,0.0,0.0,0.0,0.0,0.0,0.0,0.0,0.0,0.0,0.0,0.0,0.0,0.0,0.0,0.0,0.0,0.0,0.0,0.0,0.0,0.0,0.0,0.0,0.0,0.0,0.0,0.0,0.0,0.0,0.0,0.0,0.0,0.0,0.0,0.0,0.0,0.0,0.0,0.0,0.0,0.0,0.0,0.0,0.0,0.0,0.0,0.0,0.0,0.0,0.0,0.0,0.0,0.0,0.0,0.0,0.0,0.0,0.0,0.0,0.0,0.0,0.0,0.0,0.0,0.0,0.0,0.0,0.0,0.0,0.0,0.0,0.0,0.0,0.0,0.0,0.0,0.0,0.0,0.0,0.0,0.2592,0.2482,0.2219,0.0,0.0,0.0,0.0,0.0,0.0,0.0,0.0,0.0,0.0,0.0,0.0,0.0,0.0,0.0,0.0,0.0,0.0,0.0,0.0,0.0,0.0,0.0,0.0,0.0,0.0,0.0,0.0,0.0,0.0,0.0,0.0,0.0,0.0,0.0,0.0,0.0,0.0,0.0,0.0,0.0,0.0,0.0,0.0,0.0,0.0,0.0,0.0,0.0,0.0,0.0,0.0,0.0,0.0,0.0,0.0,0.0,0.0,0.0,0.0,0.0,0.0,0.0,0.0,0.0,0.0,0.0,0.0,0.0,0.0,0.0,0.0,0.0,0.0,0.0,0.0,0.0,0.0,0.0,0.0,0.0,0.0,0.0,0.0,0.0,0.0,0.0,0.0,0.0,0.0,0.0,0.0,0.0,0.0,0.0,0.0,0.0,0.0,0.0,0.0,0.0,0.0,0.0,0.0,0.0,0.0,0.0,0.0,0.0,0.0,0.2664,0.2596,0.259,0.0,0.1501,0.0,0.0,0.0,0.0,0.0,0.0,0.0,0.0,0.0,0.0,0.0,0.0,0.0,0.0,0.0,0.0,0.0,0.0,0.0,0.0,0.0,0.0,0.0,0.0,0.0,0.0,0.0,0.0,0.0,0.0,0.0,0.0,0.0,0.0,0.0,0.0,0.0,0.0,0.0,0.0,0.0,0.0,0.0,0.0,0.0,0.0,0.0,0.0,0.0,0.0,0.0,0.0,0.0,0.0,0.0,0.0,0.0,0.0,0.0,0.0,0.0,0.0,0.0,0.0,0.0,0.0,0.0,0.0,0.0,0.0,0.0,0.0,0.0,0.0,0.0,0.0,0.0,0.0,0.0,0.0,0.0,0.0,0.0,0.0,0.0,0.0,0.0,0.0,0.0,0.0,0.0,0.0,0.0,0.0,0.0,0.0,0.0,0.0,0.0,0.0,0.0,0.0,0.0,0.0,0.0,0.0,0.0,0.0,0.0,0.0,0.2687,0.2652,0.2651,0.2237,0.0,0.0,0.0,0.0,0.0,0.0,0.0,0.0,0.0,0.0,0.0,0.0,0.0,0.0,0.0,0.0,0.0,0.0,0.0,0.0,0.0,0.0,0.0,0.0,0.0,0.0,0.0,0.0,0.0,0.0,0.0,0.0,0.0,0.0,0.0,0.0,0.0,0.0,0.0,0.0,0.0,0.0,0.0,0.0,0.0,0.0,0.0,0.0,0.0,0.0,0.0,0.0,0.0,0.0,0.0,0.0,0.0,0.0,0.0,0.0,0.0,0.0,0.0,0.0,0.0,0.0,0.0,0.0,0.0,0.0,0.0,0.0,0.0,0.0,0.0,0.0,0.0,0.0,0.0,0.0,0.0,0.0,0.0,0.0,0.0,0.0,0.0,0.0,0.0,0.0,0.0,0.0,0.0,0.0,0.0,0.0,0.0,0.0,0.0,0.0,0.0,0.0,0.0,0.0,0.0,0.0,0.0,0.0,0.0,0.0,0.2682,0.2682,0.269,0.2687,0.227,0.1437,0.0,0.0,0.0,0.0,0.0,0.0,0.0,0.0,0.0,0.0,0.0,0.0,0.0,0.0,0.0,0.0,0.0,0.0,0.0,0.0,0.0,0.0,0.0,0.0,0.0,0.0,0.0,0.0,0.0,0.0,0.0,0.0,0.0,0.0,0.0,0.0,0.0,0.0,0.0,0.0,0.0,0.0,0.0,0.0,0.0,0.0,0.0,0.0,0.0,0.0,0.0,0.0,0.0,0.0,0.0,0.0,0.0,0.0,0.0,0.0,0.0,0.0,0.0,0.0,0.0,0.0,0.0,0.0,0.0,0.0,0.0,0.0,0.0,0.0,0.0,0.0,0.0,0.0,0.0,0.0,0.0,0.0,0.0,0.0,0.0,0.0,0.0,0.0,0.0,0.0,0.0,0.0,0.0,0.0,0.0,0.0,0.0,0.0,0.0,0.0,0.0,0.0,0.0,0.0,0.0,0.0,0.0,0.0,0.0,0.2682,0.2682,0.2681,0.2625,0.2319,0.0,0.0,0.0,0.0,0.0,0.0,0.0,0.0,0.0,0.0,0.0,0.0,0.0,0.0,0.0,0.0,0.0,0.0,0.0,0.0,0.0,0.0,0.0,0.0,0.0,0.0,0.0,0.0,0.0,0.0,0.0,0.0,0.0,0.0,0.0,0.0,0.0,0.0,0.0,0.0,0.0,0.0,0.0,0.0,0.0,0.0,0.0,0.0,0.0,0.0,0.0,0.0,0.0,0.0,0.0,0.0,0.0,0.0,0.0,0.0,0.0,0.0,0.0,0.0,0.0,0.0,0.0,0.0,0.0,0.0,0.0,0.0,0.0,0.0,0.0,0.0,0.0,0.0,0.0,0.0,0.0,0.0,0.0,0.0,0.0,0.0,0.0,0.0,0.0,0.0,0.0,0.0,0.0,0.0,0.0,0.0,0.0,0.0,0.0,0.0,0.0,0.0,0.0,0.0,0.0,0.0,0.0,0.0,0.0,0.2682,0.2682,0.2682,0.2681,0.2684,0.2531,0.0,0.0,0.0,0.0,0.0,0.0,0.0,0.0,0.0,0.0,0.0,0.0,0.0,0.0,0.0,0.0,0.0,0.0,0.0,0.0,0.0,0.0,0.0,0.0,0.0,0.0,0.0,0.0,0.0,0.0,0.0,0.0,0.0,0.0,0.0,0.0,0.0,0.0,0.0,0.0,0.0,0.0,0.0,0.0,0.0,0.0,0.0,0.0,0.0,0.0,0.0,0.0,0.0,0.0,0.0,0.0,0.0,0.0,0.0,0.0,0.0,0.0,0.0,0.0,0.0,0.0,0.0,0.0,0.0,0.0,0.0,0.0,0.0,0.0,0.0,0.0,0.0,0.0,0.0,0.0,0.0,0.0,0.0,0.0,0.0,0.0,0.0,0.0,0.0,0.0,0.0,0.0,0.0,0.0,0.0,0.0,0.0,0.0,0.0,0.0,0.0,0.0,0.0,0.0,0.0,0.0,0.0,0.0,0.0,0.2951,0.0,0.2972,0.2949,0.2939,0.282,0.0,0.0,0.0,0.0,0.0,0.0,0.0,0.0,0.0,0.0,0.0,0.0,0.0,0.0,0.0,0.0,0.0,0.0,0.0,0.0,0.0,0.0,0.0,0.0,0.0,0.0,0.0,0.0,0.0,0.0,0.0,0.0,0.0,0.0,0.0,0.0,0.0,0.0,0.0,0.0,0.0,0.0,0.0,0.0,0.0,0.0,0.0,0.0,0.0,0.0,0.0,0.0,0.0,0.0,0.0,0.0,0.0,0.0,0.0,0.0,0.0,0.0,0.0,0.0,0.0,0.0,0.0,0.0,0.0,0.0,0.0,0.0,0.0,0.0,0.0,0.0,0.0,0.0,0.0,0.0,0.0,0.0,0.0,0.0,0.0,0.0,0.0,0.0,0.0,0.0,0.0,0.0,0.0,0.0,0.0,0.0,0.0,0.0,0.0,0.0,0.0,0.0,0.0,0.0,0.0,0.0,0.0,0.0,0.3019,0.3498,0.351,0.3523,0.3498,0.3431,0.3156,0.0,0.0,0.0,0.0,0.0,0.0,0.0,0.0,0.0,0.0,0.0,0.0,0.0,0.0,0.0,0.0,0.0,0.0,0.0,0.0,0.0,0.0,0.0,0.0,0.0,0.0,0.0,0.0,0.0,0.0,0.0,0.0,0.0,0.0,0.0,0.0,0.0,0.0,0.0,0.0,0.0,0.0,0.0,0.0,0.0,0.0,0.0,0.0,0.0,0.0,0.0,0.0,0.0,0.0,0.0,0.0,0.0,0.0,0.0,0.0,0.0,0.0,0.0,0.0,0.0,0.0,0.0,0.0,0.0,0.0,0.0,0.0,0.0,0.0,0.0,0.0,0.0,0.0,0.0,0.0,0.0,0.0,0.0,0.0,0.0,0.0,0.0,0.0,0.0,0.0,0.0,0.0,0.0,0.0,0.0,0.0,0.0,0.0,0.0,0.0,0.0,0.0,0.0,0.0,0.0,0.0,0.0,0.0,0.0,0.459,0.4241,0.423,0.4544,0.3864,0.3365,0.0,0.0,0.0,0.0,0.0,0.0,0.0,0.0,0.0,0.0,0.0,0.0,0.0,0.0,0.0,0.0,0.0,0.0,0.0,0.0,0.0,0.0,0.0,0.0,0.0,0.0,0.0,0.0,0.0,0.0,0.0,0.0,0.0,0.0,0.0,0.0,0.0,0.0,0.0,0.0,0.0,0.0,0.0,0.0,0.0,0.0,0.0,0.0,0.0,0.0,0.0,0.0,0.0,0.0,0.0,0.0,0.0,0.0,0.0,0.0,0.0,0.0,0.0,0.0,0.0,0.0,0.0,0.0,0.0,0.0,0.0,0.0,0.0,0.0,0.0,0.0,0.0,0.0,0.0,0.0,0.0,0.0,0.0,0.0,0.0,0.0,0.0,0.0,0.0,0.0,0.0,0.0,0.0,0.0,0.0,0.0,0.0,0.0,0.0,0.0,0.0,0.0,0.0,0.0,0.0,0.0,0.0,0.0,0.0,0.8547,0.7883,0.7535,0.7642,0.6777,0.5507,0.3814,0.0,0.0,0.0,0.0,0.0,0.0,0.0,0.0,0.0,0.0,0.0,0.0,0.0,0.0,0.0,0.0,0.0,0.0,0.0,0.0,0.0,0.0,0.0,0.0,0.0,0.0,0.0,0.0,0.0,0.0,0.0,0.0,0.0,0.0,0.0,0.0,0.0,0.0,0.0,0.0,0.0,0.0,0.0,0.0,0.0,0.0,0.0,0.0,0.0,0.0,0.0,0.0,0.0,0.0,0.0,0.0,0.0,0.0,0.0,0.0,0.0,0.0,0.0,0.0,0.0,0.0,0.0,0.0,0.0,0.0,0.0,0.0,0.0,0.0,0.0,0.0,0.0,0.0,0.0,0.0,0.0,0.0,0.0,0.0,0.0,0.0,0.0,0.0,0.0,0.0,0.0,0.0,0.0,0.0,0.0,0.0,0.0,0.0,0.0,0.0,0.0,0.0,0.0,0.0,0.0,0.0,0.0,0.0,1.4869,1.4132,1.3322,1.2354,1.1518,0.9104,0.0,0.0,0.0,0.0,0.0,0.0,0.0,0.0,0.0,0.0,0.0,0.0,0.0,0.0,0.0,0.0,0.0,0.0,0.0,0.0,0.0,0.0,0.0,0.0,0.0,0.0,0.0,0.0,0.0,0.0,0.0,0.0,0.0,0.0,0.0,0.0,0.0,0.0,0.0,0.0,0.0,0.0,0.0,0.0,0.0,0.0,0.0,0.0,0.0,0.0,0.0,0.0,0.0,0.0,0.0,0.0,0.0,0.0,0.0,0.0,0.0,0.0,0.0,0.0,0.0,0.0,0.0,0.0,0.0,0.0,0.0,0.0,0.0,0.0,0.0,0.0,0.0,0.0,0.0,0.0,0.0,0.0,0.0,0.0,0.0,0.0,0.0,0.0,0.0,0.0,0.0,0.0,0.0,0.0,0.0,0.0,0.0,0.0,0.0,0.0,0.0,0.0,0.0,0.0,0.0,0.0,0.0,0.0,0.0,1.9548,2.2471,2.1935,1.7698,1.3867,1.0893,0.0,0.0,0.0,0.0,0.0,0.0,0.0,0.0,0.0,0.0,0.0,0.0,0.0,0.0,0.0,0.0,0.0,0.0,0.0,0.0,0.0,0.0,0.0,0.0,0.0,0.0,0.0,0.0,0.0,0.0,0.0,0.0,0.0,0.0,0.0,0.0,0.0,0.0,0.0,0.0,0.0,0.0,0.0,0.0,0.0,0.0,0.0,0.0,0.0,0.0,0.0,0.0,0.0,0.0,0.0,0.0,0.0,0.0,0.0,0.0,0.0,0.0,0.0,0.0,0.0,0.0,0.0,0.0,0.0,0.0,0.0,0.0,0.0,0.0,0.0,0.0,0.0,0.0,0.0,0.0,0.0,0.0,0.0,0.0,0.0,0.0,0.0,0.0,0.0,0.0,0.0,0.0,0.0,0.0,0.0,0.0,0.0,0.0,0.0,0.0,0.0,0.0,0.0,0.0,0.0,0.0,0.0,0.0,1.841,2.2298,2.7735,2.8902,2.5491,1.8985,1.414,0.0,0.0,0.0,0.0,0.0,0.0,0.0,0.0,0.0,0.0,0.0,0.0,0.0,0.0,0.0,0.0,0.0,0.0,0.0,0.0,0.0,0.0,0.0,0.0,0.0,0.0,0.0,0.0,0.0,0.0,0.0,0.0,0.0,0.0,0.0,0.0,0.0,0.0,0.0,0.0,0.0,0.0,0.0,0.0,0.0,0.0,0.0,0.0,0.0,0.0,0.0,0.0,0.0,0.0,0.0,0.0,0.0,0.0,0.0,0.0,0.0,0.0,0.0,0.0,0.0,0.0,0.0,0.0,0.0,0.0,0.0,0.0,0.0,0.0,0.0,0.0,0.0,0.0,0.0,0.0,0.0,0.0,0.0,0.0,0.0,0.0,0.0,0.0,0.0,0.0,0.0,0.0,0.0,0.0,0.0,0.0,0.0,0.0,0.0,0.0,0.0,0.0,0.0,0.0,0.0,0.0,0.0,0.0,2.1716,2.4252,3.083,3.4079,3.3344,2.4966,1.7989,0.0,0.0,0.0,0.0,0.0,0.0,0.0,0.0,0.0,0.0,0.0,0.0,0.0,0.0,0.0,0.0,0.0,0.0,0.0,0.0,0.0,0.0,0.0,0.0,0.0,0.0,0.0,0.0,0.0,0.0,0.0,0.0,0.0,0.0,0.0,0.0,0.0,0.0,0.0,0.0,0.0,0.0,0.0,0.0,0.0,0.0,0.0,0.0,0.0,0.0,0.0,0.0,0.0,0.0,0.0,0.0,0.0,0.0,0.0,0.0,0.0,0.0,0.0,0.0,0.0,0.0,0.0,0.0,0.0,0.0,0.0,0.0,0.0,0.0,0.0,0.0,0.0,0.0,0.0,0.0,0.0,0.0,0.0,0.0,0.0,0.0,0.0,0.0,0.0,0.0,0.0,0.0,0.0,0.0,0.0,0.0,0.0,0.0,0.0,0.0,0.0,0.0,0.0,0.0,0.0,0.0,0.0,0.0,2.3643,2.8851,3.3012,3.4999,3.4646,2.5894,1.981,0.0,0.0,0.0,0.0,0.0,0.0,0.0,0.0,0.0,0.0,0.0,0.0,0.0,0.0,0.0,0.0,0.0,0.0,0.0,0.0,0.0,0.0,0.0,0.0,0.0,0.0,0.0,0.0,0.0,0.0,0.0,0.0,0.0,0.0,0.0,0.0,0.0,0.0,0.0,0.0,0.0,0.0,0.0,0.0,0.0,0.0,0.0,0.0,0.8462,0.0,0.0,0.0,0.0,0.0,0.0,0.0,0.0,0.0,0.0,0.0,0.0,0.0,0.0,0.0,0.0,0.0,0.0,0.0,0.0,0.0,0.0,0.0,0.0,0.0,0.0,0.0,0.0,0.0,0.0,0.0,0.0,0.0,0.0,0.0,0.0,0.0,0.0,0.0,0.0,0.0,0.0,0.0,0.0,0.0,0.0,0.0,0.0,0.0,0.0,0.0,0.0,0.0,0.0,0.0,0.0,0.0,0.0,0.0,2.5203,3.0543,3.414,3.5724,3.4967,2.8325,2.277,0.0,0.0,0.0,0.0,0.0,0.0,0.0,0.0,0.0,0.0,0.0,0.0,0.0,0.0,0.0,0.0,0.0,0.0,0.0,0.0,0.0,0.0,0.0,0.0,0.0,0.0,0.0,0.0,0.0,0.0,0.0,0.0,0.0,0.0,0.0,0.0,0.0,0.0,0.0,0.0,0.0,0.0,0.0,0.0,0.0,0.0,0.0,0.0,0.0,0.0,0.0,0.0,0.0,0.0,0.0,0.0,0.0,0.0,0.0,0.0,0.0,0.0,0.0,0.0,0.0,0.0,0.0,0.0,0.0,0.0,0.0,0.0,0.0,0.0,0.0,0.0,0.0,0.0,0.0,0.0,0.0,0.0,0.0,0.0,0.0,0.0,0.0,0.0,0.0,0.0,0.0,0.0,0.0,0.0,0.0,0.0,0.0,0.0,0.0,0.0,0.0,0.0,0.0,0.0,0.0,0.0,0.0,2.1294,2.6688,3.178,3.5065,3.6352,3.5531,3.0854,2.5517,0.0,0.0,0.0,0.0,0.0,0.0,0.0,0.0,0.0,0.0,0.0,0.0,0.0,0.0,0.0,0.0,0.0,0.0,0.0,0.0,0.0,0.0,0.0,0.0,0.0,0.0,0.0,0.0,0.0,0.0,0.0,0.0,0.0,0.0,0.0,0.0,0.0,0.0,0.0,0.2706,0.4924,0.0,0.0,0.0,0.0,0.0,0.0,0.0,0.0,0.7647,0.0,0.0,0.0,0.0,0.0,0.0,0.0,0.0,0.0,0.0,0.0,0.0,0.0,0.0,0.0,0.0,0.0,0.0,0.0,0.0,0.0,0.0,0.0,0.0,0.0,0.0,0.0,0.0,0.0,0.0,0.0,0.0,0.0,0.0,0.0,0.0,0.0,0.0,0.0,0.0,0.0,0.0,0.0,0.0,0.0,0.0,0.0,0.0,0.0,0.0,0.0,0.0,0.0,0.0,0.0,0.0,2.0008,2.3305,2.8524,3.5789,3.6828,3.6996,3.6288,3.1185,2.5742,2.0167,0.0,0.0,0.0,0.0,0.0,0.0,0.0,0.0,0.0,0.0,0.0,0.0,0.0,0.0,0.0,0.0,0.0,0.0,0.0,0.0,0.0,0.0,0.0,0.0,0.0,0.0,0.0,0.0,0.0,0.0,0.0,0.0,0.0,0.0,0.0,0.0,0.0,0.0,0.0,1.4456,1.802,0.0,0.0,0.0,0.0,0.0,0.0,0.0,0.0,0.9948,0.0,0.0,0.0,0.0,0.0,0.0,0.0,0.0,0.0,0.0,0.0,0.0,0.0,0.0,0.0,0.0,0.0,0.0,0.0,0.0,0.0,0.0,0.0,0.0,0.0,0.0,0.0,0.0,0.0,0.0,0.0,0.0,0.0,0.0,0.0,0.0,0.0,0.0,0.0,0.0,0.0,0.0,0.0,0.0,0.0,0.0,0.0,0.0,0.0,0.0,0.0,0.0,0.0,0.0,0.0,2.1409,2.5998,3.1099,3.677,3.7536,3.737,3.6327,3.1339,2.581,0.0,0.0,0.0,0.0,0.0,0.0,0.0,0.0,0.0,0.0,0.0,0.0,0.0,0.0,0.0,0.0,0.0,0.0,0.0,0.0,0.0,0.0,0.0,0.0,0.0,0.0,0.0,0.0,0.0,0.0,0.0,0.0,0.0,0.0,0.0,0.0,0.0,0.0,0.0,0.0,1.7737,2.2413,0.5428,0.0,0.0,0.0,0.0,0.0,0.0,1.1077,1.0393,0.0,0.0,0.0,0.0,0.0,0.0,0.0,0.0,0.0,0.0,0.0,0.0,0.0,0.0,0.0,0.0,0.0,0.0,0.0,0.0,0.0,0.0,0.0,0.0,0.0,0.0,0.0,0.0,0.0,0.0,0.0,0.0,0.0,0.0,0.0,0.0,0.0,0.0,0.0,0.0,0.0,0.0,0.0,0.0,0.0,0.0,0.0,0.0,0.0,0.0,0.0,0.0,0.0,0.0,0.0,2.2399,2.8241,3.3209,3.7114,3.7902,3.7636,3.6372,3.0829,2.5227,0.0,0.0,0.0,0.0,0.0,0.0,0.0,0.0,0.0,0.0,0.0,0.0,0.0,0.0,0.0,0.0,0.0,0.0,0.0,0.0,0.0,0.0,0.0,0.0,0.0,0.0,0.0,0.0,0.0,0.0,0.0,0.0,0.0,0.0,0.0,0.0,0.0,0.0,0.0,0.0,0.0,2.0821,1.0227,0.8601,0.0,0.0,0.0,0.0,1.2529,1.2339,0.0,0.0,0.0,0.0,0.0,0.0,0.0,0.0,0.0,0.0,0.0,0.0,0.0,0.0,0.0,0.0,0.0,0.0,0.0,0.0,0.0,0.0,0.0,0.0,0.0,0.0,0.0,0.0,0.0,0.0,0.0,0.0,0.0,0.0,0.0,0.0,0.0,0.0,0.0,0.0,0.0,0.0,0.0,0.0,0.0,0.0,0.0,0.0,0.0,0.0,0.0,0.0,0.0,0.0,0.0,0.0,2.3844,2.8837,3.3657,3.8128,3.8293,3.7902,3.7168,2.8896,2.3106,0.0,0.0,0.0,0.0,0.0,0.0,0.0,0.0,0.0,0.0,0.0,0.0,0.0,0.0,0.0,0.0,0.0,0.0,0.0,0.0,0.0,0.0,0.0,0.0,0.0,0.0,0.0,0.0,0.0,0.0,0.0,0.0,0.0,0.0,0.0,0.0,0.0,0.0,0.0,0.0,0.0,1.1405,2.5157,2.7079,2.1433,0.0,0.0,0.0,1.9441,2.0921,0.0,0.0,0.0,0.0,0.0,0.0,0.0,0.0,0.0,0.0,0.0,0.0,0.0,0.0,0.0,0.0,0.0,0.0,0.0,0.0,0.0,0.0,0.0,0.0,0.0,0.0,0.0,0.0,0.0,0.0,0.0,0.0,0.0,0.0,0.0,0.0,0.0,0.0,0.0,0.0,0.0,0.0,0.0,0.0,0.0,0.0,0.0,0.0,0.0,0.0,0.0,0.0,0.0,0.0,0.0,0.0,2.4408,3.1098,3.5792,3.8277,3.8522,3.8144,3.7182,2.8921,2.3107,0.0,0.0,0.0,0.0,0.0,0.0,0.0,0.0,0.0,0.0,0.0,0.0,0.0,0.0,0.0,0.0,0.0,0.0,0.0,0.0,0.0,0.0,0.0,0.0,0.0,0.0,0.0,0.0,0.0,0.0,0.0,0.0,0.0,0.0,0.0,0.0,0.0,0.0,0.0,0.0,0.0,0.0,2.77,3.0216,0.0,0.0,0.0,1.7697,2.0685,0.0,0.0,0.0,0.0,0.0,0.0,0.0,0.0,0.0,0.0,0.0,0.0,0.0,0.0,0.0,0.0,0.0,0.0,0.0,0.0,0.0,0.0,0.0,0.0,0.0,0.0,0.0,0.0,0.0,0.0,0.0,0.0,0.0,0.0,0.0,0.0,0.0,0.0,0.0,0.0,0.0,0.0,0.0,0.0,0.0,0.0,0.0,0.0,0.0,0.0,0.0,0.0,0.0,0.0,0.0,0.0,0.0,2.4859,3.271,3.7318,3.8345,3.8659,3.8277,3.7016,2.9908,0.0,0.0,0.0,0.0,0.0,0.0,0.0,0.0,0.0,0.0,0.0,0.0,0.0,0.0,0.0,0.0,0.0,0.0,0.0,0.0,0.0,0.0,0.0,0.0,0.0,0.0,0.0,0.0,0.0,0.0,0.0,0.0,0.0,0.0,0.0,0.0,0.0,0.0,0.0,0.0,0.0,0.0,0.9687,2.7696,3.0208,2.3793,0.0,0.0,1.8575,2.2807,2.4374,2.237,0.0,0.0,0.0,0.0,0.0,0.0,0.0,0.0,0.0,0.0,0.0,0.0,0.0,0.0,0.0,0.0,0.0,0.0,0.0,0.0,0.0,0.0,0.0,0.0,0.0,0.0,0.0,0.0,0.0,0.0,0.0,0.0,0.0,0.0,0.0,0.0,0.0,0.0,0.0,0.0,0.0,0.0,0.0,0.0,0.0,0.0,0.0,0.0,0.0,0.0,0.0,0.0,0.0,0.0,0.0,2.5725,3.263,3.711,3.8759,3.8704,3.8228,3.732,3.1889,2.6477,0.0,0.0,0.0,0.0,0.0,0.0,0.0,0.0,0.0,0.0,0.0,0.0,0.0,0.0,0.0,0.0,0.0,0.0,0.0,0.0,0.0,0.0,0.0,0.0,0.0,0.0,0.0,0.0,0.0,0.0,0.0,0.0,0.0,0.0,0.0,0.0,0.0,0.0,0.0,0.0,0.0,0.9685,2.768,3.022,2.3782,0.0,0.0,2.0837,2.8381,2.96,2.7135,1.9421,0.0,0.0,0.0,0.0,0.0,0.0,0.0,0.0,0.0,0.0,0.0,0.0,0.0,0.0,0.0,0.0,0.0,0.0,0.0,0.0,0.0,0.0,0.0,0.0,0.0,0.0,0.0,0.0,0.0,0.0,0.0,0.0,0.0,0.0,0.0,0.0,0.0,0.0,0.0,0.0,0.0,0.0,0.0,0.0,0.0,0.0,0.0,0.0,0.0,0.0,0.0,0.0,0.0,2.2565,2.5495,3.2701,3.7113,3.8402,3.8398,3.7906,3.6932,3.2074,2.6952,0.0,0.0,0.0,0.0,0.0,0.0,0.0,0.0,0.0,0.0,0.0,0.0,0.0,0.0,0.0,0.0,0.0,0.0,0.0,0.0,0.0,0.0,0.0,0.0,0.0,0.0,0.0,0.0,1.4295,1.9238,1.8628,0.0,0.0,0.0,0.0,0.0,0.0,0.0,0.0,0.0,0.0,1.412,2.8216,3.0211,0.0,0.0,1.6878,2.5412,2.4901,2.6304,2.5026,1.8049,1.8299,0.0,0.0,0.0,0.0,0.0,0.0,0.0,0.0,0.0,0.0,0.0,0.0,0.0,0.0,0.0,0.0,0.0,0.0,0.0,0.0,0.0,0.0,0.0,0.0,0.0,0.0,0.0,0.0,0.0,0.0,0.0,0.0,0.0,0.0,0.0,0.0,0.0,0.0,0.0,0.0,0.0,0.0,0.0,0.0,0.0,0.0,0.0,0.0,0.0,0.0,0.0,0.0,2.2912,2.5376,3.2697,3.7008,3.8059,3.814,3.766,3.6439,3.283,2.8474,0.0,0.0,0.0,0.0,0.0,0.0,0.0,0.0,0.0,0.0,0.0,0.0,0.0,0.0,0.0,0.0,0.0,0.0,0.0,0.0,0.0,0.0,0.0,0.0,0.0,0.0,0.0,0.0,1.3359,1.4513,1.2197,0.0,0.0,0.0,0.0,0.0,0.0,0.0,0.0,0.0,0.0,1.8929,2.9162,3.0679,2.6659,1.543,2.1585,2.6152,2.2035,2.3107,2.2755,1.7937,0.0,0.0,0.0,0.0,0.0,0.0,0.0,0.0,0.0,0.0,0.0,0.0,0.0,0.0,0.0,0.0,0.0,0.0,0.0,0.0,0.0,0.0,0.0,0.0,0.0,0.0,0.0,0.0,0.0,0.0,0.0,0.0,0.0,0.0,0.0,0.0,0.0,0.0,0.0,0.0,0.0,0.0,0.0,0.0,0.0,0.0,0.0,0.0,0.0,0.0,0.0,0.0,0.0,0.0,2.5555,3.2563,3.6714,3.7769,3.8043,3.7524,3.6219,3.4561,3.1507,2.6798,0.0,0.0,0.0,0.0,0.0,0.0,0.0,0.0,0.0,0.0,0.0,0.0,0.0,0.0,0.0,0.0,0.0,0.0,0.0,0.0,0.0,0.0,0.0,0.0,0.0,0.0,1.6049,1.1397,0.8916,0.0,0.0,0.0,0.0,0.0,0.0,0.0,0.0,0.0,0.0,1.4,2.3567,3.0672,3.1676,3.0656,2.906,2.4821,2.1526,2.1073,2.1281,2.1197,0.0,0.0,0.0,0.0,0.0,0.0,0.0,0.0,0.0,0.0,0.0,0.0,0.0,0.0,0.0,0.0,0.0,0.0,0.0,0.0,0.0,0.0,0.0,0.0,0.0,0.0,0.0,0.0,0.0,0.0,0.0,0.0,0.0,0.0,0.0,0.0,0.0,0.0,0.0,0.0,1.9168,1.9288,0.0,0.0,0.0,0.0,0.0,0.0,0.0,0.0,0.0,0.0,0.0,0.0,2.3594,2.5944,3.2291,3.618,3.7222,3.7173,3.6654,3.5685,3.4284,3.1093,2.5944,0.0,0.0,0.0,0.0,0.0,0.0,0.0,0.0,0.0,0.0,0.0,0.0,0.0,0.0,0.0,0.0,0.0,0.0,0.0,0.0,0.0,0.0,0.0,0.0,0.0,1.3724,0.0,0.0,0.0,0.0,0.0,0.0,0.0,0.0,0.0,0.0,0.0,1.2859,1.3388,1.583,2.0738,2.951,2.7214,2.2728,0.0,0.0,0.0,0.0,0.0,0.0,0.0,0.0,0.0,0.0,0.0,0.0,0.0,0.0,1.2277,1.6846,1.6193,1.5116,1.5761,0.0,0.0,0.0,0.0,0.0,0.0,0.0,0.0,0.0,0.0,0.0,0.0,0.0,0.0,0.0,0.0,1.8904,0.0,0.0,0.0,0.0,0.0,0.0,0.0,0.0,2.0297,2.1758,2.2648,2.2732,2.2795,0.0,2.2152,1.9961,0.0,0.0,0.0,0.0,0.0,0.0,0.0,0.0,2.4147,2.6097,3.2267,3.5962,3.6799,3.6694,3.6171,3.5277,3.3694,3.1025,2.7203,2.3545,2.0375,0.0,0.0,0.0,0.0,0.0,0.0,0.0,0.0,0.0,0.0,0.0,0.0,0.0,0.0,0.0,0.0,0.0,0.0,0.0,0.0,0.0,0.0,0.0,1.3443,0.0,0.0,0.0,0.0,0.0,0.0,0.0,0.0,0.0,1.1987,1.4125,1.561,1.5365,1.7575,2.0429,2.3705,0.0,0.0,0.0,0.0,0.0,0.0,0.0,1.6497,1.5548,1.6859,1.9414,2.3398,2.0966,1.8464,1.8468,0.0,0.0,2.3394,2.2972,2.1591,2.0103,1.9762,1.9686,1.9698,1.6503,1.3625,0.0,0.0,0.0,0.0,0.0,0.0,0.0,0.0,2.2263,2.1011,0.0,0.0,0.0,0.0,0.0,0.0,0.0,0.0,0.0,0.0,2.7077,2.8554,2.6004,2.6378,2.6626,2.647,2.4054,2.2814,2.2678,2.2059,0.0,0.0,0.0,0.0,0.0,0.0,2.4816,2.6258,3.2502,3.6065,3.6585,3.6585,3.6053,3.4953,3.2919,3.1418,3.0521,2.7359,2.5332,2.4633,1.8479,0.0,0.0,0.0,0.0,0.0,0.0,0.0,0.0,0.0,0.0,0.0,0.0,0.0,0.0,0.0,0.0,0.0,0.0,0.0,0.0,1.2496,0.0,0.0,0.0,0.0,0.0,0.0,0.0,0.0,0.0,0.0,1.3532,1.6957,1.7496,1.1678,0.0,0.0,0.0,0.0,1.847,1.0951,1.6425,1.9418,1.3768,1.5281,1.812,2.0844,0.0,0.0,2.8132,3.012,2.98,3.007,2.9576,3.0181,3.0004,2.9781,2.8009,2.2563,2.145,2.1201,2.1177,2.132,2.0988,2.3535,0.0,0.0,0.0,0.0,2.1081,2.257,2.4998,2.5049,2.4666,2.4045,2.47,0.0,0.0,0.0,0.0,0.0,0.0,2.2197,2.4408,2.639,2.7963,2.9194,2.9536,2.96,2.9398,2.8658,2.8185,2.8002,2.7786,2.4335,1.7836,0.0,0.0,0.0,0.0,2.5922,2.922,3.3383,3.5869,3.6569,3.6219,3.5337,3.3914,3.2533,3.1517,3.0902,2.9579,2.7736,2.5366,2.311,0.0,0.0,0.0,0.0,0.0,0.0,0.0,0.0,0.0,0.0,0.0,0.0,0.0,0.0,0.0,0.0,0.0,0.0,0.0,1.5147,2.0535,2.0667,0.0,0.0,0.0,0.0,0.0,0.0,0.0,0.0,0.0,1.812,1.7863,1.7689,0.0,0.0,1.8727,2.4425,1.9632,1.4554,1.2311,0.0,0.0,0.0,1.9528,2.0282,2.1129,1.9775,2.1229,2.89,3.0211,3.0212,3.0224,3.0216,3.0301,3.0661,3.0452,2.9558,2.7898,2.7651,2.78,2.7786,2.7661,2.7454,2.8244,2.5998,2.3734,2.3335,2.4227,2.4203,2.5675,2.8113,2.8113,2.7492,2.6517,2.7511,2.5693,2.1887,2.1674,0.0,0.0,0.0,2.4681,2.7652,2.7924,2.9,3.0692,3.0926,3.0914,3.0769,3.0756,3.0671,3.049,2.9576,2.6667,2.1897,0.0,0.0,2.109,2.4603,2.7818,3.0661,3.3882,3.589,3.6573,3.5869,3.4818,3.344,3.2472,3.1675,3.1022,3.06,2.9436,2.7443,2.5898,2.3303,0.0,0.0,0.0,0.0,0.0,0.0,0.0,0.0,0.0,0.0,0.0,1.0151,0.0,0.0,0.0,0.0,1.6216,1.7136,1.7862,2.274,0.0,0.0,0.0,0.0,0.0,0.0,0.0,1.3649,1.7142,1.9886,2.0416,1.9562,1.9334,2.0663,1.883,1.8929,2.3033,0.0,1.9743,1.9769,2.2872,2.5186,2.4964,2.397,2.3545,2.4625,2.477,2.5839,2.9352,3.0203,3.0214,3.0212,3.0215,3.0446,3.1174,3.1036,3.0744,3.0566,3.0635,3.0744,3.0757,3.0619,3.0503,3.235,3.1415,2.637,2.5547,2.753,2.7579,2.889,3.102,3.1034,2.9597,2.7387,2.9602,2.7848,2.3156,2.264,0.0,0.0,2.6313,2.7962,3.0622,3.0889,3.1035,3.1035,3.1046,3.1046,3.1035,3.1022,3.1022,3.0883,2.8858,2.7673,2.7491,2.7294,2.6109,2.4251,2.7432,2.9751,3.0912,3.3908,3.5826,3.6497,3.553,3.4491,3.3442,3.2605,3.1795,3.1034,3.0721,3.0454,3.0125,2.7419,2.5715,2.5151,0.0,0.0,0.0,0.0,0.0,0.0,0.0,0.0,0.0,0.0,0.0,0.0,0.0,0.0,0.0,2.0276,0.0,2.1747,2.1034,0.0,0.0,0.0,1.9068,1.6818,1.804,1.9302,2.0003,0.0,0.0,0.0,0.0,2.2176,2.2255,2.3164,2.1691,1.5866,2.2864,2.9128,2.9364,3.0572,3.081,2.9868,2.8049,2.7276,2.9245,3.0214,2.9975,3.0151,3.0214,3.0214,3.0211,3.0201,3.0545,3.1607,3.174,3.1654,3.1149,3.1046,3.1009,3.1021,3.1043,3.1066,3.2881,3.2306,3.0981,3.0544,3.0708,3.0696,3.1057,3.159,3.1398,3.0917,3.0334,3.073,3.0076,2.8658,2.8544,2.8804,2.9401,2.9692,3.0213,3.0901,3.1179,3.13,3.1313,3.1517,3.1492,3.1313,3.13,3.1191,3.0972,3.0432,2.9253,2.7595,2.7743,2.6707,2.4573,2.5939,2.808,3.0861,3.2179,3.3851,3.5875,3.5352,3.4479,3.3428,3.2424,3.1614,3.101,3.0552,3.0261,3.0188,2.9491,2.798,2.5536,2.1492,0.0,0.0,0.0,0.0,0.0,0.0,0.0,0.0,0.0,1.2189,1.0929,0.0,1.5326,0.0,2.1079,2.4147,2.4356,2.219,0.0,0.0,2.1371,2.7346,2.6736,2.4912,2.2943,2.0972,2.2969,2.4548,2.457,2.4961,2.6109,2.8266,2.3976,2.2168,2.6408,2.1224,2.0974,2.9377,3.1498,3.1558,3.1329,3.0428,2.9665,3.0123,3.0214,3.0214,3.0214,3.0214,3.0223,3.0212,3.0209,3.0627,3.1585,3.18,3.1773,3.1628,3.1458,3.1275,3.1247,3.1417,3.1607,3.3694,3.3318,3.3332,3.3076,3.265,3.2314,3.2157,3.2145,3.2001,3.1855,3.1722,3.1336,3.1022,3.0781,3.0781,3.0781,3.0805,3.1166,3.136,3.1384,3.176,3.1929,3.1941,3.1964,3.1904,3.1747,3.1625,3.1553,3.1541,3.1529,3.0928,2.9781,2.9999,2.9013,2.6935,2.631,2.7115,2.9277,3.1096,3.3242,3.5676,3.5168,3.3868,3.193,3.0975,2.9677,2.795,2.7539,2.7225,2.697,2.6948,2.6018,2.3939,2.065,1.7702,0.0,0.0,0.0,0.0,0.0,0.0,0.0,0.0,0.0,0.0,0.0,1.7746,0.0,2.2397,0.0,2.3691,2.2791,2.0388,1.5945,2.4249,3.0214,3.021,2.8586,2.6861,2.5289,2.6696,2.7787,2.7725,2.8016,2.8849,3.0756,2.7499,2.6553,3.023,2.5698,2.4241,3.0639,3.1799,3.1681,3.1487,3.0974,3.0503,3.0274,3.0214,3.0214,3.0214,3.0214,3.0211,3.0241,3.0579,3.1086,3.1672,3.1791,3.1807,3.1782,3.1686,3.1563,3.1538,3.1691,3.1803,3.4489,3.4262,3.4248,3.4115,3.3849,3.3112,3.2774,3.2716,3.2652,3.2495,3.2217,3.1736,3.136,3.1168,3.1168,3.1155,3.1179,3.1674,3.1904,3.1926,3.2388,3.2592,3.2579,3.2362,3.2254,3.2242,3.2024,3.2011,3.2267,3.2267,3.2213,3.2169,3.2199,3.1233,2.9261,2.7363,2.6719,2.7422,3.0585,3.3224,3.5214,3.422,3.2292,2.9569,2.8744,2.6989,2.4147,2.3831,2.347,2.2921,2.2902,2.2747,2.2357,1.9188,1.7068,0.0,1.3214,0.0,0.0,0.0,0.0,0.0,0.0,0.0,0.0,2.0059,2.0809,2.1843,2.3885,2.4449,2.2752,2.3924,2.4047,2.2405,2.689,3.0205,3.0204,3.0214,3.0214,3.0214,3.0214,3.0214,3.01,3.043,3.0684,3.0859,3.109,3.1201,3.1753,3.1349,3.1136,3.1794,3.1794,3.1629,3.1206,3.0841,3.0563,3.0322,3.0225,3.0214,3.0214,3.0214,3.0212,3.0283,3.0874,3.154,3.1757,3.1794,3.1795,3.1794,3.1795,3.1769,3.1767,3.1782,3.1846,3.4757,3.4513,3.4528,3.4504,3.4419,3.4054,3.3644,3.3235,3.3016,3.2774,3.2509,3.2181,3.2012,3.1976,3.1964,3.1976,3.1988,3.2302,3.2447,3.246,3.2557,3.2592,3.2592,3.2543,3.2533,3.2521,3.2484,3.2484,3.2519,3.2519,3.1576,2.9797,3.01,2.9109,0.0,0.0,0.0,0.0,3.0812,3.2391,3.2534,2.9937,2.7975,2.6847,2.6012,0.0,2.3908,2.3612,2.325,2.2775,2.2838,0.0,0.0,0.0,0.0,0.0,0.0,0.0,0.0,0.0,0.0,0.0,1.9731,1.9715,2.0378,2.0615,2.1825,2.4433,2.5168,2.6305,2.8347,2.8829,2.8864,2.8569,2.9493,3.0219,3.0214,3.0214,3.0214,3.0214,3.0214,3.0214,3.0226,3.043,3.053,3.0448,3.1189,3.1764,3.176,3.1768,3.1795,3.1794,3.1795,3.1686,3.1373,3.1096,3.0804,3.0588,3.0322,3.0226,3.0214,3.0214,3.0205,3.0221,3.0359,3.0858,3.162,3.18,3.1794,3.1794,3.1794,3.1794,3.1806,3.1806,3.206,3.5434,0.0,3.5204,3.5033,0.0,3.4661,3.4214,3.3571,3.332,3.304,3.2773,3.2654,3.2519,3.2398,3.2412,3.24,3.2398,3.2678,3.2798,3.2811,3.2931,3.3006,3.298,3.2859,3.2798,3.2798,3.2652,3.2679,3.2773,3.2812,3.2325,3.1429,3.1624,3.1255,3.0399,3.1044,3.0929,2.9992,3.1359,3.2631,3.3681,3.1731,2.9768,2.806,0.0,0.0,0.0,0.0,0.0,0.0,0.0,0.0,0.0,0.0,0.0,2.2922,2.1226,2.096,2.2689,2.2645,2.3333,2.5132,2.5342,2.4723,2.3205,2.4406,2.5967,2.7626,2.7706,2.8317,2.9977,3.0214,3.0214,3.0214,3.0214,3.0214,3.0214,3.0214,3.0214,3.0214,3.0214,3.0214,3.0214,3.0297,3.035,3.0257,3.087,3.1314,3.1117,3.1469,3.1798,3.1801,3.1801,3.171,3.1433,3.118,3.0901,3.0648,3.037,3.0238,3.0214,3.0214,3.0207,3.0247,3.0618,3.1195,3.1624,3.1802,3.1794,3.1794,3.1794,3.1794,3.1792,3.18,3.2125,3.615,3.5941,3.5893,3.5591,3.5147,3.5098,3.4588,3.3789,0.0,0.0,0.0,3.3078,3.2943,3.2724,3.2738,3.2724,3.275,3.2968,3.3064,3.3076,3.3295,3.3378,3.3392,3.3175,3.3078,3.3052,3.2861,3.2859,3.3064,3.3099,3.3366,3.3762,3.3883,3.4211,3.4757,3.5479,3.4821,3.2736,3.2113,3.2862,3.4909,3.3663,3.1797,2.9367,2.8445,2.6759,2.4214,2.3691,2.3314,2.2962,2.2912,2.2827,2.2632,2.2534,2.2446,2.2387,2.2271,2.3366,2.5952,2.6152,2.7329,3.0027,3.0214,2.9095,2.6527,2.8491,2.9948,3.0176,3.0008,2.9948,3.0177,3.0214,3.0214,3.0214,3.0214,3.0214,3.0214,3.0214,3.0214,3.0214,3.0214,3.0214,3.0214,3.0226,3.0221,3.0247,3.0576,3.0728,3.0419,3.0924,3.1507,3.175,3.1801,3.1716,3.1494,3.1191,3.0926,3.0746,3.0405,3.0213,3.0214,3.0214,3.0208,3.0212,3.1072,3.1664,3.1788,3.1794,3.1807,3.1794,3.1794,3.1794,3.1804,3.1803,3.207,3.6509,3.6476,3.6231,3.5962,3.566,3.5446,3.4755,3.3801,3.3525,3.3394,3.3344,3.3344,3.3318,3.3295,3.3269,3.3295,3.3281,3.3318,3.3344,0.0,3.338,3.3378,3.3378,3.337,3.3344,3.3358,3.3308,3.3308,3.3368,3.3585,3.374,3.3847,3.426,3.4755,3.5286,3.5857,3.5953,3.5562,3.314,3.1953,3.2046,2.9487,2.7757,2.6999,2.6448,2.5573,2.4576,2.4088,2.3543,2.3096,2.2971,2.3785,2.57,2.5805,2.6723,2.8666,2.8842,2.9038,2.9445,2.9519,2.9704,3.0139,3.0214,2.9989,2.9627,2.9903,3.0165,3.0201,3.0153,3.0153,3.0201,3.0214,3.0214,3.0214,3.0214,3.0214,3.0214,3.0214,3.0214,3.0214,3.0214,3.0214,3.0214,3.0214,3.0209,3.0211,3.0329,3.0297,3.0265,3.0324,3.0812,3.1547,3.18,3.1778,3.1666,3.1299,3.1021,3.0963,3.0514,3.0212,3.0214,3.0212,3.0216,3.0224,3.109,3.171,3.1797,3.1809,3.1794,3.1794,3.1794,3.1794,3.1794,3.18,3.1888,3.6726,3.6597,3.6476,3.6271,3.5977,3.5422,3.483,3.4223,3.3946,3.367,3.3404,3.3378,3.3378,3.3378,3.3378,3.3378,3.3404,3.3561,3.3622,3.362,3.3765,3.3825,3.3839,3.3825,3.3825,3.3839,3.3825,3.3825,3.3851,3.3958,3.4105,3.426,3.4767,3.5313,3.582,3.6074,3.6195,3.618,3.4899,3.4112,3.3814,3.2218,3.1175,3.0676,2.9985,2.9327,2.8746,2.8199,2.77,2.7195,2.7111,2.7515,2.8422,2.8497,2.9016,3.0113,3.0214,3.0214,3.0214,3.0214,3.0214,3.0214,3.0214,3.0214,3.0214,3.0214,3.0214,3.0214,3.0214,3.0214,3.0214,3.0214,3.0214,3.0214,3.0214,3.0214,3.0214,3.0214,3.0214,3.0214,3.0214,3.0214,3.0214,3.0214,3.0212,3.0218,3.0211,3.0211,3.0217,3.0228,3.0491,3.1195,3.1604,3.177,3.1784,3.1481,3.1179,3.1035,3.0544,3.0255,3.0223,3.0209,3.0206,3.027,3.1082,3.17,3.1799,3.1794,3.1794,3.1794,3.1794,3.1794,3.1806,3.1796,3.1997,3.6932,3.6706,3.6618,3.6437,3.615,3.547,3.4984,3.4685,3.4467,3.4103,3.3706,3.3622,3.3571,3.3585,3.3585,3.3585,3.361,3.3789,3.3897,3.3922,3.4103,3.4214,3.4214,3.4214,3.4214,3.4214,3.4214,3.4214,3.4211,3.4308,3.4537,3.489,3.5346,3.5796,3.6183,3.6255,3.6295,3.6295,3.6295,3.6098,3.5709,3.5301,3.4815,3.4298,3.3603,3.3016,3.2497,3.1905,3.1373,3.0889,3.0696,3.0503,3.0309,3.0224,3.0214,3.0214,3.0214,3.0214,3.0214,3.0214,3.0214,3.0214,3.0214,3.0214,3.0214,3.0214,3.0214,3.0214,3.0214,3.0214,3.0214,3.0214,3.0214,3.0214,3.0214,3.0214,3.0214,3.0214,3.0214,3.0214,3.0214,3.0214,3.0214,3.0214,3.0213,3.0213,3.0211,3.0217,3.0219,3.0352,3.0749,3.1096,3.1536,3.1777,3.1784,3.1506,3.1241,3.101,3.0555,3.0278,3.021,3.0215,3.039,3.0589,3.1229,3.1731,3.1801,3.1794,3.1794,3.1794,3.1794,3.1794,3.1806,3.18,3.2145,3.7198,3.6941,3.669,3.6452,3.6186,3.5857,3.5434,3.4999,3.4926,3.4784,3.4491,3.4238,3.4127,3.4127,3.4115,3.4117,3.4117,3.4151,3.4163,3.4163,3.4202,3.4214,3.4238,3.4238,3.4214,3.4236,3.4248,3.431,3.4334,3.4721,3.5165,3.5675,3.599,3.6147,3.6231,3.6452,3.6545,3.6561,3.6561,3.6195,3.5479,3.5383,3.512,3.4576,3.4248,3.3825,3.3271,3.2531,3.2,3.1661,3.0998,3.0587,3.0552,3.0346,3.0214,3.0214,3.0214,3.0214,3.0214,3.0214,3.0214,3.0214,3.0214,3.0214,3.0214,3.0214,3.0214,3.0214,3.0214,3.0214,3.0214,3.0214,3.0214,3.0214,3.0214,3.0214,3.0214,3.0214,3.0214,3.0214,3.0214,3.0214,3.0214,3.0214,3.0213,3.0212,3.0216,3.0282,3.0452,3.0998,3.1485,3.1663,3.1786,3.179,3.1738,3.1347,3.1107,3.0986,3.0562,3.0296,3.0234,3.0263,3.0453,3.1229,3.1616,3.178,3.179,3.1794,3.1794,3.1794,3.1794,3.1794,3.1804,3.1801,3.2201,3.7113,3.698,3.6702,3.6437,3.6195,3.6086,3.582,3.5494,3.547,3.541,3.5313,3.5192,3.489,3.4455,3.4443,3.4359,3.4211,3.4371,3.4429,3.4441,3.46,3.4687,3.467,3.4854,3.4912,3.4924,3.5057,3.5141,3.5177,3.5373,3.5678,3.6002,3.6162,3.6352,3.6642,3.6633,3.6681,3.6823,3.6694,3.6352,3.5917,3.5724,3.547,3.5069,3.4658,3.4187,3.3656,3.3175,3.2581,3.1854,3.148,3.1095,3.0623,3.0503,3.0358,3.0238,3.0214,3.0214,3.0214,3.0214,3.0214,3.0214,3.0214,3.0214,3.0214,3.0214,3.0214,3.0214,3.0214,3.0214,3.0214,3.0214,3.0214,3.0214,3.0214,3.0214,3.0214,3.0214,3.0214,3.0214,3.0214,3.0214,3.0214,3.0214,3.021,3.0204,3.022,3.0415,3.1011,3.1537,3.1746,3.1799,3.1796,3.1793,3.1759,3.148,3.1203,3.1012,3.0824,3.0633,3.0263,3.0212,3.0565,3.1634,3.1773,3.1796,3.1809,3.1794,3.1794,3.1794,3.1794,3.1794,3.1794,3.1799,3.2059,3.7173,3.7077,3.6811,3.6545,3.6304,3.6319,3.6174,3.5929,3.5917,3.5902,3.5905,3.5917,3.5603,3.5069,3.4963,3.4818,3.467,3.4854,3.4938,3.4936,3.5132,3.5216,3.5241,3.5395,3.5503,3.554,3.57,3.5869,3.5999,3.6095,3.6267,3.6497,3.6533,3.6711,3.7037,3.6908,3.6871,3.698,3.6814,3.6585,3.6292,3.5977,3.5673,3.5398,3.4963,3.4491,3.4042,3.368,3.3125,3.229,3.1976,3.154,3.0986,3.0792,3.0587,3.0334,3.0237,3.0214,3.0214,3.0214,3.0214,3.0214,3.0214,3.0214,3.0226,3.0273,3.0309,3.0334,3.0357,3.0394,3.0213,3.0273,3.0285,3.0238,3.0214,3.0214,3.0214,3.0214,3.0214,3.0214,3.0214,3.0214,3.0214,3.0213,3.0209,3.0209,3.0481,3.0827,3.1588,3.1772,3.1799,3.1797,3.1807,3.1807,3.1769,3.1469,3.1241,3.1034,3.0859,3.0562,3.0354,3.0389,3.0705,3.1729,3.1771,3.1796,3.1807,3.1794,3.1794,3.1794,3.1794,3.1794,3.1794,3.1806,3.1804,3.7608,3.7339,3.7101,3.6835,3.6597,3.6597,3.6452,3.6231,3.6219,3.6195,3.6219,3.6219,3.6171,3.6098,3.5854,3.5748,3.5712,3.5697,3.5697,3.57,3.5736,3.576,3.5772,3.5784,3.5796,3.5781,3.5893,3.6122,3.6557,3.6799,3.7073,3.7306,3.7255,3.7331,3.7379,3.7331,3.7246,3.7077,3.6992,3.6847,3.6561,3.6089,3.5673,3.5434,3.5132,3.4818,3.4513,3.404,3.362,3.3306,3.235,3.1795,3.1673,3.124,3.0828,3.0575,3.0346,3.0213,3.0226,3.0225,3.025,3.0238,3.0273,3.0238,3.0297,3.0454,3.0588,3.0575,3.0793,3.0744,3.0358,3.0466,3.0466,3.0236,3.0213,3.0212,3.0214,3.0214,3.0214,3.0214,3.0214,3.0214,3.0214,3.0214,3.0218,3.0408,3.1035,3.1691,3.1725,3.1809,3.1811,3.1795,3.1794,3.1794,3.1745,3.1469,3.1156,3.0959,3.0735,3.034,3.0613,3.091,3.1423,3.1746,3.178,3.1808,3.1807,3.1794,3.1794,3.1794,3.1794,3.1794,3.1794,3.1794,3.1792,3.7645,3.7403,3.7294,3.7198,3.7113,3.7113,3.7053,3.6953,3.6968,3.6968,3.6968,3.6968,3.6968,3.6972,3.6871,3.653,3.6098,3.6234,3.6219,3.6059,3.6062,3.595,3.5832,3.5965,3.6062,3.6098,3.6412,3.6751,3.7077,3.7222,3.7306,3.7363,3.7375,3.7476,3.7596,3.7476,3.7427,3.7491,3.7198,3.6956,3.6814,3.6171,3.5733,3.5651,3.5228,3.4881,3.4612,3.425,3.3863,3.3402,3.2676,3.2157,3.1807,3.1288,3.089,3.0623,3.0515,3.0454,3.0454,3.0442,3.0539,3.0684,3.0721,3.0696,3.0733,3.0805,3.0853,3.0889,3.1095,3.1072,3.0854,3.0818,3.068,3.0311,3.0213,3.0205,3.0224,3.0214,3.0214,3.0214,3.0214,3.0214,3.0224,3.0219,3.0207,3.0304,3.1109,3.1688,3.1801,3.1811,3.1794,3.1794,3.1794,3.1794,3.1794,3.1517,3.1227,3.1036,3.0811,3.0646,3.0756,3.123,3.171,3.1761,3.1797,3.1795,3.1794,3.1794,3.1794,3.1794,3.1794,3.1794,3.1794,3.1803,3.1788,3.7781,3.7564,3.7524,3.7476,3.7403,3.7375,3.7375,3.7375,3.7375,3.7375,3.7375,3.7375,3.7375,3.7415,3.7472,3.7258,3.6751,3.6811,3.6751,3.6606,3.6582,3.6485,3.6376,3.6497,3.6582,3.6654,3.7041,3.737,3.7524,3.762,3.7645,3.7657,3.7657,3.7729,3.7862,3.7741,3.7717,3.7705,3.7355,3.7085,3.6944,3.6288,3.5893,3.5736,3.5277,3.4914,3.4733,3.4395,3.3994,3.3537,3.3016,3.2483,3.1964,3.1434,3.106,3.0877,3.0781,3.0733,3.072,3.0733,3.0805,3.0974,3.1011,3.1011,3.101,3.1096,3.1119,3.1179,3.1347,3.1433,3.1325,3.1264,3.1042,3.0548,3.0303,3.0221,3.0218,3.0211,3.0213,3.0225,3.0297,3.0322,3.032,3.0358,3.0418,3.0436,3.1262,3.1755,3.18,3.1794,3.1794,3.1794,3.1794,3.1794,3.1794,3.1626,3.1409,3.1232,3.1039,3.0896,3.097,3.1459,3.1751,3.1788,3.1794,3.1794,3.1794,3.1794,3.1794,3.1794,3.1794,3.1794,3.1803,3.1798,3.1829,3.8035,3.7818,3.7805,3.7669,3.7488,3.746,3.7411,3.7463,3.7451,3.7488,3.7496,3.7451,3.7488,3.7488,3.7721,3.7781,3.7673,3.7488,3.7382,3.7331,3.7343,3.7303,3.7286,3.7258,3.7294,3.7331,3.7633,3.7778,3.7802,3.8011,3.812,3.8168,3.8132,3.812,3.818,3.8132,3.8031,3.7802,3.7524,3.7258,3.698,3.6461,3.605,3.5769,3.5277,3.4975,3.4938,3.4441,3.4054,3.3789,3.3259,3.2738,3.2157,3.1662,3.1384,3.13,3.1144,3.101,3.0998,3.1023,3.101,3.1095,3.106,3.1095,3.1143,3.1276,3.1397,3.1446,3.1614,3.1757,3.1733,3.1721,3.1516,3.1057,3.0662,3.0415,3.0295,3.0243,3.0226,3.0273,3.0442,3.0587,3.0622,3.0675,3.0772,3.0963,3.1409,3.1805,3.1799,3.1794,3.1794,3.1794,3.1794,3.1794,3.1794,3.1769,3.1613,3.1441,3.1248,3.1104,3.1217,3.1564,3.1741,3.1794,3.1794,3.1794,3.1794,3.1794,3.1794,3.1794,3.1794,3.1794,3.1803,3.1819,3.1891,3.8156,3.8083,3.8071,3.8035,3.7963,3.795,3.7935,3.795,3.7963,3.795,3.7935,3.795,3.795,3.7947,3.8031,3.8071,3.8071,3.7987,3.7854,3.7693,3.7685,3.7572,3.7424,3.7387,3.75,3.7673,3.7741,3.7914,3.8059,3.8172,3.822,3.822,3.822,3.822,3.822,3.8204,3.8144,3.8047,3.7636,3.7355,3.721,3.6569,3.6089,3.5769,3.5289,3.4914,3.4721,3.4214,3.3994,3.4044,3.3209,3.2471,3.1999,3.1757,3.159,3.1435,3.1337,3.1264,3.1264,3.1289,3.1361,3.1493,3.1553,3.154,3.154,3.1614,3.1674,3.1674,3.1759,3.1794,3.1794,3.1794,3.1703,3.156,3.1412,3.1086,3.0801,3.0729,3.0659,3.0539,3.0708,3.084,3.0913,3.1003,3.1079,3.1069,3.1488,3.1789,3.1796,3.1794,3.1794,3.1794,3.1794,3.1794,3.1794,3.1794,3.1709,3.1625,3.1496,3.1367,3.148,3.1555,3.1731,3.1794,3.1794,3.1794,3.1794,3.1794,3.1794,3.1794,3.1794,3.1806,3.1804,3.1848,3.1903,3.822,3.822,3.822,3.822,3.822,3.822,3.822,3.822,3.822,3.822,3.8192,3.8192,3.822,3.822,3.822,3.822,3.822,3.822,3.8108,3.7975,3.795,3.7838,3.7721,3.7709,3.7781,3.7926,3.795,3.8035,3.8192,3.822,3.822,3.822,3.822,3.822,3.822,3.822,3.822,3.8132,3.7669,3.7375,3.7258,3.6718,3.6234,3.5917,3.5434,3.502,3.4733,3.4139,3.3871,3.3861,3.3112,3.2424,3.1975,3.1854,3.1709,3.159,3.1528,3.1541,3.1555,3.1541,3.1614,3.1757,3.1794,3.1794,3.1794,3.1794,3.1794,3.1794,3.1794,3.1794,3.1794,3.1794,3.1801,3.1788,3.1774,3.164,3.1317,3.1101,3.0938,3.0841,3.0986,3.1107,3.1191,3.1334,3.1425,3.1393,3.1593,3.1794,3.1794,3.1794,3.1794,3.1794,3.1794,3.1794,3.1794,3.1794,3.1794,3.1769,3.1744,3.168,3.1705,3.1705,3.1794,3.1794,3.1794,3.1794,3.1794,3.1794,3.1794,3.1794,3.1806,3.1866,3.1885,3.1831,3.1951,3.822,3.822,3.822,3.822,3.822,3.822,3.822,3.822,3.822,3.822,3.822,3.822,3.822,3.822,3.822,3.822,3.822,3.822,3.8192,3.8168,3.8168,3.8132,3.8124,3.8108,3.8136,3.8156,3.8168,3.8192,3.822,3.822,3.822,3.822,3.822,3.822,3.822,3.822,3.822,3.8132,3.7693,3.7451,3.7379,3.6896,3.6461,3.6183,3.57,3.5274,3.4902,3.426,3.3823,3.369,3.3052,3.2533,3.2229,3.1964,3.1795,3.1757,3.1795,3.1769,3.1782,3.1759,3.1783,3.1794,3.1794,3.1794,3.1794,3.1794,3.1794,3.1794,3.1794,3.1794,3.1794,3.1794,3.1795,3.1809,3.1799,3.1753,3.1744,3.1356,3.1134,3.1083,3.1253,3.1422,3.1434,3.1638,3.1721,3.1756,3.1782,3.1794,3.1794,3.1794,3.1794,3.1794,3.1794,3.1794,3.1794,3.1794,3.1794,3.1794,3.1794,3.1794,3.1794,3.1794,3.1794,3.1794,3.1794,3.1794,3.1794,3.1794,3.1794,3.1794,3.1854,3.195,3.1997,3.1968,3.2143,3.822,3.822,3.822,3.822,3.822,3.822,3.822,3.822,3.822,3.822,3.822,3.822,3.822,3.822,3.822,3.822,3.822,3.822,3.822,3.822,3.822,3.822,3.822,3.822,3.822,3.822,3.822,3.822,3.822,3.822,3.8204,3.822,3.8216,3.8216,3.822,3.8216,3.822,3.8168,3.7874,3.7588,3.7367,3.7077,3.6666,3.6222,3.5881,3.547,3.5011,3.4417,3.3885,3.3499,3.3137,3.2774,3.2509,3.2097,3.1842,3.1855,3.1819,3.1794,3.1794,3.1794,3.1794,3.1794,3.1794,3.1794,3.1794,3.1794,3.1794,3.1794,3.1794,3.1794,3.1794,3.1794,3.1794,3.1807,3.1802,3.1788,3.1763,3.1679,3.1516,3.136,3.1529,3.1638,3.1712,3.1735,3.1794,3.1794,3.1794,3.1794,3.1794,3.1794,3.1794,3.1794,3.1794,3.1794,3.1794,3.1794,3.1794,3.1794,3.1794,3.1794,3.1794,3.1794,3.1794,3.1794,3.1794,3.1794,3.1794,3.1794,3.1794,3.1867,3.2012,3.2156,3.2213,3.2249,3.2421,3.8377,3.8349,3.8241,3.822,3.822,3.822,3.822,3.822,3.822,3.822,3.822,3.822,3.822,3.822,3.822,3.822,3.822,3.822,3.822,3.822,3.822,3.822,3.822,3.822,3.822,3.822,3.8204,3.822,3.822,3.822,3.8253,3.8349,3.8361,3.8377,3.8374,3.8361,3.8301,3.818,3.7938,3.7669,3.7403,3.7122,3.6784,3.6388,3.6098,3.5688,3.5047,3.4574,3.4115,3.3668,3.3402,3.3223,3.2919,3.2423,3.2145,3.2134,3.194,3.1794,3.1794,3.1794,3.1794,3.1794,3.1794,3.1794,3.1794,3.1794,3.1794,3.1794,3.1794,3.1794,3.1794,3.1794,3.1794,3.1794,3.1794,3.18,3.1801,3.179,3.1722,3.1662,3.1698,3.1794,3.1794,3.1794,3.1794,3.1794,3.1794,3.1794,3.1794,3.1794,3.1794,3.1794,3.1794,3.1794,3.1794,3.1794,3.1794,3.1794,3.1794,3.1794,3.1794,3.1794,3.1794,3.1794,3.1794,3.1819,3.187,3.193,3.2014,3.2124,3.2255,3.2409,3.2517,3.2532,3.2715,3.8599,3.8567,3.8353,3.8216,3.8204,3.8228,3.8265,3.8253,3.8297,3.8309,3.8309,3.8265,3.8277,3.8257,3.8244,3.822,3.822,3.822,3.822,3.822,3.822,3.822,3.822,3.822,3.822,3.8216,3.8216,3.8265,3.8301,3.8301,3.8406,3.8563,3.8639,3.8627,3.8599,3.8591,3.8474,3.8281,3.8023,3.7753,3.7484,3.7218,3.6944,3.6654,3.6304,3.5845,3.5241,3.4784,3.4371,3.3907,3.3837,3.3644,3.3366,3.2931,3.2678,3.2555,3.2254,3.2024,3.1914,3.195,3.1914,3.1952,3.1926,3.1867,3.1904,3.1878,3.1854,3.1794,3.1794,3.1794,3.1794,3.1794,3.1794,3.1794,3.1794,3.1794,3.1794,3.1794,3.1794,3.1794,3.1794,3.1794,3.1794,3.1794,3.1794,3.1794,3.1794,3.1794,3.1794,3.1794,3.1794,3.1794,3.1794,3.1794,3.1794,3.1794,3.1794,3.1794,3.1794,3.1794,3.1794,3.1794,3.1794,3.1792,3.1799,3.1901,3.2047,3.2118,3.2222,3.2341,3.2484,3.2728,3.2952,3.2874,3.2966,3.8736,3.8595,3.8547,3.8386,3.8253,3.8426,3.8523,3.8535,3.8675,3.8703,3.8707,3.8587,3.8519,3.8494,3.8325,3.822,3.8228,3.8244,3.822,3.822,3.822,3.822,3.8204,3.8216,3.8216,3.8253,3.8422,3.8494,3.8531,3.8639,3.8776,3.8812,3.8868,3.8852,3.8828,3.872,3.8595,3.8486,3.8253,3.7975,3.7693,3.7451,3.7201,3.6908,3.6485,3.6065,3.5576,3.4963,3.4564,3.4356,3.4054,3.3825,3.3692,3.3402,3.3149,3.2968,3.2835,3.2641,3.2484,3.241,3.241,3.2412,3.2362,3.2338,3.2133,3.2083,3.1987,3.1854,3.1794,3.1794,3.1794,3.1794,3.1794,3.1794,3.1794,3.1794,3.1794,3.1794,3.1794,3.1794,3.1806,3.1806,3.1806,3.1854,3.1842,3.1806,3.1818,3.1806,3.1804,3.1803,3.1804,3.1803,3.1794,3.1794,3.1794,3.1792,3.179,3.1799,3.1798,3.1792,3.1806,3.1808,3.1804,3.1789,3.18,3.1969,3.2281,3.2341,3.2466,3.259,3.2726,3.3006,3.3198,3.3166,3.3307,3.8961,3.874,3.8651,3.8434,3.8265,3.847,3.8607,3.8639,3.8816,3.8904,3.8896,3.8768,3.8736,3.8712,3.8519,3.8386,3.8386,3.8386,3.8313,3.8265,3.8301,3.8313,3.8241,3.8325,3.8386,3.8426,3.8506,3.8623,3.8748,3.8876,3.894,3.9085,3.9101,3.9101,3.9085,3.8977,3.8817,3.8603,3.8458,3.8204,3.7842,3.7669,3.7467,3.7198,3.6799,3.6449,3.6147,3.5557,3.5023,3.4649,3.432,3.4163,3.4091,3.3813,3.3583,3.3573,3.3295,3.3163,3.2992,3.2859,3.2774,3.2798,3.269,3.2545,3.2388,3.229,3.2145,3.1987,3.1878,3.1794,3.1794,3.1794,3.1806,3.1794,3.1806,3.1806,3.1806,3.1794,3.1794,3.183,3.1928,3.1988,3.2012,3.2036,3.1944,3.1923,3.2216,3.2192,3.1811,3.1799,3.1796,3.1799,3.1804,3.1794,3.1794,3.1803,3.1798,3.1803,3.1808,3.1796,3.1798,3.1791,3.1796,3.1887,3.2045,3.2353,3.2612,3.2655,3.2718,3.2817,3.3004,3.3271,3.3505,3.362,3.3752,3.9181,3.888,3.8716,3.8482,3.8277,3.8514,3.8664,3.8684,3.8925,3.9085,3.9012,3.8988,3.8964,3.892,3.874,3.8664,3.8651,3.8639,3.8527,3.8349,3.847,3.8446,3.8374,3.8474,3.8639,3.8672,3.8744,3.8832,3.8944,3.9008,3.9205,3.9326,3.935,3.935,3.935,3.9294,3.9122,3.8817,3.8684,3.8458,3.8047,3.7886,3.7721,3.7367,3.7173,3.6911,3.6569,3.6074,3.5506,3.4794,3.4598,3.4537,3.4431,3.4175,3.3895,3.4103,3.3718,3.3537,3.344,3.332,3.3233,3.3161,3.3016,3.2857,3.2785,3.269,3.2545,3.2314,3.2181,3.2023,3.1975,3.1857,3.1897,3.1989,3.2031,3.1984,3.1907,3.1922,3.2048,3.1902,3.2036,3.2133,3.2266,3.2349,3.2185,3.2118,3.2415,3.2557,3.2175,3.184,3.1851,3.1947,3.1987,3.2094,3.2121,3.207,3.2026,3.1889,3.1878,3.2053,3.2087,3.2301,3.2415,3.2264,3.2409,3.2742,3.2982,3.3071,3.3111,3.3142,3.3294,3.3571,3.3823,3.4048,3.4183,3.9338,3.8904,3.8856,3.8603,3.8297,3.8663,3.8836,3.8932,3.9342,3.9559,3.9523,3.9326,3.9246,3.9174,3.8968,3.886,3.8824,3.8828,3.8724,3.8543,3.8603,3.8591,3.8531,3.8639,3.8812,3.9106,3.919,3.9222,3.9282,3.9451,3.9507,3.962,3.9644,3.9632,3.9591,3.9439,3.933,3.9146,3.8961,3.8699,3.8454,3.8225,3.7975,3.7572,3.7455,3.7234,3.6908,3.6437,3.5869,3.5301,3.4622,3.4344,3.4286,3.4177,3.4054,3.397,3.4032,3.396,3.3813,3.3897,3.3958,3.3982,3.3861,3.374,3.3606,3.3487,3.3173,3.2871,3.2654,3.2557,3.2761,3.2307,3.2218,3.2527,3.2859,3.2854,3.2506,3.2438,3.2509,3.2266,3.2266,3.2314,3.2509,3.2654,3.2601,3.2539,3.2676,3.2941,3.2876,3.2371,3.1985,3.2106,3.2239,3.2374,3.2495,3.2432,3.2363,3.212,3.2179,3.2622,3.2753,3.3052,3.3107,3.2836,3.2861,3.3158,3.3333,3.3453,3.3516,3.3561,3.3728,3.3897,3.4144,3.4364,3.446,3.9403,3.8916,3.8904,3.8707,3.8502,3.8756,3.8988,3.9174,3.9523,3.9704,3.9668,3.9555,3.9495,3.9439,3.9217,3.9049,3.8964,3.9077,3.8917,3.8712,3.8829,3.8804,3.8712,3.8812,3.9057,3.933,3.9547,3.962,3.9535,3.962,3.9772,3.9885,3.9909,3.997,4.003,3.9873,3.9656,3.9511,3.9258,3.8993,3.8784,3.8587,3.8341,3.8108,3.7866,3.7669,3.7367,3.6908,3.6304,3.5663,3.5105,3.4646,3.4344,3.4202,3.4153,3.4079,3.4236,3.4371,3.4236,3.4344,3.4383,3.4383,3.4296,3.4151,3.3992,3.3823,3.3606,3.3306,3.3137,3.3052,3.3161,3.2825,3.2867,3.3119,3.3512,3.3552,3.3316,3.2998,3.2779,3.2629,3.269,3.2738,3.28,3.2921,3.2992,3.3004,3.3006,3.3164,3.3367,3.2974,3.2393,3.2537,3.2688,3.2686,3.2805,3.2759,3.2768,3.2533,3.2429,3.2888,3.3135,3.3301,3.3358,3.3244,3.339,3.3625,3.3773,3.3938,3.3966,3.3996,3.4079,3.4207,3.4475,3.4666,3.4747,3.9427,3.8988,3.8988,3.8864,3.8716,3.89,3.9097,3.933,3.9567,3.9704,3.9704,3.9692,3.968,3.9644,3.9487,3.9266,3.9056,3.9318,3.913,3.8921,3.9081,3.9057,3.8953,3.9069,3.935,3.9612,3.9825,3.9998,3.9837,3.9897,4.0006,4.0126,4.0175,4.0271,4.0368,4.0223,4.003,3.9801,3.9584,3.933,3.9061,3.8916,3.884,3.8659,3.841,3.812,3.7717,3.7294,3.6654,3.6023,3.5489,3.5054,3.4477,3.426,3.4199,3.425,3.4455,3.4576,3.46,3.4661,3.4685,3.4687,3.4477,3.4368,3.4187,3.3992,3.3726,3.3583,3.3489,3.3499,3.3571,3.3545,3.3625,3.3751,3.3938,3.3954,3.3694,3.3425,3.3118,3.304,3.31,3.3125,3.315,3.3126,3.3185,3.3197,3.3199,3.3215,3.3376,3.339,3.3068,3.3152,3.3198,3.3062,3.3056,3.3066,3.3109,3.312,3.2938,3.3076,3.3237,3.3381,3.3493,3.3724,3.3914,3.4149,3.4272,3.4445,3.4575,3.4597,3.4472,3.4564,3.4898,3.4986,3.5017,3.9507,3.927,3.9258,3.9113,3.8932,3.9149,3.927,3.9342,3.9596,3.9704,3.9704,3.9704,3.9704,3.9656,3.9644,3.9608,3.9584,3.9559,3.9427,3.919,3.927,3.9294,3.9226,3.9246,3.9608,3.989,4.0054,4.0095,4.0131,4.0283,4.0375,4.0435,4.0464,4.05,4.0597,4.0512,4.0319,4.0119,4.0023,3.974,3.9302,3.9061,3.8956,3.884,3.8651,3.8349,3.7923,3.754,3.698,3.6255,3.57,3.5277,3.489,3.4443,3.4262,3.4286,3.4431,3.4615,3.4673,3.483,3.4951,3.4951,3.4881,3.4769,3.4477,3.4151,3.3946,3.4103,3.3897,3.3837,3.3958,3.4069,3.4321,3.422,3.4027,3.3775,3.3557,3.3812,3.3517,3.3463,3.3523,3.3475,3.3453,3.3416,3.3366,3.3378,3.3378,3.3392,3.3394,3.3382,3.3551,3.359,3.3609,3.3485,3.347,3.3442,3.3501,3.3616,3.3514,3.3404,3.3652,3.3883,3.4089,3.4323,3.4534,3.4789,3.5014,3.5177,3.5256,3.5192,3.5077,3.517,3.5376,3.5391,3.5336,3.9547,3.9306,3.9306,3.9246,3.9145,3.9254,3.9386,3.9535,3.9644,3.9704,3.9704,3.9704,3.9632,3.9535,3.9475,3.9475,3.9511,3.9632,3.9559,3.9415,3.941,3.9451,3.9403,3.9608,3.9933,4.0114,4.038,4.0568,4.0573,4.0512,4.0573,4.0712,4.0741,4.0826,4.0862,4.079,4.0664,4.05,4.0259,3.9909,3.9608,3.9415,3.9266,3.9133,3.9021,3.8704,3.8277,3.783,3.7331,3.6678,3.6147,3.5736,3.5479,3.5253,3.5132,3.5129,3.5228,3.5171,3.4941,3.5122,3.5192,3.5165,3.5083,3.4854,3.461,3.4392,3.4187,3.4187,3.4103,3.4103,3.4175,3.4214,3.4326,3.4297,3.4058,3.4024,3.3845,3.3914,3.3944,3.3946,3.3934,3.3897,3.3912,3.3984,3.38,3.3502,3.348,3.3436,3.3422,3.3382,3.3615,3.389,3.3906,3.3892,3.389,3.3909,3.3993,3.4061,3.4002,3.4001,3.4308,3.4545,3.479,3.5102,3.5418,3.5646,3.5831,3.572,3.5631,3.5636,3.566,3.5794,3.591,3.5762,3.5877,3.9584,3.9403,3.9403,3.9403,3.9386,3.9386,3.9511,3.968,3.9692,3.9704,3.9704,3.9692,3.9584,3.9451,3.9439,3.9475,3.9439,3.9608,3.9572,3.9535,3.9572,3.962,3.968,3.9921,4.015,4.0312,4.0657,4.0874,4.091,4.0862,4.0862,4.0995,4.1012,4.1096,4.1193,4.1091,4.0922,4.0652,4.0295,3.9957,3.9728,3.968,3.9559,3.9439,3.9294,3.9086,3.8599,3.8168,3.7645,3.6992,3.6533,3.6135,3.589,3.5724,3.5651,3.566,3.5721,3.57,3.547,3.547,3.5491,3.5419,3.525,3.5023,3.4784,3.4661,3.4537,3.4347,3.432,3.431,3.4296,3.4294,3.4159,3.4178,3.4115,3.4228,3.4338,3.4303,3.4236,3.4163,3.4199,3.4431,3.4467,3.4588,3.4335,3.3773,3.3575,3.3542,3.3558,3.3584,3.3978,3.4376,3.4392,3.4359,3.4284,3.4334,3.4443,3.4537,3.4463,3.4489,3.4736,3.5173,3.5546,3.5895,3.6188,3.6577,3.6801,3.6377,3.6011,3.6077,3.6177,3.6338,3.6391,3.6277,3.6482,3.9692,3.968,3.9668,3.9656,3.9656,3.9668,3.968,3.9704,3.9704,3.9704,3.9704,3.968,3.9644,3.9632,3.9567,3.9596,3.9644,3.9692,3.9692,3.9692,3.9716,3.9873,3.9994,4.0163,4.038,4.0717,4.0934,4.1067,4.1193,4.1091,4.1164,4.1277,4.1205,4.1248,4.1248,4.1152,4.0946,4.0681,4.0307,4.0018,3.9813,3.9716,3.9668,3.962,3.9403,3.9081,3.8611,3.8325,3.785,3.7161,3.6799,3.6557,3.634,3.6156,3.6098,3.6122,3.6216,3.6192,3.6098,3.5857,3.576,3.57,3.553,3.525,3.5014,3.4745,3.4612,3.4588,3.4562,3.4537,3.4508,3.4424,3.4147,3.4089,3.4272,3.4714,3.4752,3.4586,3.4506,3.4383,3.4528,3.4842,3.4999,3.5108,3.4835,3.4284,3.4133,3.4085,3.4061,3.4145,3.4579,3.4909,3.494,3.4869,3.468,3.4748,3.4956,3.5054,3.5038,3.4979,3.502,3.5526,3.6128,3.6382,3.6636,3.7216,3.762,3.7151,3.6804,3.669,3.672,3.6923,3.7184,3.7259,3.7465,3.9704,3.9704,3.9704,3.9704,3.9704,3.9704,3.9704,3.9704,3.9704,3.9704,3.9692,3.9531,3.9446,3.9458,3.9463,3.9463,3.9511,3.9837,3.9897,4.0018,4.0114,4.0247,4.038,4.0512,4.0734,4.091,4.1043,4.1164,4.126,4.1152,4.1067,4.1079,4.1176,4.1152,4.1115,4.1067,4.0922,4.0766,4.0476,4.0223,3.9986,3.9765,3.9704,3.968,3.9644,3.927,3.8856,3.8591,3.8096,3.7612,3.7234,3.7016,3.6868,3.6739,3.6702,3.669,3.6796,3.6775,3.6594,3.6292,3.6005,3.5808,3.5688,3.5555,3.5313,3.5141,3.4984,3.4926,3.4854,3.4854,3.4622,3.447,3.4289,3.4206,3.4473,3.5054,3.5229,3.5082,3.4989,3.4975,3.5192,3.547,3.5555,3.5627,3.5247,3.4824,3.4733,3.4627,3.4568,3.4721,3.5168,3.5453,3.5492,3.5444,3.5275,3.5373,3.553,3.5547,3.5589,3.5531,3.5516,3.5966,3.6498,3.6748,3.7128,3.7666,3.7906,3.7771,3.7527,3.7198,3.7282,3.756,3.7825,3.8054,3.8141,3.9704,3.9704,3.9704,3.9704,3.9704,3.9704,3.9704,3.9704,3.9704,3.9704,3.9692,3.9499,3.9427,3.941,3.9439,3.9523,3.9668,3.9926,4.0119,4.0252,4.038,4.0536,4.0652,4.079,4.0915,4.1048,4.1169,4.1302,4.1139,4.1,4.0874,4.0874,4.0929,4.0886,4.0862,4.0874,4.0862,4.0754,4.0705,4.0399,4.0143,3.995,3.9752,3.9728,3.968,3.9475,3.9106,3.8796,3.843,3.7999,3.766,3.7476,3.7415,3.7375,3.7387,3.7387,3.7379,3.7322,3.7053,3.6642,3.6271,3.6122,3.6086,3.5917,3.5736,3.5624,3.5543,3.5301,3.5241,3.5156,3.4936,3.4959,3.476,3.4693,3.5066,3.5557,3.575,3.5724,3.5653,3.5612,3.5808,3.5908,3.5965,3.5977,3.5754,3.5307,3.4952,3.4894,3.4936,3.5191,3.5741,3.5953,3.6033,3.5975,3.5923,3.5908,3.5914,3.605,3.6076,3.6052,3.6162,3.661,3.7009,3.7369,3.775,3.8155,3.8221,3.8122,3.7869,3.7572,3.7741,3.7919,3.8004,3.8136,3.8165,3.9704,3.9704,3.9704,3.9704,3.9704,3.9704,3.9704,3.9704,3.9704,3.9704,3.9704,3.9656,3.968,3.9675,3.9692,3.9813,3.9989,4.0126,4.0283,4.0488,4.0621,4.0705,4.0826,4.0976,4.1067,4.1236,4.1272,4.1193,4.0946,4.0862,4.0741,4.0548,4.0524,4.0548,4.0548,4.0766,4.0736,4.0597,4.079,4.0561,4.0312,4.0119,3.9921,3.9813,3.9716,3.9535,3.9246,3.8968,3.8615,3.8253,3.7938,3.7717,3.756,3.7524,3.7527,3.7515,3.7476,3.7439,3.7355,3.6887,3.6719,3.6597,3.6582,3.6473,3.6279,3.6183,3.6122,3.5914,3.5845,3.5796,3.5745,3.5691,3.5373,3.5271,3.5625,3.5901,3.6083,3.621,3.6098,3.6062,3.6122,3.6222,3.6295,3.6319,3.6183,3.5832,3.5313,3.5184,3.5325,3.5643,3.6193,3.6494,3.6571,3.6532,3.6452,3.6307,3.6325,3.6487,3.6518,3.6464,3.6772,3.7267,3.7659,3.7975,3.8109,3.8263,3.8404,3.8501,3.8268,3.806,3.8032,3.8144,3.8196,3.8349,3.8518,3.9704,3.9704,3.9704,3.9704,3.9704,3.9704,3.9704,3.9704,3.9704,3.9704,3.9704,3.9704,3.9829,3.9909,3.9982,4.0119,4.0355,4.0597,4.0729,4.0766,4.091,4.1055,4.1139,4.1139,4.12,4.126,4.1272,4.1164,4.091,4.079,4.0512,4.0283,4.0211,4.0182,4.0428,4.0633,4.0616,4.0754,4.085,4.079,4.0597,4.0312,4.0071,3.9933,3.9789,3.9584,3.9354,3.9085,3.8796,3.8466,3.8188,3.7995,3.7886,3.7878,3.7902,3.7914,3.7914,3.7826,3.7799,3.7616,3.7573,3.7343,3.7139,3.7106,3.7008,3.7008,3.6847,3.6639,3.6518,3.6385,3.6144,3.6074,3.5844,3.5654,3.5884,3.6152,3.6337,3.6398,3.6388,3.6416,3.6464,3.6464,3.6524,3.6481,3.6381,3.6363,3.5917,3.5922,3.6041,3.6198,3.6571,3.6937,3.7114,3.7076,3.6992,3.6806,3.6775,3.6913,3.688,3.6746,3.7192,3.773,3.7971,3.8114,3.82,3.8317,3.8603,3.8809,3.8712,3.8611,3.8538,3.8373,3.8279,3.8704,3.9301,3.9704,3.9704,3.9704,3.9704,3.9704,3.9704,3.9704,3.9704,3.9704,3.9704,3.9716,3.9789,3.9921,4.0078,4.0211,4.038,4.0628,4.0802,4.1012,4.1031,4.1188,4.1248,4.1272,4.1296,4.1272,4.1296,4.126,4.1164,4.091,4.0741,4.0536,4.0307,4.0066,4.0242,4.0435,4.0548,4.0568,4.0736,4.0845,4.0995,4.0778,4.0512,4.0199,4.0042,3.9849,3.962,3.9427,3.9198,3.8949,3.8704,3.849,3.8285,3.8241,3.822,3.822,3.822,3.818,3.8207,3.8359,3.8467,3.8379,3.8142,3.7898,3.7638,3.7481,3.7306,3.7258,3.7146,3.7134,3.6941,3.6666,3.6569,3.6426,3.6245,3.6281,3.6564,3.6553,3.6613,3.6584,3.6635,3.6657,3.6669,3.6711,3.6612,3.6535,3.6554,3.6545,3.6621,3.6677,3.6769,3.6906,3.7241,3.7504,3.7478,3.7378,3.7237,3.7242,3.7363,3.724,3.7083,3.7305,3.779,3.8015,3.8212,3.8269,3.845,3.8939,3.9117,3.903,3.9001,3.8986,3.8754,3.8442,3.8842,3.9439,3.9704,3.9704,3.9704,3.9704,3.9704,3.9728,3.9728,3.9716,3.9716,3.974,3.9765,4.003,4.0163,4.0199,4.0416,4.0657,4.0857,4.0934,4.1067,4.1217,4.1272,4.1296,4.1296,4.1296,4.1296,4.1296,4.126,4.1164,4.0922,4.0766,4.0633,4.0524,4.0392,4.0423,4.0471,4.0543,4.058,4.0748,4.1007,4.1091,4.0946,4.0645,4.0368,4.015,3.9902,3.9716,3.9559,3.9391,3.9161,3.8925,3.8687,3.8466,3.8301,3.8204,3.822,3.822,3.822,3.8628,3.8983,3.91,3.9206,3.8988,3.8811,3.8205,3.7708,3.756,3.7524,3.7463,3.7403,3.7391,3.7294,3.7168,3.7054,3.6948,3.6886,3.69,3.683,3.6801,3.6732,3.673,3.6763,3.6811,3.6937,3.6877,3.6808,3.6914,3.6973,3.7087,3.7111,3.7065,3.7243,3.752,3.7737,3.7825,3.7748,3.7616,3.762,3.7693,3.7615,3.7509,3.7704,3.784,3.8048,3.8233,3.8292,3.8598,3.9198,3.9388,3.9332,3.9327,3.9328,3.9211,3.8934,3.8698,3.9006,3.9704,3.9704,3.9704,3.9704,3.9728,3.9897,3.9998,3.9982,3.9998,4.0083,4.0283,4.0355,4.0481,4.0669,4.0754,4.0946,4.1079,4.1188,4.1212,4.1272,4.1296,4.1296,4.1296,4.1296,4.1296,4.1296,4.126,4.1188,4.0922,4.076,4.0652,4.0495,4.0568,4.0543,4.0621,4.0693,4.0754,4.0874,4.1152,4.1176,4.1055,4.0754,4.0524,4.0295,3.995,3.9777,3.9644,3.9475,3.927,3.9161,3.8788,3.8543,3.8506,3.8313,3.822,3.8284,3.8588,3.9052,3.9361,4.0263,4.0508,3.9901,3.9849,3.9279,3.8563,3.7947,3.7886,3.7838,3.7774,3.7786,3.7689,3.7582,3.7466,3.7391,3.7355,3.7373,3.7315,3.7274,3.7189,3.7011,3.7029,3.7089,3.7215,3.7173,3.7134,3.7274,3.7378,3.7501,3.7556,3.7504,3.7532,3.7799,3.791,3.7998,3.8065,3.7987,3.7987,3.7995,3.7908,3.7872,3.7988,3.8104,3.8179,3.8396,3.8694,3.9095,3.9543,3.966,3.9748,3.9671,3.9664,3.9562,3.9445,3.9249,3.9087,3.9704,3.9704,3.9704,3.9752,3.9873,4.003,4.0199,4.0355,4.0307,4.0351,4.0512,4.0621,4.0754,4.0874,4.0995,4.1139,4.126,4.126,4.1284,4.1284,4.1296,4.1296,4.1296,4.1296,4.1296,4.1326,4.1374,4.1362,4.1079,4.0917,4.0821,4.0833,4.0826,4.0814,4.0874,4.0983,4.1043,4.1103,4.1217,4.1272,4.1127,4.0874,4.0681,4.0452,4.0054,3.9861,3.9716,3.9523,3.9439,3.9342,3.8957,3.8824,3.8748,3.8555,3.8498,3.8636,3.9136,3.9632,4.0137,4.1082,4.0953,4.0616,4.0601,3.992,3.9169,3.8458,3.8398,3.8337,3.8277,3.8205,3.8048,3.7915,3.7815,3.7727,3.779,3.7879,3.7866,3.7836,3.7657,3.7419,3.7391,3.7439,3.7456,3.7429,3.7498,3.7702,3.7818,3.7902,3.7962,3.7938,3.7922,3.8046,3.8114,3.817,3.8208,3.8268,3.8344,3.8312,3.8176,3.8181,3.8297,3.8595,3.8869,3.9075,3.9272,3.976,4.0345,4.024,4.0251,4.0245,4.0432,4.0612,4.0418,3.9893,3.9762,3.9704,3.9704,3.9704,3.9866,4.0066,4.0126,4.0416,4.085,4.0669,4.0585,4.0657,4.0838,4.0946,4.1031,4.1169,4.1236,4.1296,4.1296,4.1296,4.1296,4.1296,4.1296,4.1296,4.1296,4.1332,4.1422,4.1495,4.1519,4.1381,4.126,4.1248,4.1296,4.1236,4.1176,4.1176,4.12,4.1212,4.1236,4.126,4.1284,4.1241,4.1019,4.0773,4.0543,4.0283,4.0042,3.9861,3.9716,3.962,3.9463,3.927,3.9149,3.894,3.8844,3.8844,3.9239,3.9731,4.0286,4.0836,4.1598,4.1414,4.1096,4.0897,4.0062,3.9243,3.8784,3.8695,3.8671,3.8611,3.853,3.8414,3.8321,3.8229,3.8068,3.8028,3.8067,3.8055,3.8022,3.7932,3.7737,3.7681,3.7745,3.779,3.7766,3.7759,3.8055,3.8148,3.8192,3.8208,3.8216,3.82,3.8208,3.8212,3.8212,3.8204,3.8316,3.8625,3.863,3.8611,3.8886,3.9263,3.948,3.9647,3.9736,3.9858,4.0646,4.1152,4.1069,4.1111,4.134,4.154,4.182,4.1507,4.0815,4.0607,3.9704,3.9704,3.9704,3.9849,4.0102,4.0319,4.0585,4.0893,4.1067,4.1079,4.1115,4.1152,4.1188,4.1188,4.1236,4.1296,4.1296,4.1296,4.1296,4.1296,4.1296,4.1296,4.1296,4.1296,4.141,4.1567,4.1663,4.1799,4.1786,4.169,4.1512,4.1338,4.1296,4.1296,4.1296,4.1296,4.1296,4.1296,4.1296,4.1296,4.126,4.1067,4.0821,4.07,4.0531,4.038,4.0211,4.0078,4.0023,3.9902,3.9471,3.9193,3.89,3.8944,3.9227,3.972,4.0398,4.0994,4.1368,4.1776,4.1598,4.0925,4.0406,3.9749,3.9235,3.9018,3.8916,3.8916,3.8884,3.882,3.874,3.8676,3.8603,3.8409,3.822,3.8212,3.8233,3.8209,3.8171,3.8083,3.8015,3.8023,3.8055,3.808,3.8112,3.8152,3.818,3.8208,3.8212,3.8216,3.8204,3.8212,3.8212,3.8212,3.822,3.8389,3.8697,3.9294,3.9523,3.9843,4.0283,4.0529,4.0733,4.0398,4.0493,4.1577,4.2195,4.1974,4.2075,4.2397,4.2269,4.2383,4.2296,4.1736,4.1639,3.9704,3.9704,3.9704,3.9849,4.0131,4.0392,4.064,4.0922,4.1176,4.1296,4.1296,4.1296,4.1296,4.1296,4.1296,4.1296,4.1296,4.1296,4.1296,4.1296,4.1296,4.1296,4.1296,4.1308,4.1483,4.1674,4.2248,4.248,4.2464,4.2268,4.2097,4.1592,4.1427,4.132,4.1308,4.1308,4.1308,4.1296,4.1308,4.1296,4.1296,4.1152,4.0983,4.0898,4.076,4.0628,4.0488,4.0355,4.0319,4.0259,3.9989,3.9868,3.9792,3.9945,4.0179,4.0663,4.1259,4.1806,4.187,4.1808,4.1655,4.0884,4.0361,3.9868,3.9533,3.933,3.9097,3.9073,3.8928,3.8852,3.8812,3.8748,3.8728,3.8634,3.8396,3.8284,3.8437,3.8583,3.8494,3.8381,3.8289,3.8257,3.8253,3.8144,3.8164,3.8176,3.8204,3.8225,3.8225,3.8221,3.8201,3.8289,3.8337,3.8253,3.822,3.8449,3.8782,3.9452,4.0282,4.1168,4.1745,4.1801,4.1785,4.1873,4.2237,4.3023,4.3408,4.3143,4.3294,4.3669,4.3265,4.2807,4.2697,4.2572,4.2282,3.9704,3.9704,3.9704,3.9849,4.0102,4.0343,4.0604,4.091,4.1139,4.126,4.1296,4.1296,4.1296,4.1296,4.1296,4.1296,4.1296,4.1296,4.1296,4.1296,4.1296,4.1296,4.1308,4.1374,4.1684,4.2299,4.3007,4.3385,4.362,4.3141,4.2503,4.1922,4.1614,4.1405,4.1393,4.1405,4.1465,4.1417,4.1393,4.135,4.1338,4.1296,4.1152,4.1031,4.0917,4.0826,4.0681,4.0556,4.0573,4.0602,4.0593,4.0614,4.0643,4.0821,4.1088,4.1457,4.171,4.1951,4.191,4.1791,4.1375,4.0856,4.0497,4.0089,3.9709,3.9499,3.9266,3.9193,3.9037,3.8908,3.8873,3.8809,3.8812,3.8815,3.8597,3.8533,3.8787,3.8916,3.8768,3.8651,3.8591,3.8519,3.8434,3.8325,3.8253,3.8257,3.8273,3.8241,3.8225,3.8216,3.8212,3.8421,3.8607,3.849,3.8293,3.8703,3.9122,3.9945,4.0869,4.2198,4.3124,4.2948,4.3181,4.394,4.4374,4.4534,4.4543,4.435,4.4603,4.4771,4.4098,4.3465,4.3284,4.3101,4.2699,3.9704,3.9704,3.9704,3.9849,4.0095,4.0167,4.0452,4.0845,4.0946,4.1079,4.1236,4.1284,4.1296,4.1314,4.1296,4.1296,4.1296,4.1296,4.1296,4.1296,4.1296,4.1296,4.1397,4.1639,4.2175,4.301,4.3866,4.4305,4.4378,4.367,4.313,4.2889,4.219,4.1964,4.1906,4.1887,4.1808,4.1688,4.155,4.1519,4.1332,4.1308,4.1284,4.1236,4.1212,4.1205,4.1103,4.0934,4.0862,4.092,4.1169,4.1312,4.1421,4.1558,4.1789,4.1875,4.2143,4.1744,4.1637,4.1315,4.0803,4.0399,3.9983,3.9575,3.9338,3.9326,3.9254,3.9391,3.9234,3.9033,3.8933,3.8805,3.8793,3.8871,3.876,3.9093,3.9403,3.9195,3.8932,3.8876,3.8856,3.8808,3.8744,3.8618,3.8481,3.8529,3.8687,3.8643,3.8509,3.8367,3.8305,3.8654,3.8999,3.8656,3.8454,3.9164,3.972,4.0507,4.1433,4.2736,4.3572,4.3832,4.4227,4.4823,4.5223,4.5405,4.5397,4.5309,4.5382,4.5374,4.4717,4.4177,4.3964,4.3312,4.2611]}]]